LiveATC.Net - Listen to live air traffic control over the Internet!
Airport/ARTCC Code
Frequency Search
(e.g., 124.400, 128.75)
Site-wide search
 


Browse Feeds
Top 50 Feeds
Coverage Map
Bad Weather Areas

LiveATC FAQ
Offer LiveATC feed
Contact LiveATC.net
Press Inquiries

LiveATC on iPhone
LiveATC on Android

Windows Phone
Windows 8/10

LiveATC Mobile
(Mobile browser)

ATC Audio Archives
Interesting Recordings

LiveATC Forums

Home Page
About LiveATC.net
Make a Donation
Terms of Use
Privacy Policy

Canadian Air Freqs

AIRMETs/SIGMETs

FAA Airport Status
Nat'l Airspace Status
Arrival Demand Charts


Server Software By:
Icecast.org
Liquidsoap

Select an area of interest:
U.S. Feeds: Class B Airports | Class C Airports | Class D/Other Airports | ARTCC (Centers)
International Feeds: Canada | Europe | Oceania | Asia | South America | North/Central America | Africa
Misc Feeds: HF Feeds
Search by ICAO/IATA airport code:   (e.g., kbos, kjfk, lax, eham, etc.)


Currently Available Live Feeds: 2611
Status Updated: Mon Sep 28 2020 21:36:04 UTC


NOTICE

Unauthorized use prohibited. See LiveATC.net Terms of Service

U.S. Class C Airport Feeds

 

KABE Gnd/Twr/App (Archives)
Allentown, Pennsylvania, United States

Feed Status: UP
Listen in your browser - HTML5 player(in browser, HTML5)
Click here to listen with your own player(launches your MP3 player)

KABE 282051Z 17009KT 10SM CLR 26/18 A2986 RMK AO2 SLP107 T02610178 56014

KABE Airport Info (Airnav.com)

KABE Flight Activity (Flightaware)

Listeners: 3 out of 1326 total

Allentown Approach/Departure: 119.650
Allentown Approach/Departure: 124.450
Allentown Ground: 121.900
Allentown Tower: 120.500

KABQ App/Dep (Main) (Archives)
Albuquerque, New Mexico, United States

Feed Status: UP
Listen in your browser - HTML5 player(in browser, HTML5)
Click here to listen with your own player(launches your MP3 player)

KABQ 282052Z 17005KT 10SM FEW250 18/M03 A3035 RMK AO2 SLP228 T01831033 58024

KABQ Airport Info (Airnav.com)

KABQ Flight Activity (Flightaware)

Listeners: 2 out of 1326 total

Albuquerque Approach/Departure (S of V12): 123.900

KABQ App/Dep (Other) (Archives)
Albuquerque, New Mexico, United States

Feed Status: UP
Listen in your browser - HTML5 player(in browser, HTML5)
Click here to listen with your own player(launches your MP3 player)

KABQ 282052Z 17005KT 10SM FEW250 18/M03 A3035 RMK AO2 SLP228 T01831033 58024

KABQ Airport Info (Airnav.com)

KABQ Flight Activity (Flightaware)

Listeners: 0 out of 1326 total

Albuquerque Approach/Departure (N of V12): 127.400

KABQ Del/Gnd (Archives)
Albuquerque, New Mexico, United States

Feed Status: UP
Listen in your browser - HTML5 player(in browser, HTML5)
Click here to listen with your own player(launches your MP3 player)

KABQ 282052Z 17005KT 10SM FEW250 18/M03 A3035 RMK AO2 SLP228 T01831033 58024

KABQ Airport Info (Airnav.com)

KABQ Flight Activity (Flightaware)

Listeners: 1 out of 1326 total

Albuquerque Clearance Delivery: 119.200
Albuquerque Ground: 121.900

KABQ Tower (Archives)
Albuquerque, New Mexico, United States

Feed Status: UP
Listen in your browser - HTML5 player(in browser, HTML5)
Click here to listen with your own player(launches your MP3 player)

KABQ 282052Z 17005KT 10SM FEW250 18/M03 A3035 RMK AO2 SLP228 T01831033 58024

KABQ Airport Info (Airnav.com)

KABQ Flight Activity (Flightaware)

Listeners: 1 out of 1326 total

Albuquerque Tower: 120.300

KABQ Tower #2 (Archives)
Albuquerque, New Mexico, United States

Feed Status: UP
Listen in your browser - HTML5 player(in browser, HTML5)
Click here to listen with your own player(launches your MP3 player)

KABQ 282052Z 17005KT 10SM FEW250 18/M03 A3035 RMK AO2 SLP228 T01831033 58024

KABQ Airport Info (Airnav.com)

KABQ Flight Activity (Flightaware)

Listeners: 0 out of 1326 total

Albuquerque Tower: 120.300

KABQ Twr/App/ZAB (Archives)
Albuquerque, New Mexico, United States

Feed Status: UP
Listen in your browser - HTML5 player(in browser, HTML5)
Click here to listen with your own player(launches your MP3 player)

KABQ 282052Z 17005KT 10SM FEW250 18/M03 A3035 RMK AO2 SLP228 T01831033 58024

KABQ Airport Info (Airnav.com)

KABQ Flight Activity (Flightaware)

Listeners: 2 out of 1326 total

Albuquerque Approach (South): 126.300
Albuquerque Approach/Departure (N of V12): 127.400
Albuquerque Approach/Departure (S of V12): 123.900
Albuquerque Clearance Delivery: 119.200
Albuquerque Tower: 120.300
Albuquerque Tower (South): 123.775
Albuquerque UNICOM: 122.950
ZAB Albuquerque Center Sector 16 SAN-L: 132.800
ZAB Albuquerque Center Sector 17 LAVA-L: 124.325
ZAB Albuquerque Center Sector 94 CNX-LH: 133.650

KACY App/Dep (Archives)
Atlantic City, New Jersey, United States

Feed Status: UP
Listen in your browser - HTML5 player(in browser, HTML5)
Click here to listen with your own player(launches your MP3 player)

KACY 282054Z 17012G17KT 10SM CLR 23/19 A2991 RMK AO2 SLP128 T02330189 56006

KACY Airport Info (Airnav.com)

KACY Flight Activity (Flightaware)

Listeners: 0 out of 1326 total

Atlantic City Approach/Departure: 124.600
Atlantic City Approach/Departure: 134.250
Atlantic City Approach/Departure: 385.500
Atlantic City Approach/Departure: 327.125

KACY ATIS (Archives)
Atlantic City, New Jersey, United States

Feed Status: UP
Listen in your browser - HTML5 player(in browser, HTML5)
Click here to listen with your own player(launches your MP3 player)

KACY 282054Z 17012G17KT 10SM CLR 23/19 A2991 RMK AO2 SLP128 T02330189 56006

KACY Airport Info (Airnav.com)

KACY Flight Activity (Flightaware)

Listeners: 0 out of 1326 total

Atlantic City ATIS: 125.725

KACY Clearance Delivery (Archives)
Atlantic City, New Jersey, United States

Feed Status: UP
Listen in your browser - HTML5 player(in browser, HTML5)
Click here to listen with your own player(launches your MP3 player)

KACY 282054Z 17012G17KT 10SM CLR 23/19 A2991 RMK AO2 SLP128 T02330189 56006

KACY Airport Info (Airnav.com)

KACY Flight Activity (Flightaware)

Listeners: 0 out of 1326 total

Atlantic City Clearance: 127.850

KACY GIANT KILLER (Archives)
Atlantic City, New Jersey, United States

Feed Status: UP
Listen in your browser - HTML5 player(in browser, HTML5)
Click here to listen with your own player(launches your MP3 player)

KACY 282054Z 17012G17KT 10SM CLR 23/19 A2991 RMK AO2 SLP128 T02330189 56006

KACY Airport Info (Airnav.com)

KACY Flight Activity (Flightaware)

Listeners: 0 out of 1326 total

GIANT KILLER Common Area (Air-Air): 337.225
GIANT KILLER W-105/W-106 Check In/Out: 135.225
GIANT KILLER W-105/W-106 Check In/Out: 338.100
GIANT KILLER W-105/W-106 Common Area: 305.250
GIANT KILLER W-107 Check In/Out: 135.725
GIANT KILLER W-107 Check In/Out: 255.000
GIANT KILLER W-107 Common Area: 339.725
GIANT KILLER W-386 Common Area (A through F): 312.200
GIANT KILLER W-386 Common Area (G through J): 350.050
GIANT KILLER W-386 Common Area (K) and W-387 Common Area (All): 346.600
GIANT KILLER W-386/W-387 Check In/Out: 118.125
GIANT KILLER W-386/W-387 Check In/Out (Primary): 238.100
GIANT KILLER W-386/W-387 Check In/Out (Secondary): 249.800

KACY Ground (Archives)
Atlantic City, New Jersey, United States

Feed Status: UP
Listen in your browser - HTML5 player(in browser, HTML5)
Click here to listen with your own player(launches your MP3 player)

KACY 282054Z 17012G17KT 10SM CLR 23/19 A2991 RMK AO2 SLP128 T02330189 56006

KACY Airport Info (Airnav.com)

KACY Flight Activity (Flightaware)

Listeners: 0 out of 1326 total

Atlantic City Ground: 121.900

KACY Tower (Archives)
Atlantic City, New Jersey, United States

Feed Status: UP
Listen in your browser - HTML5 player(in browser, HTML5)
Click here to listen with your own player(launches your MP3 player)

KACY 282054Z 17012G17KT 10SM CLR 23/19 A2991 RMK AO2 SLP128 T02330189 56006

KACY Airport Info (Airnav.com)

KACY Flight Activity (Flightaware)

Listeners: 0 out of 1326 total

Atlantic City Tower: 120.300

KALB Approach/Departure (Archives)
Albany, New York, United States

Feed Status: UP
Listen in your browser - HTML5 player(in browser, HTML5)
Click here to listen with your own player(launches your MP3 player)

KALB 282051Z 16016G21KT 10SM FEW035 FEW075 SCT150 SCT180 23/17 A2984 RMK AO2 SLP101 T02330167 57008

KALB Airport Info (Airnav.com)

KALB Flight Activity (Flightaware)

Listeners: 1 out of 1326 total

Albany Approach/Departure: 132.825
Albany Approach/Departure: 118.050

KALB ATIS (Archives)
Albany, New York, United States

Feed Status: UP
Listen in your browser - HTML5 player(in browser, HTML5)
Click here to listen with your own player(launches your MP3 player)

KALB 282051Z 16016G21KT 10SM FEW035 FEW075 SCT150 SCT180 23/17 A2984 RMK AO2 SLP101 T02330167 57008

KALB Airport Info (Airnav.com)

KALB Flight Activity (Flightaware)

Listeners: 0 out of 1326 total

Albany ATIS: 120.450

KALB Ground (Archives)
Albany, New York, United States

Feed Status: UP
Listen in your browser - HTML5 player(in browser, HTML5)
Click here to listen with your own player(launches your MP3 player)

KALB 282051Z 16016G21KT 10SM FEW035 FEW075 SCT150 SCT180 23/17 A2984 RMK AO2 SLP101 T02330167 57008

KALB Airport Info (Airnav.com)

KALB Flight Activity (Flightaware)

Listeners: 0 out of 1326 total

Albany Ground: 121.700

KALB Ground/Tower (Archives)
Albany, New York, United States

Feed Status: UP
Listen in your browser - HTML5 player(in browser, HTML5)
Click here to listen with your own player(launches your MP3 player)

KALB 282051Z 16016G21KT 10SM FEW035 FEW075 SCT150 SCT180 23/17 A2984 RMK AO2 SLP101 T02330167 57008

KALB Airport Info (Airnav.com)

KALB Flight Activity (Flightaware)

Listeners: 0 out of 1326 total

Albany Ground: 121.700
Albany Tower: 119.500

KALB Tower (Archives)
Albany, New York, United States

Feed Status: UP
Listen in your browser - HTML5 player(in browser, HTML5)
Click here to listen with your own player(launches your MP3 player)

KALB 282051Z 16016G21KT 10SM FEW035 FEW075 SCT150 SCT180 23/17 A2984 RMK AO2 SLP101 T02330167 57008

KALB Airport Info (Airnav.com)

KALB Flight Activity (Flightaware)

Listeners: 1 out of 1326 total

Albany Tower: 119.500

KAUG Portland App/ZBW (Archives)
Augusta, Maine, United States

Feed Status: UP
Listen in your browser - HTML5 player(in browser, HTML5)
Click here to listen with your own player(launches your MP3 player)

KAUG 282053Z AUTO 17003KT 8SM OVC004 20/19 A2994 RMK AO2 SLP139 T02000194 58009

KAUG Airport Info (Airnav.com)

KAUG Flight Activity (Flightaware)

Listeners: 1 out of 1326 total

Boston Center (Sector 02 Augusta High): 134.950
Portland Approach: 128.350

KAUS App/Dep #1 (Archives)
Austin, Texas, United States

Feed Status: UP
Listen in your browser - HTML5 player(in browser, HTML5)
Click here to listen with your own player(launches your MP3 player)

KAUS 282053Z 36019G28KT 10SM SCT095 SCT150 26/07 A3006 RMK AO2 PK WND 36034/2009 SLP169 T02560067 56010

KAUS Airport Info (Airnav.com)

KAUS Flight Activity (Flightaware)

Listeners: 0 out of 1326 total

Austin Approach (Final): 125.325
Austin Approach/Departure (East): 127.225
Austin Approach/Departure (South): 120.875
Austin Approach/Depature (West): 119.000

KAUS App/Dep #2 (Archives)
Austin, Texas, United States

Feed Status: UP
Listen in your browser - HTML5 player(in browser, HTML5)
Click here to listen with your own player(launches your MP3 player)

KAUS 282053Z 36019G28KT 10SM SCT095 SCT150 26/07 A3006 RMK AO2 PK WND 36034/2009 SLP169 T02560067 56010

KAUS Airport Info (Airnav.com)

KAUS Flight Activity (Flightaware)

Listeners: 0 out of 1326 total

Austin Approach (Final): 125.325
Austin Approach (West): 119.000
Austin Approach/Departure (East): 127.225
Austin Approach/Departure (South): 120.875

KAUS App/Dep #3 (Archives)
Austin, Texas, United States

Feed Status: UP
Listen in your browser - HTML5 player(in browser, HTML5)
Click here to listen with your own player(launches your MP3 player)

KAUS 282053Z 36019G28KT 10SM SCT095 SCT150 26/07 A3006 RMK AO2 PK WND 36034/2009 SLP169 T02560067 56010

KAUS Airport Info (Airnav.com)

KAUS Flight Activity (Flightaware)

Listeners: 0 out of 1326 total

Austin Approach (Final): 125.325
Austin Approach (West): 119.000
Austin Approach/Departure (East): 127.225
Austin Approach/Departure (SE): 118.150
Austin Approach/Departure (South): 120.875

KAUS App/Dep (East) #1 (Archives)
Austin, Texas, United States

Feed Status: UP
Listen in your browser - HTML5 player(in browser, HTML5)
Click here to listen with your own player(launches your MP3 player)

KAUS 282053Z 36019G28KT 10SM SCT095 SCT150 26/07 A3006 RMK AO2 PK WND 36034/2009 SLP169 T02560067 56010

KAUS Airport Info (Airnav.com)

KAUS Flight Activity (Flightaware)

Listeners: 0 out of 1326 total

Austin Approach/Departure (East): 127.225

KAUS App/Dep (East) #2 (Archives)
Austin, Texas, United States

Feed Status: UP
Listen in your browser - HTML5 player(in browser, HTML5)
Click here to listen with your own player(launches your MP3 player)

KAUS 282053Z 36019G28KT 10SM SCT095 SCT150 26/07 A3006 RMK AO2 PK WND 36034/2009 SLP169 T02560067 56010

KAUS Airport Info (Airnav.com)

KAUS Flight Activity (Flightaware)

Listeners: 0 out of 1326 total

Austin Approach/Departure (East): 127.225

KAUS App/Dep (SE) (Archives)
Austin, Texas, United States

Feed Status: UP
Listen in your browser - HTML5 player(in browser, HTML5)
Click here to listen with your own player(launches your MP3 player)

KAUS 282053Z 36019G28KT 10SM SCT095 SCT150 26/07 A3006 RMK AO2 PK WND 36034/2009 SLP169 T02560067 56010

KAUS Airport Info (Airnav.com)

KAUS Flight Activity (Flightaware)

Listeners: 0 out of 1326 total

Austin Approach/Departure (SE): 118.150

KAUS App/Dep (South) #1 (Archives)
Austin, Texas, United States

Feed Status: UP
Listen in your browser - HTML5 player(in browser, HTML5)
Click here to listen with your own player(launches your MP3 player)

KAUS 282053Z 36019G28KT 10SM SCT095 SCT150 26/07 A3006 RMK AO2 PK WND 36034/2009 SLP169 T02560067 56010

KAUS Airport Info (Airnav.com)

KAUS Flight Activity (Flightaware)

Listeners: 0 out of 1326 total

Austin Approach/Departure (South): 120.875

KAUS App/Dep (South) #2 (Archives)
Austin, Texas, United States

Feed Status: UP
Listen in your browser - HTML5 player(in browser, HTML5)
Click here to listen with your own player(launches your MP3 player)

KAUS 282053Z 36019G28KT 10SM SCT095 SCT150 26/07 A3006 RMK AO2 PK WND 36034/2009 SLP169 T02560067 56010

KAUS Airport Info (Airnav.com)

KAUS Flight Activity (Flightaware)

Listeners: 0 out of 1326 total

Austin Approach/Departure (South): 120.875

KAUS App/Dep (West) #1 (Archives)
Austin, Texas, United States

Feed Status: UP
Listen in your browser - HTML5 player(in browser, HTML5)
Click here to listen with your own player(launches your MP3 player)

KAUS 282053Z 36019G28KT 10SM SCT095 SCT150 26/07 A3006 RMK AO2 PK WND 36034/2009 SLP169 T02560067 56010

KAUS Airport Info (Airnav.com)

KAUS Flight Activity (Flightaware)

Listeners: 0 out of 1326 total

Austin Approach (West): 119.000

KAUS App/Dep (West) #2 (Archives)
Austin, Texas, United States

Feed Status: UP
Listen in your browser - HTML5 player(in browser, HTML5)
Click here to listen with your own player(launches your MP3 player)

KAUS 282053Z 36019G28KT 10SM SCT095 SCT150 26/07 A3006 RMK AO2 PK WND 36034/2009 SLP169 T02560067 56010

KAUS Airport Info (Airnav.com)

KAUS Flight Activity (Flightaware)

Listeners: 0 out of 1326 total

Austin Approach (West): 119.000

KAUS Approach (Final) #2 (Archives)
Austin, Texas, United States

Feed Status: UP
Listen in your browser - HTML5 player(in browser, HTML5)
Click here to listen with your own player(launches your MP3 player)

KAUS 282053Z 36019G28KT 10SM SCT095 SCT150 26/07 A3006 RMK AO2 PK WND 36034/2009 SLP169 T02560067 56010

KAUS Airport Info (Airnav.com)

KAUS Flight Activity (Flightaware)

Listeners: 0 out of 1326 total

Austin Approach (Final): 125.325

KAUS ATIS (Archives)
Austin, Texas, United States

Feed Status: UP
Listen in your browser - HTML5 player(in browser, HTML5)
Click here to listen with your own player(launches your MP3 player)

KAUS 282053Z 36019G28KT 10SM SCT095 SCT150 26/07 A3006 RMK AO2 PK WND 36034/2009 SLP169 T02560067 56010

KAUS Airport Info (Airnav.com)

KAUS Flight Activity (Flightaware)

Listeners: 0 out of 1326 total

Austin ATIS: 124.400

KAUS Clearance Delivery #1 (Archives)
Austin, Texas, United States

Feed Status: UP
Listen in your browser - HTML5 player(in browser, HTML5)
Click here to listen with your own player(launches your MP3 player)

KAUS 282053Z 36019G28KT 10SM SCT095 SCT150 26/07 A3006 RMK AO2 PK WND 36034/2009 SLP169 T02560067 56010

KAUS Airport Info (Airnav.com)

KAUS Flight Activity (Flightaware)

Listeners: 0 out of 1326 total

Austin Clearance Delivery: 125.500

KAUS Clearance Delivery #2 (Archives)
Austin, Texas, United States

Feed Status: UP
Listen in your browser - HTML5 player(in browser, HTML5)
Click here to listen with your own player(launches your MP3 player)

KAUS 282053Z 36019G28KT 10SM SCT095 SCT150 26/07 A3006 RMK AO2 PK WND 36034/2009 SLP169 T02560067 56010

KAUS Airport Info (Airnav.com)

KAUS Flight Activity (Flightaware)

Listeners: 0 out of 1326 total

Austin Clearance Delivery: 125.500

KAUS Ground #1 (Archives)
Austin, Texas, United States

Feed Status: UP
Listen in your browser - HTML5 player(in browser, HTML5)
Click here to listen with your own player(launches your MP3 player)

KAUS 282053Z 36019G28KT 10SM SCT095 SCT150 26/07 A3006 RMK AO2 PK WND 36034/2009 SLP169 T02560067 56010

KAUS Airport Info (Airnav.com)

KAUS Flight Activity (Flightaware)

Listeners: 0 out of 1326 total

Austin Ground: 121.900

KAUS Ground #2 (Archives)
Austin, Texas, United States

Feed Status: UP
Listen in your browser - HTML5 player(in browser, HTML5)
Click here to listen with your own player(launches your MP3 player)

KAUS 282053Z 36019G28KT 10SM SCT095 SCT150 26/07 A3006 RMK AO2 PK WND 36034/2009 SLP169 T02560067 56010

KAUS Airport Info (Airnav.com)

KAUS Flight Activity (Flightaware)

Listeners: 0 out of 1326 total

Austin Ground: 121.900
Austin Ground (Backup): 121.700

KAUS Ground (Primary) #2 (Archives)
Austin, Texas, United States

Feed Status: UP
Listen in your browser - HTML5 player(in browser, HTML5)
Click here to listen with your own player(launches your MP3 player)

KAUS 282053Z 36019G28KT 10SM SCT095 SCT150 26/07 A3006 RMK AO2 PK WND 36034/2009 SLP169 T02560067 56010

KAUS Airport Info (Airnav.com)

KAUS Flight Activity (Flightaware)

Listeners: 0 out of 1326 total

Austin Ground: 121.900

KAUS Ground (Secondary) #2 (Archives)
Austin, Texas, United States

Feed Status: UP
Listen in your browser - HTML5 player(in browser, HTML5)
Click here to listen with your own player(launches your MP3 player)

KAUS 282053Z 36019G28KT 10SM SCT095 SCT150 26/07 A3006 RMK AO2 PK WND 36034/2009 SLP169 T02560067 56010

KAUS Airport Info (Airnav.com)

KAUS Flight Activity (Flightaware)

Listeners: 0 out of 1326 total

Austin Ground (Backup): 121.700

KAUS Tower #1 (Archives)
Austin, Texas, United States

Feed Status: UP
Listen in your browser - HTML5 player(in browser, HTML5)
Click here to listen with your own player(launches your MP3 player)

KAUS 282053Z 36019G28KT 10SM SCT095 SCT150 26/07 A3006 RMK AO2 PK WND 36034/2009 SLP169 T02560067 56010

KAUS Airport Info (Airnav.com)

KAUS Flight Activity (Flightaware)

Listeners: 0 out of 1326 total

Austin Tower: 121.000

KAUS Tower #2 (Archives)
Austin, Texas, United States

Feed Status: UP
Listen in your browser - HTML5 player(in browser, HTML5)
Click here to listen with your own player(launches your MP3 player)

KAUS 282053Z 36019G28KT 10SM SCT095 SCT150 26/07 A3006 RMK AO2 PK WND 36034/2009 SLP169 T02560067 56010

KAUS Airport Info (Airnav.com)

KAUS Flight Activity (Flightaware)

Listeners: 0 out of 1326 total

Austin Tower: 121.000
Austin Tower: 118.225

KAUS Tower #3 (Archives)
Austin, Texas, United States

Feed Status: UP
Listen in your browser - HTML5 player(in browser, HTML5)
Click here to listen with your own player(launches your MP3 player)

KAUS 282053Z 36019G28KT 10SM SCT095 SCT150 26/07 A3006 RMK AO2 PK WND 36034/2009 SLP169 T02560067 56010

KAUS Airport Info (Airnav.com)

KAUS Flight Activity (Flightaware)

Listeners: 0 out of 1326 total

Austin Tower: 121.000

KAUS Tower (Main) #2 (Archives)
Austin, Texas, United States

Feed Status: UP
Listen in your browser - HTML5 player(in browser, HTML5)
Click here to listen with your own player(launches your MP3 player)

KAUS 282053Z 36019G28KT 10SM SCT095 SCT150 26/07 A3006 RMK AO2 PK WND 36034/2009 SLP169 T02560067 56010

KAUS Airport Info (Airnav.com)

KAUS Flight Activity (Flightaware)

Listeners: 2 out of 1326 total

Austin Tower: 121.000

KAUS Tower (Secondary) #2 (Archives)
Austin, Texas, United States

Feed Status: UP
Listen in your browser - HTML5 player(in browser, HTML5)
Click here to listen with your own player(launches your MP3 player)

KAUS 282053Z 36019G28KT 10SM SCT095 SCT150 26/07 A3006 RMK AO2 PK WND 36034/2009 SLP169 T02560067 56010

KAUS Airport Info (Airnav.com)

KAUS Flight Activity (Flightaware)

Listeners: 0 out of 1326 total

Austin Tower: 118.225

KAVL Gnd/Twr/App (Archives)
Asheville, North Carolina, United States

Feed Status: UP
Listen in your browser - HTML5 player(in browser, HTML5)
Click here to listen with your own player(launches your MP3 player)

KAVL 282054Z 19010KT 10SM FEW034 BKN060 24/17 A2990 RMK AO2 SLP099 T02390167 55008

KAVL Airport Info (Airnav.com)

KAVL Flight Activity (Flightaware)

Listeners: 5 out of 1326 total

Asheville Approach/Departure: 124.650
Asheville Approach/Departure: 125.800
Asheville Ground: 121.900
Asheville Tower/CTAF: 121.100
Asheville UNICOM: 122.950
Emergency (Guard): 121.500
Landmark Aviation (FBO): 130.275
RDU Radio: 122.100

KBTL/KAZO Gnd/Twr/App (Archives)
Kalamazoo, Michigan, United States

Feed Status: UP
Listen in your browser - HTML5 player(in browser, HTML5)
Click here to listen with your own player(launches your MP3 player)

KBTL Airport Info (Airnav.com)

KBTL Flight Activity (Flightaware)

Listeners: 1 out of 1326 total

Battle Creek Ground: 121.700
Battle Creek Tower: 126.825
Kalamazoo Approach/Departure: 119.200
Kalamazoo Ground: 121.900
Kalamazoo Tower: 118.300

KBDL Approach/ANG (Archives)
Windsor Locks, Connecticut, United States

Feed Status: UP
Listen in your browser - HTML5 player(in browser, HTML5)
Click here to listen with your own player(launches your MP3 player)

KBDL 282051Z 19013KT 10SM SCT043 BKN180 26/17 A2989 RMK AO2 SLP119 T02560167 56009

KBDL Airport Info (Airnav.com)

KBDL Flight Activity (Flightaware)

Listeners: 1 out of 1326 total

Bradley Approach (South): 127.800
Bradley Approach (South): 269.325
Bradley Approach (Spare): 127.225
Bradley Approach/Departure (North): 125.350
Bradley Approach/Departure (North): 281.500
Bradley Approach/Departure (West): 123.950
Bradley Approach/Departure (West): 290.550
Bradley Departure (South): 327.100
Bradley Departure (South): 323.200
CT ANG FURY Ops: 41.900
CT ANG FURY Ops: 139.200
CT ANG FURY Ops: 139.400
CT ANG FURY Ops: 243.900
CT ANG FURY Ops: 265.600
CT ANG SHARK Ops: 138.550
CT ANG SHARK Ops: 349.700
Emergency/Guard: 121.500
Emergency/Guard: 243.000

KBDL ATIS (Archives)
Windsor Locks, Connecticut, United States

Feed Status: UP
Listen in your browser - HTML5 player(in browser, HTML5)
Click here to listen with your own player(launches your MP3 player)

KBDL 282051Z 19013KT 10SM SCT043 BKN180 26/17 A2989 RMK AO2 SLP119 T02560167 56009

KBDL Airport Info (Airnav.com)

KBDL Flight Activity (Flightaware)

Listeners: 0 out of 1326 total

Bradley ATIS: 118.150

KBDL Del/Gnd (Archives)
Windsor Locks, Connecticut, United States

Feed Status: UP
Listen in your browser - HTML5 player(in browser, HTML5)
Click here to listen with your own player(launches your MP3 player)

KBDL 282051Z 19013KT 10SM SCT043 BKN180 26/17 A2989 RMK AO2 SLP119 T02560167 56009

KBDL Airport Info (Airnav.com)

KBDL Flight Activity (Flightaware)

Listeners: 0 out of 1326 total

Bradley Clearance Delivery: 121.750
Bradley Ground: 121.900
Emergency/Guard: 121.500

KBDL Tower (Archives)
Windsor Locks, Connecticut, United States

Feed Status: UP
Listen in your browser - HTML5 player(in browser, HTML5)
Click here to listen with your own player(launches your MP3 player)

KBDL 282051Z 19013KT 10SM SCT043 BKN180 26/17 A2989 RMK AO2 SLP119 T02560167 56009

KBDL Airport Info (Airnav.com)

KBDL Flight Activity (Flightaware)

Listeners: 1 out of 1326 total

Bradley Tower: 120.300

KBDL Twr/App (Archives)
Windsor Locks, Connecticut, United States

Feed Status: UP
Listen in your browser - HTML5 player(in browser, HTML5)
Click here to listen with your own player(launches your MP3 player)

KBDL 282051Z 19013KT 10SM SCT043 BKN180 26/17 A2989 RMK AO2 SLP119 T02560167 56009

KBDL Airport Info (Airnav.com)

KBDL Flight Activity (Flightaware)

Listeners: 1 out of 1326 total

Bradley Approach (South): 127.800
Bradley Approach (South): 269.325
Bradley Approach (Spare): 127.225
Bradley Approach/Departure (North): 125.350
Bradley Approach/Departure (North): 281.500
Bradley Approach/Departure (West): 290.550
Bradley Approach/Departure (West): 123.950
Bradley Tower: 120.300
CT ANG FURY Ops: 41.900
CT ANG FURY Ops: 265.600
CT ANG FURY Ops: 243.900
CT ANG FURY Ops: 139.400
CT ANG FURY Ops: 139.200
CT ANG SHARK Ops: 349.700
CT ANG SHARK Ops: 138.550
Emergency/Guard: 243.000
Emergency/Guard: 121.500

KBFM ATIS (Archives)
Mobile, Alabama, United States

Feed Status: UP
Listen in your browser - HTML5 player(in browser, HTML5)
Click here to listen with your own player(launches your MP3 player)

KBFM 282120Z 02006KT 4SM TS HZ BKN026 BKN070 28/22 A2982 RMK AO2 LTG DSNT W-NE PRESRR T02830217

KBFM Airport Info (Airnav.com)

KBFM Flight Activity (Flightaware)

Listeners: 0 out of 1326 total

Mobile Downtown ATIS: 135.575

KBGR App/ZBW (Archives)
Bangor, Maine, United States

Feed Status: UP
Listen in your browser - HTML5 player(in browser, HTML5)
Click here to listen with your own player(launches your MP3 player)

KBGR 282115Z 17007KT 1 1/2SM BR OVC003 20/19 A2996 RMK AO2 SFC VIS 3 T02000189

KBGR Airport Info (Airnav.com)

KBGR Flight Activity (Flightaware)

Listeners: 0 out of 1326 total

Bangor Approach: 118.925
Bangor Approach: 124.500
ZBW Sector 01 Millinocket High : 128.050
ZBW Sector 15 Surry Low : 124.250

KBGR ATIS (Archives)
Bangor, Maine, United States

Feed Status: UP
Listen in your browser - HTML5 player(in browser, HTML5)
Click here to listen with your own player(launches your MP3 player)

KBGR 282115Z 17007KT 1 1/2SM BR OVC003 20/19 A2996 RMK AO2 SFC VIS 3 T02000189

KBGR Airport Info (Airnav.com)

KBGR Flight Activity (Flightaware)

Listeners: 0 out of 1326 total

Bangor ATIS: 127.750

KBGR Del/Gnd/Twr (Archives)
Bangor, Maine, United States

Feed Status: UP
Listen in your browser - HTML5 player(in browser, HTML5)
Click here to listen with your own player(launches your MP3 player)

KBGR 282115Z 17007KT 1 1/2SM BR OVC003 20/19 A2996 RMK AO2 SFC VIS 3 T02000189

KBGR Airport Info (Airnav.com)

KBGR Flight Activity (Flightaware)

Listeners: 1 out of 1326 total

Bangor Clearance Delivery: 135.900
Bangor Ground: 121.900
Bangor Tower: 120.700

KBHM Gnd/Twr/App (Archives)
Birmingham, Alabama, United States

Feed Status: UP
Listen in your browser - HTML5 player(in browser, HTML5)
Click here to listen with your own player(launches your MP3 player)

KBHM 282053Z AUTO 22008KT 10SM SCT045 BKN055 BKN080 28/19 A2981 RMK AO2 LTG DSNT W AND NW SLP087 T02780194 56017

KBHM Airport Info (Airnav.com)

KBHM Flight Activity (Flightaware)

Listeners: 1 out of 1326 total

Birmingham Approach/Departure: 127.675
Birmingham Approach/Departure: 123.800
Birmingham Ground: 121.700
Birmingham Tower: 118.250
Birmingham Tower: 119.900

KBIL Approach (West) (Archives)
Billings, Montana, United States

Feed Status: UP
Listen in your browser - HTML5 player(in browser, HTML5)
Click here to listen with your own player(launches your MP3 player)

KBIL 282053Z 24013KT 10SM SCT200 20/M07 A3025 RMK AO2 SLP236 T02001067 56026

KBIL Airport Info (Airnav.com)

KBIL Flight Activity (Flightaware)

Listeners: 0 out of 1326 total

Billing Approach (West): 120.500

KBIL Ground (Archives)
Billings, Montana, United States

Feed Status: UP
Listen in your browser - HTML5 player(in browser, HTML5)
Click here to listen with your own player(launches your MP3 player)

KBIL 282053Z 24013KT 10SM SCT200 20/M07 A3025 RMK AO2 SLP236 T02001067 56026

KBIL Airport Info (Airnav.com)

KBIL Flight Activity (Flightaware)

Listeners: 1 out of 1326 total

Billings Ground: 121.900

KBIL Tower (Archives)
Billings, Montana, United States

Feed Status: UP
Listen in your browser - HTML5 player(in browser, HTML5)
Click here to listen with your own player(launches your MP3 player)

KBIL 282053Z 24013KT 10SM SCT200 20/M07 A3025 RMK AO2 SLP236 T02001067 56026

KBIL Airport Info (Airnav.com)

KBIL Flight Activity (Flightaware)

Listeners: 1 out of 1326 total

Billings Tower: 127.200

KBNA App/Dep (Archives)
Nashville, Tennessee, United States

Feed Status: UP
Listen in your browser - HTML5 player(in browser, HTML5)
Click here to listen with your own player(launches your MP3 player)

KBNA 282053Z 32008KT 10SM BKN013 OVC055 16/14 A2986 RMK AO2 RAE39 SLP108 P0000 60009 T01610139 51017

KBNA Airport Info (Airnav.com)

KBNA Flight Activity (Flightaware)

Listeners: 2 out of 1326 total

Nashville App/Dep (East): 118.400
Nashville App/Dep (West): 119.350
Nashville Approach (Final): 124.750

KBNA App/Dep (East) (Archives)
Nashville, Tennessee, United States

Feed Status: UP
Listen in your browser - HTML5 player(in browser, HTML5)
Click here to listen with your own player(launches your MP3 player)

KBNA 282053Z 32008KT 10SM BKN013 OVC055 16/14 A2986 RMK AO2 RAE39 SLP108 P0000 60009 T01610139 51017

KBNA Airport Info (Airnav.com)

KBNA Flight Activity (Flightaware)

Listeners: 0 out of 1326 total

Nashville App/Dep (East): 118.400

KBNA Gnd/Twr (Archives)
Nashville, Tennessee, United States

Feed Status: UP
Listen in your browser - HTML5 player(in browser, HTML5)
Click here to listen with your own player(launches your MP3 player)

KBNA 282053Z 32008KT 10SM BKN013 OVC055 16/14 A2986 RMK AO2 RAE39 SLP108 P0000 60009 T01610139 51017

KBNA Airport Info (Airnav.com)

KBNA Flight Activity (Flightaware)

Listeners: 2 out of 1326 total

Nashville Ground: 121.900
Nashville Tower: 118.600

KBOI Del/Gnd (Archives)
Boise, Idaho, United States

Feed Status: UP
Listen in your browser - HTML5 player(in browser, HTML5)
Click here to listen with your own player(launches your MP3 player)

KBOI 282053Z 23006KT 10SM CLR 22/01 A3039 RMK AO2 SLP280 T02170006 58020

KBOI Airport Info (Airnav.com)

KBOI Flight Activity (Flightaware)

Listeners: 1 out of 1326 total

Boise Clearance Delivery: 125.900
Boise Ground: 121.700

KBOI Twr/App (Archives)
Boise, Idaho, United States

Feed Status: UP
Listen in your browser - HTML5 player(in browser, HTML5)
Click here to listen with your own player(launches your MP3 player)

KBOI 282053Z 23006KT 10SM CLR 22/01 A3039 RMK AO2 SLP280 T02170006 58020

KBOI Airport Info (Airnav.com)

KBOI Flight Activity (Flightaware)

Listeners: 3 out of 1326 total

Boise Approach/Departure (North): 126.900
Boise Approach/Departure (South): 119.600
Boise Tower: 118.100

KBTL/KAZO Gnd/Twr/App (Archives)
Battle Creek, Michigan, United States

Feed Status: UP
Listen in your browser - HTML5 player(in browser, HTML5)
Click here to listen with your own player(launches your MP3 player)

KBTL Airport Info (Airnav.com)

KBTL Flight Activity (Flightaware)

Listeners: 1 out of 1326 total

Battle Creek Ground: 121.700
Battle Creek Tower: 126.825
Kalamazoo Approach/Departure: 119.200
Kalamazoo Ground: 121.900
Kalamazoo Tower: 118.300

KBTR/KHZR/L38 Del/Gnd/Twr/App/CTAF
Baton Rouge, Louisiana, United States

Feed Status: DOWN
Offline since: 2020-08-21 21:05:05 UTC

KBTR 282053Z 32011G17KT 10SM -RA BKN007 BKN018 OVC025 22/21 A2986 RMK AO2 SLP109 P0000 60005 T02220206 56022

KBTR Airport Info (Airnav.com)

Baton Rouge Approach/Departure (East): 126.500
Baton Rouge Approach/Departure (Military): 278.300
Baton Rouge Approach/Departure (West): 120.300
Baton Rouge Clearance Delivery: 119.400
Baton Rouge Ground: 121.900
Baton Rouge Tower (Military): 257.800
Baton Rouge Tower/CTAF: 118.450
Baton Rouge UNICOM: 122.950
Houston Center (App/Dep when Approach closed): 338.250
Houston Center (App/Dep when Approach closed): 126.350
Louisiana Regional L38 CTAF: 123.000
United Airlines: 129.925

KBTV App/Dep (Archives)
Burlington, Vermont, United States

Feed Status: UP
Listen in your browser - HTML5 player(in browser, HTML5)
Click here to listen with your own player(launches your MP3 player)

KBTV 282054Z 18009G16KT 10SM FEW039 BKN050 BKN070 23/17 A2981 RMK AO2 SLP094 60000 T02280172 50001

KBTV Airport Info (Airnav.com)

KBTV Flight Activity (Flightaware)

Listeners: 0 out of 1326 total

Burlington Approach/Departure: 278.800
Burlington Approach/Departure: 121.100

KBTV ATIS (Archives)
Burlington, Vermont, United States

Feed Status: UP
Listen in your browser - HTML5 player(in browser, HTML5)
Click here to listen with your own player(launches your MP3 player)

KBTV 282054Z 18009G16KT 10SM FEW039 BKN050 BKN070 23/17 A2981 RMK AO2 SLP094 60000 T02280172 50001

KBTV Airport Info (Airnav.com)

KBTV Flight Activity (Flightaware)

Listeners: 0 out of 1326 total

Burlington ATIS: 123.800

KBTV Del/Gnd/Twr (Archives)
Burlington, Vermont, United States

Feed Status: UP
Listen in your browser - HTML5 player(in browser, HTML5)
Click here to listen with your own player(launches your MP3 player)

KBTV 282054Z 18009G16KT 10SM FEW039 BKN050 BKN070 23/17 A2981 RMK AO2 SLP094 60000 T02280172 50001

KBTV Airport Info (Airnav.com)

KBTV Flight Activity (Flightaware)

Listeners: 1 out of 1326 total

Burlington Clearance Delivery: 119.150
Burlington Ground: 126.300
Burlington Ground: 348.600
Burlington Tower: 118.300
Burlington Tower: 257.800

KBTV Del/Gnd/Twr/App #1
Burlington, Vermont, United States

Feed Status: DOWN
Offline since: 2020-01-16 14:54:40 UTC

KBTV 282054Z 18009G16KT 10SM FEW039 BKN050 BKN070 23/17 A2981 RMK AO2 SLP094 60000 T02280172 50001

KBTV Airport Info (Airnav.com)

Burlington Clearance Delivery: 119.150
Burlington Ground: 126.300
Burlington Tower: 118.300

KBTV Del/Gnd/Twr/App #2 (Archives)
Burlington, Vermont, United States

Feed Status: UP
Listen in your browser - HTML5 player(in browser, HTML5)
Click here to listen with your own player(launches your MP3 player)

KBTV 282054Z 18009G16KT 10SM FEW039 BKN050 BKN070 23/17 A2981 RMK AO2 SLP094 60000 T02280172 50001

KBTV Airport Info (Airnav.com)

KBTV Flight Activity (Flightaware)

Listeners: 1 out of 1326 total

Burlington Approach/Departure: 278.800
Burlington Approach/Departure: 121.100
Burlington Clearance Delivery: 119.150
Burlington Ground: 126.300
Burlington Ground: 348.600
Burlington Tower: 257.800
Burlington Tower: 118.300

KBTV Twr/App (Archives)
Burlington, Vermont, United States

Feed Status: UP
Listen in your browser - HTML5 player(in browser, HTML5)
Click here to listen with your own player(launches your MP3 player)

KBTV 282054Z 18009G16KT 10SM FEW039 BKN050 BKN070 23/17 A2981 RMK AO2 SLP094 60000 T02280172 50001

KBTV Airport Info (Airnav.com)

KBTV Flight Activity (Flightaware)

Listeners: 0 out of 1326 total

Burlington Approach/Departure: 121.100
Burlington Tower: 118.300

KBUF Twr/App/Dep (Archives)
Buffalo, New York, United States

Feed Status: UP
Listen in your browser - HTML5 player(in browser, HTML5)
Click here to listen with your own player(launches your MP3 player)

KBUF 282054Z 20008KT 10SM FEW050 FEW095 FEW200 BKN270 26/14 A2968 RMK AO2 SLP048 T02610144 56013

KBUF Airport Info (Airnav.com)

KBUF Flight Activity (Flightaware)

Listeners: 5 out of 1326 total

Buffalo Approach: 126.150
Buffalo Approach: 126.500
Buffalo Flight Service: 122.200
Buffalo Tower: 120.500
Emergency/Guard: 121.500

KBUR Gnd/Twr/App (Archives)
Burbank, California, United States

Feed Status: UP
Listen in your browser - HTML5 player(in browser, HTML5)
Click here to listen with your own player(launches your MP3 player)

KBUR 282053Z VRB03KT 10SM CLR 35/13 A2989 RMK AO2 SLP107 T03500128 58016 $

KBUR Airport Info (Airnav.com)

KBUR Flight Activity (Flightaware)

Listeners: 1 out of 1326 total

KBUR Ground: 123.900
KBUR Tower: 118.700
SOCAL Approach (Moorpark Sector): 128.750
SOCAL Approach (Valley Sector): 124.600
SOCAL Approach (Woodland Sector): 134.200

KBUR Ground/Tower (Archives)
Burbank, California, United States

Feed Status: UP
Listen in your browser - HTML5 player(in browser, HTML5)
Click here to listen with your own player(launches your MP3 player)

KBUR 282053Z VRB03KT 10SM CLR 35/13 A2989 RMK AO2 SLP107 T03500128 58016 $

KBUR Airport Info (Airnav.com)

KBUR Flight Activity (Flightaware)

Listeners: 0 out of 1326 total

KBUR Ground: 123.900
KBUR Tower: 118.700

KCAE Gnd/Twr/App (Archives)
Columbia, South Carolina, United States

Feed Status: UP
Listen in your browser - HTML5 player(in browser, HTML5)
Click here to listen with your own player(launches your MP3 player)

KCAE 282056Z 13008KT 10SM SCT022 BKN028 24/21 A2989 RMK AO2 SLP118 T02440206 56010

KCAE Airport Info (Airnav.com)

KCAE Flight Activity (Flightaware)

Listeners: 0 out of 1326 total

Columbia Approach/Departure: 338.200
Columbia Approach/Departure: 285.600
Columbia Approach/Departure: 124.150
Columbia Approach/Departure: 133.400
Columbia Clearance Delivery: 119.750
Columbia Ground: 348.600
Columbia Ground: 121.900
Columbia Tower: 257.800
Columbia Tower: 119.500
Emergency/Guard: 121.500
Emergency/Guard: 243.000

KCAK App/Dep (Archives)
Akron, Ohio, United States

Feed Status: UP
Listen in your browser - HTML5 player(in browser, HTML5)
Click here to listen with your own player(launches your MP3 player)

KCAK 282051Z 17010KT 10SM SCT070 OVC120 24/16 A2966 RMK AO2 SLP037 60000 T02440161 58024

KCAK Airport Info (Airnav.com)

KCAK Flight Activity (Flightaware)

Listeners: 1 out of 1326 total

Akron-Canton Approach (Final): 126.400
Akron-Canton Approach/Departure: 118.600
Akron-Canton Approach/Departure: 125.500
Akron-Canton Approach/Departure (backup): 127.050

KCAK ATIS (Archives)
Akron, Ohio, United States

Feed Status: UP
Listen in your browser - HTML5 player(in browser, HTML5)
Click here to listen with your own player(launches your MP3 player)

KCAK 282051Z 17010KT 10SM SCT070 OVC120 24/16 A2966 RMK AO2 SLP037 60000 T02440161 58024

KCAK Airport Info (Airnav.com)

KCAK Flight Activity (Flightaware)

Listeners: 0 out of 1326 total

Akron-Canton ATIS: 121.050

KCAK Del/Gnd/Twr (Archives)
Akron, Ohio, United States

Feed Status: UP
Listen in your browser - HTML5 player(in browser, HTML5)
Click here to listen with your own player(launches your MP3 player)

KCAK 282051Z 17010KT 10SM SCT070 OVC120 24/16 A2966 RMK AO2 SLP037 60000 T02440161 58024

KCAK Airport Info (Airnav.com)

KCAK Flight Activity (Flightaware)

Listeners: 0 out of 1326 total

Akron-Canton Clearance: 132.050
Akron-Canton Ground: 121.700
Akron-Canton Tower: 134.750
Emergency/Guard: 121.500

KCAK Del/Gnd/Twr/App (Archives)
Akron, Ohio, United States

Feed Status: UP
Listen in your browser - HTML5 player(in browser, HTML5)
Click here to listen with your own player(launches your MP3 player)

KCAK 282051Z 17010KT 10SM SCT070 OVC120 24/16 A2966 RMK AO2 SLP037 60000 T02440161 58024

KCAK Airport Info (Airnav.com)

KCAK Flight Activity (Flightaware)

Listeners: 1 out of 1326 total

Akron-Canton Approach: 118.600
Akron-Canton Approach: 125.500
Akron-Canton Clearance: 132.050
Akron-Canton Departure: 126.400
Akron-Canton Ground: 121.700
Akron-Canton Tower: 134.750
Emergency/Guard: 121.500

KCHA Twr/App (Archives)
Chattanooga, Tennessee, United States

Feed Status: UP
Listen in your browser - HTML5 player(in browser, HTML5)
Click here to listen with your own player(launches your MP3 player)

KCHA 282053Z 17010KT 10SM SCT055 BKN070 BKN250 28/18 A2976 RMK AO2 SLP069 T02780178 56023

KCHA Airport Info (Airnav.com)

KCHA Flight Activity (Flightaware)

Listeners: 3 out of 1326 total

Chattanooga Approach/Departure: 119.200
Chattanooga Approach/Departure: 125.100
Chattanooga Tower: 118.300

KCHS Gnd/Twr/App (Archives)
Charleston, South Carolina, United States

Feed Status: UP
Listen in your browser - HTML5 player(in browser, HTML5)
Click here to listen with your own player(launches your MP3 player)

KCHS 282056Z 18010KT 10SM FEW008 BKN010 OVC015 25/23 A2989 RMK AO2 RAE15B38E48 SLP120 P0002 60068 T02500233 56012

KCHS Airport Info (Airnav.com)

KCHS Flight Activity (Flightaware)

Listeners: 1 out of 1326 total

Charleston Approach/Departure: 306.925
Charleston Approach/Departure: 120.700
Charleston Approach/Departure: 379.925
Charleston Approach/Departure: 119.300
Charleston Ground: 121.900
Charleston Ground: 348.600
Charleston Tower: 239.000
Charleston Tower: 126.000
Emergency/Guard: 121.500
Emergency/Guard: 243.000

KCID Del/Gnd/Twr/App (Archives)
Cedar Rapids, Iowa, United States

Feed Status: UP
Listen in your browser - HTML5 player(in browser, HTML5)
Click here to listen with your own player(launches your MP3 player)

KCID 282052Z 32013G25KT 10SM FEW043 BKN060 14/05 A2985 RMK AO2 PK WND 29028/2021 SLP111 T01440050 55004

KCID Airport Info (Airnav.com)

KCID Flight Activity (Flightaware)

Listeners: 0 out of 1326 total

Cedar Rapids Approach (North): 134.050
Cedar Rapids Approach (South): 119.700
Cedar Rapids Clearance Delivery: 125.450
Cedar Rapids Ground: 121.600
Cedar Rapids Tower: 118.700

KCID Gnd/Twr/App/KIOW (Archives)
Cedar Rapids, Iowa, United States

Feed Status: UP
Listen in your browser - HTML5 player(in browser, HTML5)
Click here to listen with your own player(launches your MP3 player)

KCID 282052Z 32013G25KT 10SM FEW043 BKN060 14/05 A2985 RMK AO2 PK WND 29028/2021 SLP111 T01440050 55004

KCID Airport Info (Airnav.com)

KCID Flight Activity (Flightaware)

Listeners: 0 out of 1326 total

Cedar Rapids Approach (091-269): 119.700
Cedar Rapids Approach (270-090): 134.050
Cedar Rapids Clearance Delivery: 125.450
Cedar Rapids Ground (0500-2330): 121.600
Cedar Rapids Tower (0500-2330): 118.700
UNICOM C17 (Marion) and surrounding area: 122.700
UNICOM IA24 Green Castle: 122.900
UNICOM KIOW (Iowa City) and surrounding area: 122.800

KCMH Twr/App
Columbus, Ohio, United States

Feed Status: DOWN
Offline since: 2020-09-07 23:48:05 UTC

KCMH 282117Z 19011G18KT 6SM -RA BR FEW009 BKN027 OVC045 20/19 A2967 RMK AO2 P0008 T02000189 $

KCMH Airport Info (Airnav.com)

Columbus Approach (Final): 118.200
Columbus Approach/Departure (North): 125.950
Columbus Approach/Departure (South): 119.150
Columbus Clearance Delivery: 126.300
Columbus Tower: 132.700
Columbus Tower: 127.525
Columbus Unicom: 122.950
Emergency/Guard: 121.500

KCMI Del/Gnd/Twr/App
Champaign/Urbana, Illinois, United States

Feed Status: DOWN
Offline since: 2020-08-02 13:36:05 UTC

KCMI 282053Z 28011G22KT 10SM FEW050 FEW070 18/08 A2982 RMK AO2 SLP097 T01830083 57003

KCMI Airport Info (Airnav.com)

Champaign Approach/Departure: 132.850
Champaign Approach/Departure: 121.350
Champaign Approach/Departure: 133.975
Champaign Clearance Delivery: 128.750
Champaign Ground: 121.800
Champaign Tower: 120.400
Champaign Tower: 127.825

KCOS Gnd/Twr/App/Dep (Archives)
Colorado Springs, Colorado, United States

Feed Status: UP
Listen in your browser - HTML5 player(in browser, HTML5)
Click here to listen with your own player(launches your MP3 player)

KCOS 282054Z 24009KT 210V280 10SM FEW080 15/M09 A3036 RMK AO2 SLP249 T01501089 56023

KCOS Airport Info (Airnav.com)

KCOS Flight Activity (Flightaware)

Listeners: 0 out of 1326 total

Springs Approach/Departure: 120.600
Springs Approach/Departure (East): 124.000
Springs Ground: 121.700
Springs Tower: 119.900
Springs Tower (East): 133.150

KCRP App/Dep (Archives)
Corpus Christi, Texas, United States

Feed Status: UP
Listen in your browser - HTML5 player(in browser, HTML5)
Click here to listen with your own player(launches your MP3 player)

KCRP 282051Z 01014G22KT 10SM FEW041 SCT060 BKN070 BKN250 28/13 A2995 RMK AO2 SLP139 T02780133 56010

KCRP Airport Info (Airnav.com)

KCRP Flight Activity (Flightaware)

Listeners: 0 out of 1326 total

Corpus Christi Approach: 120.900
Corpus Christi Approach: 124.800
Emergency/Guard: 121.500

KCRP Del/Gnd/Twr (Archives)
Corpus Christi, Texas, United States

Feed Status: UP
Listen in your browser - HTML5 player(in browser, HTML5)
Click here to listen with your own player(launches your MP3 player)

KCRP 282051Z 01014G22KT 10SM FEW041 SCT060 BKN070 BKN250 28/13 A2995 RMK AO2 SLP139 T02780133 56010

KCRP Airport Info (Airnav.com)

KCRP Flight Activity (Flightaware)

Listeners: 0 out of 1326 total

Corpus Christi Clearance Delivery: 118.550
Corpus Christi Ground: 121.900
Corpus Christi Tower: 119.400

KCRW Tower/Approach (Archives)
Charleston, West Virginia, United States

Feed Status: UP
Listen in your browser - HTML5 player(in browser, HTML5)
Click here to listen with your own player(launches your MP3 player)

KCRW 282054Z 17012G20KT 10SM SCT044 SCT090 27/16 A2975 RMK AO2 SLP066 T02670156 56018

KCRW Airport Info (Airnav.com)

KCRW Flight Activity (Flightaware)

Listeners: 3 out of 1326 total

Charleston Approach/Departure: 128.500
Charleston Approach/Departure (North): 124.100
Charleston Approach/Departure (South): 119.200
Charleston Clearance Delivery: 118.550
Charleston Ground: 121.800
Charleston Tower: 125.700
Emergency/Guard: 121.500

KDAB App/Dep (Archives)
Daytona Beach, Florida, United States

Feed Status: UP
Listen in your browser - HTML5 player(in browser, HTML5)
Click here to listen with your own player(launches your MP3 player)

KDAB 282127Z 27003KT 6SM -TSRA BR FEW024 SCT032CB BKN047 OVC130 24/23 A2988 RMK AO2 LTG DSNT ALQDS OCNL LTGICCG OHD-ALQDS TS OHD-ALQDS MOV E P0019 T02390233 $

KDAB Airport Info (Airnav.com)

KDAB Flight Activity (Flightaware)

Listeners: 0 out of 1326 total

Daytona Approach (East/Low): 123.900
Daytona Approach (North/High): 118.850
Daytona Approach (South/High): 127.075
Daytona Approach (West 8000-10000'): 125.725
Daytona Approach (West SFC-3500): 126.550
Daytona Approach/Departure (South): 125.350

KDAB App/Dep (All) (Archives)
Daytona Beach, Florida, United States

Feed Status: UP
Listen in your browser - HTML5 player(in browser, HTML5)
Click here to listen with your own player(launches your MP3 player)

KDAB 282127Z 27003KT 6SM -TSRA BR FEW024 SCT032CB BKN047 OVC130 24/23 A2988 RMK AO2 LTG DSNT ALQDS OCNL LTGICCG OHD-ALQDS TS OHD-ALQDS MOV E P0019 T02390233 $

KDAB Airport Info (Airnav.com)

KDAB Flight Activity (Flightaware)

Listeners: 1 out of 1326 total

Daytona Approach (East/Low): 123.900
Daytona Approach (North/High): 118.850
Daytona Approach (North/Low): 125.800
Daytona Approach (South/High): 127.075
Daytona Approach (West 8000-10000'): 125.725
Daytona Approach (West SFC-3500): 126.550
Daytona Approach/Departure (South): 125.350

KDAB Approach (North/Low) (Archives)
Daytona Beach, Florida, United States

Feed Status: UP
Listen in your browser - HTML5 player(in browser, HTML5)
Click here to listen with your own player(launches your MP3 player)

KDAB 282127Z 27003KT 6SM -TSRA BR FEW024 SCT032CB BKN047 OVC130 24/23 A2988 RMK AO2 LTG DSNT ALQDS OCNL LTGICCG OHD-ALQDS TS OHD-ALQDS MOV E P0019 T02390233 $

KDAB Airport Info (Airnav.com)

KDAB Flight Activity (Flightaware)

Listeners: 0 out of 1326 total

Daytona Approach (North/Low): 125.800

KDAB ATIS
Daytona Beach, Florida, United States

Feed Status: DOWN
Offline since: 2020-08-19 18:23:22 UTC

KDAB 282127Z 27003KT 6SM -TSRA BR FEW024 SCT032CB BKN047 OVC130 24/23 A2988 RMK AO2 LTG DSNT ALQDS OCNL LTGICCG OHD-ALQDS TS OHD-ALQDS MOV E P0019 T02390233 $

KDAB Airport Info (Airnav.com)

Daytona Beach ATIS: 132.875

KDAB Clearance/Ground (Archives)
Daytona Beach, Florida, United States

Feed Status: UP
Listen in your browser - HTML5 player(in browser, HTML5)
Click here to listen with your own player(launches your MP3 player)

KDAB 282127Z 27003KT 6SM -TSRA BR FEW024 SCT032CB BKN047 OVC130 24/23 A2988 RMK AO2 LTG DSNT ALQDS OCNL LTGICCG OHD-ALQDS TS OHD-ALQDS MOV E P0019 T02390233 $

KDAB Airport Info (Airnav.com)

KDAB Flight Activity (Flightaware)

Listeners: 1 out of 1326 total

Daytona Clearance: 119.300
Daytona Ground: 121.900

KDAB Ground/Tower
Daytona Beach, Florida, United States

Feed Status: DOWN
Offline since: 2020-08-19 18:23:22 UTC

KDAB 282127Z 27003KT 6SM -TSRA BR FEW024 SCT032CB BKN047 OVC130 24/23 A2988 RMK AO2 LTG DSNT ALQDS OCNL LTGICCG OHD-ALQDS TS OHD-ALQDS MOV E P0019 T02390233 $

KDAB Airport Info (Airnav.com)

Daytona Ground: 121.900
Daytona Tower (Primary 7L/25R): 120.700
Daytona Tower (Secondary 7R/25L): 118.100

KDAB Tower (120.7) (Archives)
Daytona Beach, Florida, United States

Feed Status: UP
Listen in your browser - HTML5 player(in browser, HTML5)
Click here to listen with your own player(launches your MP3 player)

KDAB 282127Z 27003KT 6SM -TSRA BR FEW024 SCT032CB BKN047 OVC130 24/23 A2988 RMK AO2 LTG DSNT ALQDS OCNL LTGICCG OHD-ALQDS TS OHD-ALQDS MOV E P0019 T02390233 $

KDAB Airport Info (Airnav.com)

KDAB Flight Activity (Flightaware)

Listeners: 0 out of 1326 total

Daytona Tower (Primary 7L/25R): 120.700

KDAB Tower (Both) (Archives)
Daytona Beach, Florida, United States

Feed Status: UP
Listen in your browser - HTML5 player(in browser, HTML5)
Click here to listen with your own player(launches your MP3 player)

KDAB 282127Z 27003KT 6SM -TSRA BR FEW024 SCT032CB BKN047 OVC130 24/23 A2988 RMK AO2 LTG DSNT ALQDS OCNL LTGICCG OHD-ALQDS TS OHD-ALQDS MOV E P0019 T02390233 $

KDAB Airport Info (Airnav.com)

KDAB Flight Activity (Flightaware)

Listeners: 0 out of 1326 total

Daytona Tower (Primary 7L/25R): 120.700
Daytona Tower (Secondary 7R/25L): 118.100

KDAY Del/Gnd/Twr/App (Archives)
Dayton, Ohio, United States

Feed Status: UP
Listen in your browser - HTML5 player(in browser, HTML5)
Click here to listen with your own player(launches your MP3 player)

KDAY 282056Z 32009KT 10SM -RA BKN009 OVC014 14/13 A2977 RMK AO2 SLP077 P0008 60021 T01390128 53019

KDAY Airport Info (Airnav.com)

KDAY Flight Activity (Flightaware)

Listeners: 1 out of 1326 total

Aero Enroute Dayton: 129.200
Aero Enroute Dayton: 129.150
Aero Enroute Dayton: 131.025
Air-To-Air: 123.450
Air-to-Air: 122.750
Columbus Approach/Departure (Backup): 118.000
Columbus Approach/Departure (Backup): 370.875
Columbus Approach/Departure (Backup): 269.225
Columbus Approach/Departure (Backup): 127.225
Columbus Approach/Departure (Backup): 353.700
Columbus Approach/Departure (Northeast): 323.150
Columbus Approach/Departure (Northeast): 118.425
Columbus Approach/Departure (South Satellite): 327.125
Columbus Approach/Departure (South Satellite): 126.500
Columbus Approach/Departure (Southeast): 118.850
Columbus Approach/Departure (Southeast): 269.275
Columbus Approach/Departure (West): 305.200
Columbus Approach/Departure (West): 134.450
Dayton Clearance Delivery: 121.750
Dayton Ground: 121.900
Dayton Heli-to-Heli: 123.025
Dayton Tower: 257.700
Dayton Tower: 119.900
Emergency/Guard: 243.000
Emergency/Guard: 121.500
UNICOM: 122.950

KDMA/KTUS Twr/Ops/ZAB (Archives)
Tucson, Arizona, United States

Feed Status: UP
Listen in your browser - HTML5 player(in browser, HTML5)
Click here to listen with your own player(launches your MP3 player)

KTUS 282053Z 02006G15KT 10SM CLR 36/M02 A2999 RMK AO2 SLP104 T03611022 58019

KTUS Airport Info (Airnav.com)

KTUS Flight Activity (Flightaware)

Listeners: 4 out of 1326 total

357FS Ops: 139.725
358FS Ops: 138.500
Albuquerque Center (Sector 47 Silver City/Low/UHF): 327.150
Albuquerque Center (Sector 90 San Simon/High/UHF): 281.500
AWACS: 364.200
BigFoot: 234.800
BigFoot: 271.000
Davis-Monthan AFB: 253.500
Tucson 162FW SOS IOPS: 392.200
Tucson Tower (UHF): 257.800

KTUS Del/Gnd/Twr/App/KDMA (Archives)
Tucson, Arizona, United States

Feed Status: UP
Listen in your browser - HTML5 player(in browser, HTML5)
Click here to listen with your own player(launches your MP3 player)

KTUS 282053Z 02006G15KT 10SM CLR 36/M02 A2999 RMK AO2 SLP104 T03611022 58019

KTUS Airport Info (Airnav.com)

KTUS Flight Activity (Flightaware)

Listeners: 0 out of 1326 total

KDMA Tower: 118.850
Tucson Approach (alt): 128.500
Tucson Approach (East/South): 125.100
Tucson Approach (North): 119.400
Tucson Approach (Practice Areas): 125.900
Tucson Clearance Delivery: 126.650
Tucson Ground: 124.400
Tucson Tower: 118.300
Tucson Tower (alt): 119.000

KDSM Del/Gnd/Twr/App
Des Moines, Iowa, United States

Feed Status: DOWN
Offline since: 2020-09-21 12:10:05 UTC

KDSM 282054Z 31012G21KT 10SM FEW045 BKN075 BKN090 16/05 A2993 RMK AO2 SLP134 PRESENT WX VCSH 60000 T01610050 56007

KDSM Airport Info (Airnav.com)

Des Moines Approach/Departure: 135.200
Des Moines Approach/Departure: 123.900
Des Moines Approach/Departure: 118.600
Des Moines Clearance Delivery: 134.150
Des Moines Ground: 121.900
Des Moines Tower: 118.300

KELP Gnd/Twr/App/Dep (Archives)
El Paso, Texas, United States

Feed Status: UP
Listen in your browser - HTML5 player(in browser, HTML5)
Click here to listen with your own player(launches your MP3 player)

KELP 282051Z 12010G18KT 10SM CLR 23/01 A3026 RMK AO2 SLP185 T02330006 58019

KELP Airport Info (Airnav.com)

KELP Flight Activity (Flightaware)

Listeners: 0 out of 1326 total

El Paso Approach/Departure: 119.150
El Paso Approach/Departure: 124.250
El Paso Ground: 121.900
El Paso Tower: 118.300
El Paso Tower: 126.050

KFAT App/Dep (Archives)
Fresno, California, United States

Feed Status: UP
Listen in your browser - HTML5 player(in browser, HTML5)
Click here to listen with your own player(launches your MP3 player)

KFAT 282053Z 29003KT 10SM CLR 33/12 A2993 RMK AO2 SLP130 MTNS OBSC FU HZ DSNT N-E-S T03280122 58017

KFAT Airport Info (Airnav.com)

KFAT Flight Activity (Flightaware)

Listeners: 0 out of 1326 total

Fresno Approach/Departure: 118.500
Fresno Approach/Departure: 132.350
Fresno Approach/Departure (IFR pickup KFCH): 119.000
Fresno Approach/Departure (North): 119.600

KFAT ATIS (Archives)
Fresno, California, United States

Feed Status: UP
Listen in your browser - HTML5 player(in browser, HTML5)
Click here to listen with your own player(launches your MP3 player)

KFAT 282053Z 29003KT 10SM CLR 33/12 A2993 RMK AO2 SLP130 MTNS OBSC FU HZ DSNT N-E-S T03280122 58017

KFAT Airport Info (Airnav.com)

KFAT Flight Activity (Flightaware)

Listeners: 0 out of 1326 total

Fresno ATIS: 121.350

KFAT Del/Gnd/Twr (Archives)
Fresno, California, United States

Feed Status: UP
Listen in your browser - HTML5 player(in browser, HTML5)
Click here to listen with your own player(launches your MP3 player)

KFAT 282053Z 29003KT 10SM CLR 33/12 A2993 RMK AO2 SLP130 MTNS OBSC FU HZ DSNT N-E-S T03280122 58017

KFAT Airport Info (Airnav.com)

KFAT Flight Activity (Flightaware)

Listeners: 1 out of 1326 total

Fresno Clearance Delivery: 124.350
Fresno Ground: 121.700
Fresno Ground (UHF): 348.600
Fresno Tower: 118.200
Fresno Tower (backup): 128.100
Fresno Tower (UHF): 251.100

KFAT Del/Gnd/Twr/App (Archives)
Fresno, California, United States

Feed Status: UP
Listen in your browser - HTML5 player(in browser, HTML5)
Click here to listen with your own player(launches your MP3 player)

KFAT 282053Z 29003KT 10SM CLR 33/12 A2993 RMK AO2 SLP130 MTNS OBSC FU HZ DSNT N-E-S T03280122 58017

KFAT Airport Info (Airnav.com)

KFAT Flight Activity (Flightaware)

Listeners: 0 out of 1326 total

Fresno Approach/Departure: 132.350
Fresno Approach/Departure: 118.500
Fresno Approach/Departure (IFR pickup KFCH): 119.000
Fresno Approach/Departure (North): 119.600
Fresno Clearance Delivery: 124.350
Fresno Ground: 121.700
Fresno Ground (UHF): 348.600
Fresno Tower: 118.200
Fresno Tower (backup): 128.100
Fresno Tower (UHF): 251.100

KFAY App/Dep (Archives)
Fayetteville, North Carolina, United States

Feed Status: UP
Listen in your browser - HTML5 player(in browser, HTML5)
Click here to listen with your own player(launches your MP3 player)

KFAY 282053Z 18008KT 10SM BKN110 25/20 A2992 RMK AO2 SLP125 T02500200 58005

KFAY Airport Info (Airnav.com)

KFAY Flight Activity (Flightaware)

Listeners: 0 out of 1326 total

Fayetteville Approach/Departure (North): 125.175
Fayetteville Approach/Departure (South): 133.000
Fayetteville Approach/Departure (Spare): 127.800

KFAY ATIS (Archives)
Fayetteville, North Carolina, United States

Feed Status: UP
Listen in your browser - HTML5 player(in browser, HTML5)
Click here to listen with your own player(launches your MP3 player)

KFAY 282053Z 18008KT 10SM BKN110 25/20 A2992 RMK AO2 SLP125 T02500200 58005

KFAY Airport Info (Airnav.com)

KFAY Flight Activity (Flightaware)

Listeners: 0 out of 1326 total

Fayetteville ATIS: 121.250

KFAY Emergency/Guard (Archives)
Fayetteville, North Carolina, United States

Feed Status: UP
Listen in your browser - HTML5 player(in browser, HTML5)
Click here to listen with your own player(launches your MP3 player)

KFAY 282053Z 18008KT 10SM BKN110 25/20 A2992 RMK AO2 SLP125 T02500200 58005

KFAY Airport Info (Airnav.com)

KFAY Flight Activity (Flightaware)

Listeners: 0 out of 1326 total

Emergency/Guard: 121.500

KFAY Ground (Archives)
Fayetteville, North Carolina, United States

Feed Status: UP
Listen in your browser - HTML5 player(in browser, HTML5)
Click here to listen with your own player(launches your MP3 player)

KFAY 282053Z 18008KT 10SM BKN110 25/20 A2992 RMK AO2 SLP125 T02500200 58005

KFAY Airport Info (Airnav.com)

KFAY Flight Activity (Flightaware)

Listeners: 0 out of 1326 total

Fayetteville Ground: 121.700

KFAY Tower (Archives)
Fayetteville, North Carolina, United States

Feed Status: UP
Listen in your browser - HTML5 player(in browser, HTML5)
Click here to listen with your own player(launches your MP3 player)

KFAY 282053Z 18008KT 10SM BKN110 25/20 A2992 RMK AO2 SLP125 T02500200 58005

KFAY Airport Info (Airnav.com)

KFAY Flight Activity (Flightaware)

Listeners: 0 out of 1326 total

Fayetteville Tower: 118.300

KFBG/KPOB Gnd/Twr (Archives)
Fort Bragg, North Carolina, United States

Feed Status: UP
Listen in your browser - HTML5 player(in browser, HTML5)
Click here to listen with your own player(launches your MP3 player)

KFAY 282053Z 18008KT 10SM BKN110 25/20 A2992 RMK AO2 SLP125 T02500200 58005

KFAY Airport Info (Airnav.com)

KFAY Flight Activity (Flightaware)

Listeners: 0 out of 1326 total

Pope Ground: 124.550
Pope Tower: 135.025
Simmons Base Ops: 142.350
Simmons Ground: 121.900
Simmons PAR Radar: 124.200
Simmons Radar: 120.800
Simmons Tower: 125.900

KFLL App (Final) (Archives)
Fort Lauderdale, Florida, United States

Feed Status: UP
Listen in your browser - HTML5 player(in browser, HTML5)
Click here to listen with your own player(launches your MP3 player)

KFLL 282053Z 26006KT 10SM SCT029 SCT045 BKN110 BKN190 BKN250 29/24 A2985 RMK AO2 LTG DSNT NW SLP107 CB DSNT NW T02940239 56010

KFLL Airport Info (Airnav.com)

KFLL Flight Activity (Flightaware)

Listeners: 0 out of 1326 total

Miami Approach (KFLL Final): 133.725

KFLL ATIS (Archives)
Fort Lauderdale, Florida, United States

Feed Status: UP
Listen in your browser - HTML5 player(in browser, HTML5)
Click here to listen with your own player(launches your MP3 player)

KFLL 282053Z 26006KT 10SM SCT029 SCT045 BKN110 BKN190 BKN250 29/24 A2985 RMK AO2 LTG DSNT NW SLP107 CB DSNT NW T02940239 56010

KFLL Airport Info (Airnav.com)

KFLL Flight Activity (Flightaware)

Listeners: 0 out of 1326 total

KFLL ATIS: 135.000

KFLL Clearance Delivery (Archives)
Fort Lauderdale, Florida, United States

Feed Status: UP
Listen in your browser - HTML5 player(in browser, HTML5)
Click here to listen with your own player(launches your MP3 player)

KFLL 282053Z 26006KT 10SM SCT029 SCT045 BKN110 BKN190 BKN250 29/24 A2985 RMK AO2 LTG DSNT NW SLP107 CB DSNT NW T02940239 56010

KFLL Airport Info (Airnav.com)

KFLL Flight Activity (Flightaware)

Listeners: 0 out of 1326 total

KFLL Clearance Delivery: 128.400

KFLL Departure (Archives)
Fort Lauderdale, Florida, United States

Feed Status: UP
Listen in your browser - HTML5 player(in browser, HTML5)
Click here to listen with your own player(launches your MP3 player)

KMIA 282053Z 16004KT 10SM FEW028 FEW045 SCT150 BKN250 28/23 A2986 RMK AO2 SLP110 CB DSNT SW T02830233 58012

KMIA Airport Info (Airnav.com)

KMIA Flight Activity (Flightaware)

Listeners: 0 out of 1326 total

Miami Departure (FLL): 126.050

KFLL Ground (Archives)
Fort Lauderdale, Florida, United States

Feed Status: UP
Listen in your browser - HTML5 player(in browser, HTML5)
Click here to listen with your own player(launches your MP3 player)

KFLL 282053Z 26006KT 10SM SCT029 SCT045 BKN110 BKN190 BKN250 29/24 A2985 RMK AO2 LTG DSNT NW SLP107 CB DSNT NW T02940239 56010

KFLL Airport Info (Airnav.com)

KFLL Flight Activity (Flightaware)

Listeners: 0 out of 1326 total

KFLL Ground: 121.700
KFLL Ground: 121.400

KFLL Ground (Main) (Archives)
Fort Lauderdale, Florida, United States

Feed Status: UP
Listen in your browser - HTML5 player(in browser, HTML5)
Click here to listen with your own player(launches your MP3 player)

KFLL 282053Z 26006KT 10SM SCT029 SCT045 BKN110 BKN190 BKN250 29/24 A2985 RMK AO2 LTG DSNT NW SLP107 CB DSNT NW T02940239 56010

KFLL Airport Info (Airnav.com)

KFLL Flight Activity (Flightaware)

Listeners: 0 out of 1326 total

KFLL Ground: 121.400

KFLL Ground (Secondary) (Archives)
Fort Lauderdale, Florida, United States

Feed Status: UP
Listen in your browser - HTML5 player(in browser, HTML5)
Click here to listen with your own player(launches your MP3 player)

KFLL 282053Z 26006KT 10SM SCT029 SCT045 BKN110 BKN190 BKN250 29/24 A2985 RMK AO2 LTG DSNT NW SLP107 CB DSNT NW T02940239 56010

KFLL Airport Info (Airnav.com)

KFLL Flight Activity (Flightaware)

Listeners: 0 out of 1326 total

KFLL Ground: 121.700

KFLL Ground/Tower (Archives)
Fort Lauderdale, Florida, United States

Feed Status: UP
Listen in your browser - HTML5 player(in browser, HTML5)
Click here to listen with your own player(launches your MP3 player)

KFLL 282053Z 26006KT 10SM SCT029 SCT045 BKN110 BKN190 BKN250 29/24 A2985 RMK AO2 LTG DSNT NW SLP107 CB DSNT NW T02940239 56010

KFLL Airport Info (Airnav.com)

KFLL Flight Activity (Flightaware)

Listeners: 2 out of 1326 total

KFLL Ground: 121.400
KFLL Tower (Rwy 10LR/28RL): 119.300

KFLL Ramp (Archives)
Fort Lauderdale, Florida, United States

Feed Status: UP
Listen in your browser - HTML5 player(in browser, HTML5)
Click here to listen with your own player(launches your MP3 player)

KFLL 282053Z 26006KT 10SM SCT029 SCT045 BKN110 BKN190 BKN250 29/24 A2985 RMK AO2 LTG DSNT NW SLP107 CB DSNT NW T02940239 56010

KFLL Airport Info (Airnav.com)

KFLL Flight Activity (Flightaware)

Listeners: 0 out of 1326 total

Fort Lauderdale Ramp (North): 118.175
Fort Lauderdale Ramp (South): 129.875

KFLL Tower (Archives)
Fort Lauderdale, Florida, United States

Feed Status: UP
Listen in your browser - HTML5 player(in browser, HTML5)
Click here to listen with your own player(launches your MP3 player)

KFLL 282053Z 26006KT 10SM SCT029 SCT045 BKN110 BKN190 BKN250 29/24 A2985 RMK AO2 LTG DSNT NW SLP107 CB DSNT NW T02940239 56010

KFLL Airport Info (Airnav.com)

KFLL Flight Activity (Flightaware)

Listeners: 0 out of 1326 total

KFLL Tower (Rwy 10LR/28RL): 119.300
KFLL Tower (Secondary): 120.200

KFLL Tower (Main) (Archives)
Fort Lauderdale, Florida, United States

Feed Status: UP
Listen in your browser - HTML5 player(in browser, HTML5)
Click here to listen with your own player(launches your MP3 player)

KFLL 282053Z 26006KT 10SM SCT029 SCT045 BKN110 BKN190 BKN250 29/24 A2985 RMK AO2 LTG DSNT NW SLP107 CB DSNT NW T02940239 56010

KFLL Airport Info (Airnav.com)

KFLL Flight Activity (Flightaware)

Listeners: 0 out of 1326 total

KFLL Tower (Rwy 10LR/28RL): 119.300

KFLL Tower (Secondary) (Archives)
Fort Lauderdale, Florida, United States

Feed Status: UP
Listen in your browser - HTML5 player(in browser, HTML5)
Click here to listen with your own player(launches your MP3 player)

KFLL 282053Z 26006KT 10SM SCT029 SCT045 BKN110 BKN190 BKN250 29/24 A2985 RMK AO2 LTG DSNT NW SLP107 CB DSNT NW T02940239 56010

KFLL Airport Info (Airnav.com)

KFLL Flight Activity (Flightaware)

Listeners: 0 out of 1326 total

KFLL Tower (Secondary): 120.200

KGEG Del/Gnd/Twr/App (Archives)
Spokane, Washington, United States

Feed Status: UP
Listen in your browser - HTML5 player(in browser, HTML5)
Click here to listen with your own player(launches your MP3 player)

KGEG 282053Z VRB03KT 10SM FEW250 20/03 A3041 RMK AO2 SLP294 T02000033 58017

KGEG Airport Info (Airnav.com)

KGEG Flight Activity (Flightaware)

Listeners: 0 out of 1326 total

Air to Air: 123.950
Emergency/Guard: 121.500
Seattle Handoff: 126.100
Spokane Approach/Departure: 123.750
Spokane Approach/Departure: 133.350
Spokane Clearance Delivery: 127.550
Spokane Ground: 121.900
Spokane Tower: 118.300

KGRB Del/Gnd/Twr/App (Archives)
Green Bay, Wisconsin, United States

Feed Status: UP
Listen in your browser - HTML5 player(in browser, HTML5)
Click here to listen with your own player(launches your MP3 player)

KGRB 282053Z 35011KT 10SM FEW030 SCT055 BKN070 12/09 A2969 RMK AO2 PK WND 36029/2031 RAB32E46 SLP057 P0000 60000 T01220094 53005

KGRB Airport Info (Airnav.com)

KGRB Flight Activity (Flightaware)

Listeners: 0 out of 1326 total

Emergency/Guard: 243.000
Emergency/Guard: 121.500
Green Bay Approach/Departure: 126.300
Green Bay Approach/Departure: 119.250
Green Bay Approach/Departure: 119.400
Green Bay Approach/Departure: 338.200
Green Bay Approach/Departure (ZMP): 370.900
Green Bay Approach/Departure (ZMP): 125.550
Green Bay Clearance Delivery: 121.750
Green Bay Departure: 126.550
Green Bay Flight Service Station: 122.750
Green Bay Ground: 121.900
Green Bay Radio: 122.500
Green Bay Radio: 122.250
Green Bay Tower: 257.800
Green Bay Tower: 118.700

KGRR App/Dep (Archives)
Grand Rapids, Michigan, United States

Feed Status: UP
Listen in your browser - HTML5 player(in browser, HTML5)
Click here to listen with your own player(launches your MP3 player)

KGRR 282053Z 24010KT 10SM BKN016 BKN095 15/13 A2971 RMK AO2 RAE04 SLP062 P0000 60002 T01500128 56006

KGRR Airport Info (Airnav.com)

KGRR Flight Activity (Flightaware)

Listeners: 0 out of 1326 total

Grand Rapids Approach (North): 124.600
Grand Rapids Approach (South): 128.400

KGRR App/Dep (North) (Archives)
Grand Rapids, Michigan, United States

Feed Status: UP
Listen in your browser - HTML5 player(in browser, HTML5)
Click here to listen with your own player(launches your MP3 player)

KGRR 282053Z 24010KT 10SM BKN016 BKN095 15/13 A2971 RMK AO2 RAE04 SLP062 P0000 60002 T01500128 56006

KGRR Airport Info (Airnav.com)

KGRR Flight Activity (Flightaware)

Listeners: 0 out of 1326 total

Grand Rapids Approach (North): 124.600

KGRR App/Dep (South) (Archives)
Grand Rapids, Michigan, United States

Feed Status: UP
Listen in your browser - HTML5 player(in browser, HTML5)
Click here to listen with your own player(launches your MP3 player)

KGRR 282053Z 24010KT 10SM BKN016 BKN095 15/13 A2971 RMK AO2 RAE04 SLP062 P0000 60002 T01500128 56006

KGRR Airport Info (Airnav.com)

KGRR Flight Activity (Flightaware)

Listeners: 0 out of 1326 total

Grand Rapids Approach (South): 128.400

KGRR Clearance Delivery (Archives)
Grand Rapids, Michigan, United States

Feed Status: UP
Listen in your browser - HTML5 player(in browser, HTML5)
Click here to listen with your own player(launches your MP3 player)

KGRR 282053Z 24010KT 10SM BKN016 BKN095 15/13 A2971 RMK AO2 RAE04 SLP062 P0000 60002 T01500128 56006

KGRR Airport Info (Airnav.com)

KGRR Flight Activity (Flightaware)

Listeners: 0 out of 1326 total

Grand Rapids Clearance Delivery: 119.300

KGRR Del/Gnd/Twr (Archives)
Grand Rapids, Michigan, United States

Feed Status: UP
Listen in your browser - HTML5 player(in browser, HTML5)
Click here to listen with your own player(launches your MP3 player)

KGRR 282053Z 24010KT 10SM BKN016 BKN095 15/13 A2971 RMK AO2 RAE04 SLP062 P0000 60002 T01500128 56006

KGRR Airport Info (Airnav.com)

KGRR Flight Activity (Flightaware)

Listeners: 1 out of 1326 total

Grand Rapids Clearance Delivery: 119.300
Grand Rapids Ground: 121.800
Grand Rapids Tower: 135.650

KGRR Del/Gnd/Twr/App (Archives)
Grand Rapids, Michigan, United States

Feed Status: UP
Listen in your browser - HTML5 player(in browser, HTML5)
Click here to listen with your own player(launches your MP3 player)

KGRR 282053Z 24010KT 10SM BKN016 BKN095 15/13 A2971 RMK AO2 RAE04 SLP062 P0000 60002 T01500128 56006

KGRR Airport Info (Airnav.com)

KGRR Flight Activity (Flightaware)

Listeners: 0 out of 1326 total

Grand Rapids Approach (North): 124.600
Grand Rapids Approach (South): 128.400
Grand Rapids Clearance Delivery: 119.300
Grand Rapids Ground: 121.800
Grand Rapids Tower: 135.650

KGRR Emergency/Guard (Archives)
Grand Rapids, Michigan, United States

Feed Status: UP
Listen in your browser - HTML5 player(in browser, HTML5)
Click here to listen with your own player(launches your MP3 player)

KGRR 282053Z 24010KT 10SM BKN016 BKN095 15/13 A2971 RMK AO2 RAE04 SLP062 P0000 60002 T01500128 56006

KGRR Airport Info (Airnav.com)

KGRR Flight Activity (Flightaware)

Listeners: 0 out of 1326 total

Emergency/Guard: 121.500

KGRR Gnd/Twr/App (Archives)
Grand Rapids, Michigan, United States

Feed Status: UP
Listen in your browser - HTML5 player(in browser, HTML5)
Click here to listen with your own player(launches your MP3 player)

KGRR 282053Z 24010KT 10SM BKN016 BKN095 15/13 A2971 RMK AO2 RAE04 SLP062 P0000 60002 T01500128 56006

KGRR Airport Info (Airnav.com)

KGRR Flight Activity (Flightaware)

Listeners: 0 out of 1326 total

Grand Rapids Approach (North): 124.600
Grand Rapids Approach (South): 128.400
Grand Rapids Ground: 121.800
Grand Rapids Tower: 135.650

KGRR Ground (Archives)
Grand Rapids, Michigan, United States

Feed Status: UP
Listen in your browser - HTML5 player(in browser, HTML5)
Click here to listen with your own player(launches your MP3 player)

KGRR 282053Z 24010KT 10SM BKN016 BKN095 15/13 A2971 RMK AO2 RAE04 SLP062 P0000 60002 T01500128 56006

KGRR Airport Info (Airnav.com)

KGRR Flight Activity (Flightaware)

Listeners: 0 out of 1326 total

Grand Rapids Ground: 121.800

KGRR Tower (Archives)
Grand Rapids, Michigan, United States

Feed Status: UP
Listen in your browser - HTML5 player(in browser, HTML5)
Click here to listen with your own player(launches your MP3 player)

KGRR 282053Z 24010KT 10SM BKN016 BKN095 15/13 A2971 RMK AO2 RAE04 SLP062 P0000 60002 T01500128 56006

KGRR Airport Info (Airnav.com)

KGRR Flight Activity (Flightaware)

Listeners: 0 out of 1326 total

Grand Rapids Tower: 135.650

KGSO Approach/Departure (Archives)
Greensboro, North Carolina, United States

Feed Status: UP
Listen in your browser - HTML5 player(in browser, HTML5)
Click here to listen with your own player(launches your MP3 player)

KGSO 282054Z 19012KT 10SM BKN030 BKN060 BKN120 24/19 A2988 RMK AO2 SLP110 60001 T02440194 56013

KGSO Airport Info (Airnav.com)

KGSO Flight Activity (Flightaware)

Listeners: 1 out of 1326 total

Greensboro Approach/Departure (South): 126.600
Greensboro Approach/Departure (West): 124.350

KGSO Approach/Departure (South) (Archives)
Greensboro, North Carolina, United States

Feed Status: UP
Listen in your browser - HTML5 player(in browser, HTML5)
Click here to listen with your own player(launches your MP3 player)

KGSO 282054Z 19012KT 10SM BKN030 BKN060 BKN120 24/19 A2988 RMK AO2 SLP110 60001 T02440194 56013

KGSO Airport Info (Airnav.com)

KGSO Flight Activity (Flightaware)

Listeners: 0 out of 1326 total

Greensboro Approach/Departure (South): 126.600

KGSO Approach/Departure (West) (Archives)
Greensboro, North Carolina, United States

Feed Status: UP
Listen in your browser - HTML5 player(in browser, HTML5)
Click here to listen with your own player(launches your MP3 player)

KGSO 282054Z 19012KT 10SM BKN030 BKN060 BKN120 24/19 A2988 RMK AO2 SLP110 60001 T02440194 56013

KGSO Airport Info (Airnav.com)

KGSO Flight Activity (Flightaware)

Listeners: 0 out of 1326 total

Greensboro Approach/Departure (West): 124.350

KGSO ATIS (Archives)
Greensboro, North Carolina, United States

Feed Status: UP
Listen in your browser - HTML5 player(in browser, HTML5)
Click here to listen with your own player(launches your MP3 player)

KGSO 282054Z 19012KT 10SM BKN030 BKN060 BKN120 24/19 A2988 RMK AO2 SLP110 60001 T02440194 56013

KGSO Airport Info (Airnav.com)

KGSO Flight Activity (Flightaware)

Listeners: 0 out of 1326 total

Greensboro ATIS: 128.550

KGSO Del/Gnd (Archives)
Greensboro, North Carolina, United States

Feed Status: UP
Listen in your browser - HTML5 player(in browser, HTML5)
Click here to listen with your own player(launches your MP3 player)

KGSO 282054Z 19012KT 10SM BKN030 BKN060 BKN120 24/19 A2988 RMK AO2 SLP110 60001 T02440194 56013

KGSO Airport Info (Airnav.com)

KGSO Flight Activity (Flightaware)

Listeners: 0 out of 1326 total

Greensboro Clearance Delivery: 121.750
Greensboro Ground: 121.900

KGSO Tower (Archives)
Greensboro, North Carolina, United States

Feed Status: UP
Listen in your browser - HTML5 player(in browser, HTML5)
Click here to listen with your own player(launches your MP3 player)

KGSO 282054Z 19012KT 10SM BKN030 BKN060 BKN120 24/19 A2988 RMK AO2 SLP110 60001 T02440194 56013

KGSO Airport Info (Airnav.com)

KGSO Flight Activity (Flightaware)

Listeners: 0 out of 1326 total

Greensboro Tower: 119.100

KGSP App/Dep (East) (Archives)
Greer, South Carolina, United States

Feed Status: UP
Listen in your browser - HTML5 player(in browser, HTML5)
Click here to listen with your own player(launches your MP3 player)

KGMU 282053Z 15011KT 10SM FEW037 SCT048 27/19 A2987 RMK AO2 SLP104 T02670194 56013

KGMU Airport Info (Airnav.com)

KGMU Flight Activity (Flightaware)

Listeners: 0 out of 1326 total

Greer Approach (East): 119.400

KGSP App/Dep (West) (Archives)
Greer, South Carolina, United States

Feed Status: UP
Listen in your browser - HTML5 player(in browser, HTML5)
Click here to listen with your own player(launches your MP3 player)

KGMU 282053Z 15011KT 10SM FEW037 SCT048 27/19 A2987 RMK AO2 SLP104 T02670194 56013

KGMU Airport Info (Airnav.com)

KGMU Flight Activity (Flightaware)

Listeners: 0 out of 1326 total

Greer Approach (West): 118.800

KGSP ATIS (Archives)
Greer, South Carolina, United States

Feed Status: UP
Listen in your browser - HTML5 player(in browser, HTML5)
Click here to listen with your own player(launches your MP3 player)

KGMU 282053Z 15011KT 10SM FEW037 SCT048 27/19 A2987 RMK AO2 SLP104 T02670194 56013

KGMU Airport Info (Airnav.com)

KGMU Flight Activity (Flightaware)

Listeners: 0 out of 1326 total

Greer ATIS: 134.250

KGSP Tower (Archives)
Greer, South Carolina, United States

Feed Status: UP
Listen in your browser - HTML5 player(in browser, HTML5)
Click here to listen with your own player(launches your MP3 player)

KGMU 282053Z 15011KT 10SM FEW037 SCT048 27/19 A2987 RMK AO2 SLP104 T02670194 56013

KGMU Airport Info (Airnav.com)

KGMU Flight Activity (Flightaware)

Listeners: 0 out of 1326 total

Greer Tower: 120.100

KHSV App/Dep (Archives)
Huntsville, Alabama, United States

Feed Status: UP
Listen in your browser - HTML5 player(in browser, HTML5)
Click here to listen with your own player(launches your MP3 player)

KHSV 282128Z 32013G23KT 5SM -RA BR SCT013 BKN018 OVC043 17/15 A2986 RMK AO2 LTG DSNT SE AND S RAB04 PRESRR CB DSNT E-S P0000 T01670150

KHSV Airport Info (Airnav.com)

KHSV Flight Activity (Flightaware)

Listeners: 0 out of 1326 total

Huntsville Approach (180-359): 118.050
Huntsville Approach (360-179): 125.600
Huntsville Approach (ASR): 118.750

KHSV ATIS (Archives)
Huntsville, Alabama, United States

Feed Status: UP
Listen in your browser - HTML5 player(in browser, HTML5)
Click here to listen with your own player(launches your MP3 player)

KHSV 282128Z 32013G23KT 5SM -RA BR SCT013 BKN018 OVC043 17/15 A2986 RMK AO2 LTG DSNT SE AND S RAB04 PRESRR CB DSNT E-S P0000 T01670150

KHSV Airport Info (Airnav.com)

KHSV Flight Activity (Flightaware)

Listeners: 0 out of 1326 total

Huntsville ATIS: 121.250

KHSV Del/Gnd (Archives)
Huntsville, Alabama, United States

Feed Status: UP
Listen in your browser - HTML5 player(in browser, HTML5)
Click here to listen with your own player(launches your MP3 player)

KHSV 282128Z 32013G23KT 5SM -RA BR SCT013 BKN018 OVC043 17/15 A2986 RMK AO2 LTG DSNT SE AND S RAB04 PRESRR CB DSNT E-S P0000 T01670150

KHSV Airport Info (Airnav.com)

KHSV Flight Activity (Flightaware)

Listeners: 0 out of 1326 total

Huntsville Clearance: 120.350
Huntsville Ground: 121.900

KHSV Gnd/Twr (Archives)
Huntsville, Alabama, United States

Feed Status: UP
Listen in your browser - HTML5 player(in browser, HTML5)
Click here to listen with your own player(launches your MP3 player)

KHSV 282128Z 32013G23KT 5SM -RA BR SCT013 BKN018 OVC043 17/15 A2986 RMK AO2 LTG DSNT SE AND S RAB04 PRESRR CB DSNT E-S P0000 T01670150

KHSV Airport Info (Airnav.com)

KHSV Flight Activity (Flightaware)

Listeners: 0 out of 1326 total

Huntsville Ground: 121.900
Huntsville Tower: 127.600

KHSV Gnd/Twr/App/Dep (Archives)
Huntsville, Alabama, United States

Feed Status: UP
Listen in your browser - HTML5 player(in browser, HTML5)
Click here to listen with your own player(launches your MP3 player)

KHSV 282128Z 32013G23KT 5SM -RA BR SCT013 BKN018 OVC043 17/15 A2986 RMK AO2 LTG DSNT SE AND S RAB04 PRESRR CB DSNT E-S P0000 T01670150

KHSV Airport Info (Airnav.com)

KHSV Flight Activity (Flightaware)

Listeners: 2 out of 1326 total

Huntsville Approach (180-359): 118.050
Huntsville Approach (360-179): 125.600
Huntsville Approach (ASR): 118.750
Huntsville Ground: 121.900
Huntsville Tower: 127.600

KBTR/KHZR/L38 Del/Gnd/Twr/App/CTAF
New Roads, Louisiana, United States

Feed Status: DOWN
Offline since: 2020-08-21 21:05:05 UTC

KBTR 282053Z 32011G17KT 10SM -RA BKN007 BKN018 OVC025 22/21 A2986 RMK AO2 SLP109 P0000 60005 T02220206 56022

KBTR Airport Info (Airnav.com)

Baton Rouge Approach/Departure (East): 126.500
Baton Rouge Approach/Departure (Military): 278.300
Baton Rouge Approach/Departure (West): 120.300
Baton Rouge Clearance Delivery: 119.400
Baton Rouge Ground: 121.900
Baton Rouge Tower (Military): 257.800
Baton Rouge Tower/CTAF: 118.450
Baton Rouge UNICOM: 122.950
Houston Center (App/Dep when Approach closed): 338.250
Houston Center (App/Dep when Approach closed): 126.350
Louisiana Regional L38 CTAF: 123.000
United Airlines: 129.925

KICT Ground/Tower (Archives)
Wichita, Kansas, United States

Feed Status: UP
Listen in your browser - HTML5 player(in browser, HTML5)
Click here to listen with your own player(launches your MP3 player)

KICT 282053Z 33015G24KT 10SM BKN090 21/M01 A3012 RMK AO2 PK WND 32030/2023 SLP195 T02061006 56019

KICT Airport Info (Airnav.com)

KICT Flight Activity (Flightaware)

Listeners: 0 out of 1326 total

Wichita Ground: 121.900
Wichita Tower: 118.200

KIND App/Dep (Archives)
Indianapolis, Indiana, United States

Feed Status: UP
Listen in your browser - HTML5 player(in browser, HTML5)
Click here to listen with your own player(launches your MP3 player)

KIND 282103Z 32007KT 10SM FEW019 SCT033 BKN100 18/11 A2980 RMK AO2 T01780106

KIND Airport Info (Airnav.com)

KIND Flight Activity (Flightaware)

Listeners: 2 out of 1326 total

Indy Approach: 119.300
Indy Approach (East): 127.150
Indy Approach (Final): 123.950
Indy Approach (IC): 128.175
Indy Approach (West): 121.100
Indy Approach (West): 124.650
Indy Approach/Departure: 134.850
Indy Approach/Departure: 120.650
Indy Approach/Departure: 135.450
Indy Departure: 119.500
Indy Departure (East): 124.950
Indy Departure (West): 119.050

KIND Ground (Archives)
Indianapolis, Indiana, United States

Feed Status: UP
Listen in your browser - HTML5 player(in browser, HTML5)
Click here to listen with your own player(launches your MP3 player)

KIND 282103Z 32007KT 10SM FEW019 SCT033 BKN100 18/11 A2980 RMK AO2 T01780106

KIND Airport Info (Airnav.com)

KIND Flight Activity (Flightaware)

Listeners: 1 out of 1326 total

Indianapolis Ground: 121.800
Indianapolis Ground: 121.900
Indianapolis Ground/Pre-Taxi Clearance: 128.750

KIND Tower (Archives)
Indianapolis, Indiana, United States

Feed Status: UP
Listen in your browser - HTML5 player(in browser, HTML5)
Click here to listen with your own player(launches your MP3 player)

KIND 282103Z 32007KT 10SM FEW019 SCT033 BKN100 18/11 A2980 RMK AO2 T01780106

KIND Airport Info (Airnav.com)

KIND Flight Activity (Flightaware)

Listeners: 2 out of 1326 total

Indianapolis Tower: 123.950
Indianapolis Tower (Primary): 120.900

KIND UNICOM/FSS/FBO (Archives)
Indianapolis, Indiana, United States

Feed Status: UP
Listen in your browser - HTML5 player(in browser, HTML5)
Click here to listen with your own player(launches your MP3 player)

KIND 282103Z 32007KT 10SM FEW019 SCT033 BKN100 18/11 A2980 RMK AO2 T01780106

KIND Airport Info (Airnav.com)

KIND Flight Activity (Flightaware)

Listeners: 0 out of 1326 total

Air to Air: 123.400
Air to Air: 123.450
Emergency/Guard: 121.500
Flight Service Station (FSS): 122.100
Helicopter UNICOM: 123.050
Million Air FBO: 130.575
Signature FBO: 129.725
UNICOM: 122.950

KCID Gnd/Twr/App/KIOW (Archives)
Iowa City, Iowa, United States

Feed Status: UP
Listen in your browser - HTML5 player(in browser, HTML5)
Click here to listen with your own player(launches your MP3 player)

KCID 282052Z 32013G25KT 10SM FEW043 BKN060 14/05 A2985 RMK AO2 PK WND 29028/2021 SLP111 T01440050 55004

KCID Airport Info (Airnav.com)

KCID Flight Activity (Flightaware)

Listeners: 0 out of 1326 total

Cedar Rapids Approach (091-269): 119.700
Cedar Rapids Approach (270-090): 134.050
Cedar Rapids Clearance Delivery: 125.450
Cedar Rapids Ground (0500-2330): 121.600
Cedar Rapids Tower (0500-2330): 118.700
UNICOM C17 (Marion) and surrounding area: 122.700
UNICOM IA24 Green Castle: 122.900
UNICOM KIOW (Iowa City) and surrounding area: 122.800

KIPT Gnd/Twr/ZNY (Archives)
Williamsport, Pennsylvania, United States

Feed Status: UP
Listen in your browser - HTML5 player(in browser, HTML5)
Click here to listen with your own player(launches your MP3 player)

KIPT 282054Z 15009KT 10SM FEW070 BKN085 OVC100 27/15 A2977 RMK AO2 SLP077 T02670150 56013 $

KIPT Airport Info (Airnav.com)

KIPT Flight Activity (Flightaware)

Listeners: 0 out of 1326 total

New York Center (Sector 91 Williamsport Low): 124.900
Williamsport Ground: 121.900
Williamsport Tower: 119.100

KISP (NY Approach) (Archives)
Islip, New York, United States

Feed Status: UP
Listen in your browser - HTML5 player(in browser, HTML5)
Click here to listen with your own player(launches your MP3 player)

KISP 282056Z 18010KT 10SM SCT011 SCT080 22/19 A2992 RMK AO2 SLP132 T02220194 56008 $

KISP Airport Info (Airnav.com)

KISP Flight Activity (Flightaware)

Listeners: 0 out of 1326 total

New York Approach/Departure (Islip): 120.050

KISP Tower (Archives)
Islip, New York, United States

Feed Status: UP
Listen in your browser - HTML5 player(in browser, HTML5)
Click here to listen with your own player(launches your MP3 player)

KISP 282056Z 18010KT 10SM SCT011 SCT080 22/19 A2992 RMK AO2 SLP132 T02220194 56008 $

KISP Airport Info (Airnav.com)

KISP Flight Activity (Flightaware)

Listeners: 4 out of 1326 total

Islip Tower: 119.300

KJAN Gnd/Twr/App/Dep (Archives)
Jackson, Mississippi, United States

Feed Status: UP
Listen in your browser - HTML5 player(in browser, HTML5)
Click here to listen with your own player(launches your MP3 player)

KJAN 282125Z 34010KT 10SM SCT016 OVC055 19/14 A2993 RMK AO2 T01890144

KJAN Airport Info (Airnav.com)

KJAN Flight Activity (Flightaware)

Listeners: 0 out of 1326 total

Jackson Approach/Departure: 123.900
Jackson Approach/Departure: 125.250
Jackson Ground: 121.700
Jackson Tower: 120.900

KJAX Approach/Departure (Archives)
Jacksonville, Florida, United States

Feed Status: UP
Listen in your browser - HTML5 player(in browser, HTML5)
Click here to listen with your own player(launches your MP3 player)

KJAX 282056Z 19004KT 10SM SCT030 BKN060 OVC200 26/23 A2986 RMK AO2 LTG DSNT N SLP113 T02610233 56009

KJAX Airport Info (Airnav.com)

KJAX Flight Activity (Flightaware)

Listeners: 0 out of 1326 total

Jacksonville Approach/Departure: 127.000
Jacksonville Approach/Departure: 124.900
Jacksonville Approach/Departure: 123.800
Jacksonville Approach/Departure: 120.750
Jacksonville Approach/Departure: 118.000
Jacksonville Approach/Departure: 119.000

KJAX ATIS (Archives)
Jacksonville, Florida, United States

Feed Status: UP
Listen in your browser - HTML5 player(in browser, HTML5)
Click here to listen with your own player(launches your MP3 player)

KJAX 282056Z 19004KT 10SM SCT030 BKN060 OVC200 26/23 A2986 RMK AO2 LTG DSNT N SLP113 T02610233 56009

KJAX Airport Info (Airnav.com)

KJAX Flight Activity (Flightaware)

Listeners: 1 out of 1326 total

Jacksonville D-ATIS: 125.850

KJAX Gnd/Twr (Archives)
Jacksonville, Florida, United States

Feed Status: UP
Listen in your browser - HTML5 player(in browser, HTML5)
Click here to listen with your own player(launches your MP3 player)

KJAX 282056Z 19004KT 10SM SCT030 BKN060 OVC200 26/23 A2986 RMK AO2 LTG DSNT N SLP113 T02610233 56009

KJAX Airport Info (Airnav.com)

KJAX Flight Activity (Flightaware)

Listeners: 1 out of 1326 total

Jacksonville Ground: 121.900
Jacksonville Tower: 118.300

KLAN Del/Gnd/Twr/App (Archives)
Lansing, Michigan, United States

Feed Status: UP
Listen in your browser - HTML5 player(in browser, HTML5)
Click here to listen with your own player(launches your MP3 player)

KLAN 282053Z 27003KT 10SM FEW010 BKN065 OVC095 13/11 A2971 RMK AO2 RAB13E38 SLP062 P0001 60004 T01330111 58004

KLAN Airport Info (Airnav.com)

KLAN Flight Activity (Flightaware)

Listeners: 2 out of 1326 total

CTAF/UNICOM (K60G): 122.900
CTAF/UNICOM (KTEW/4D0): 122.700
Emergency/Guard: 121.500
Great Lakes Approach: 127.300
Great Lakes Approach/Departure (North): 133.475
Great Lakes Approach/Departure (South): 118.650
Lansing Clearance Delivery: 123.675
Lansing Ground: 121.900
Lansing Tower: 119.900
Lansing UNICOM: 122.950

KLBB Gnd/Twr/App (Archives)
Lubbock, Texas, United States

Feed Status: UP
Listen in your browser - HTML5 player(in browser, HTML5)
Click here to listen with your own player(launches your MP3 player)

KLBB 282053Z 36014G22KT 10SM FEW070 BKN120 BKN160 20/M04 A3030 RMK AO2 SLP228 T02001044 58016

KLBB Airport Info (Airnav.com)

KLBB Flight Activity (Flightaware)

Listeners: 0 out of 1326 total

Emergency/Guard: 121.500
Hub City Aviation: 123.500
Lubbock Approach/Departure: 119.200
Lubbock Ground: 121.900
Lubbock Tower: 120.500

Emergency/Guard (Archives)
Midland, Texas, United States

Feed Status: UP
Listen in your browser - HTML5 player(in browser, HTML5)
Click here to listen with your own player(launches your MP3 player)

KMAF 282053Z 02013G21KT 10SM CLR 23/M03 A3025 RMK AO2 SLP212 T02281028 58020

KMAF Airport Info (Airnav.com)

KMAF Flight Activity (Flightaware)

Listeners: 0 out of 1326 total

Emergency/Guard: 121.500

KMAF App/Dep (North) (Archives)
Midland, Texas, United States

Feed Status: UP
Listen in your browser - HTML5 player(in browser, HTML5)
Click here to listen with your own player(launches your MP3 player)

KMAF 282053Z 02013G21KT 10SM CLR 23/M03 A3025 RMK AO2 SLP212 T02281028 58020

KMAF Airport Info (Airnav.com)

KMAF Flight Activity (Flightaware)

Listeners: 0 out of 1326 total

Midland Approach/Departure: 124.600

KMAF App/Dep (North/South) (Archives)
Midland, Texas, United States

Feed Status: UP
Listen in your browser - HTML5 player(in browser, HTML5)
Click here to listen with your own player(launches your MP3 player)

KMAF 282053Z 02013G21KT 10SM CLR 23/M03 A3025 RMK AO2 SLP212 T02281028 58020

KMAF Airport Info (Airnav.com)

KMAF Flight Activity (Flightaware)

Listeners: 0 out of 1326 total

Midland Approach/Departure: 121.100
Midland Approach/Departure: 124.600

KMAF App/Dep (South) (Archives)
Midland, Texas, United States

Feed Status: UP
Listen in your browser - HTML5 player(in browser, HTML5)
Click here to listen with your own player(launches your MP3 player)

KMAF 282053Z 02013G21KT 10SM CLR 23/M03 A3025 RMK AO2 SLP212 T02281028 58020

KMAF Airport Info (Airnav.com)

KMAF Flight Activity (Flightaware)

Listeners: 0 out of 1326 total

Midland Approach/Departure: 121.100

KMAF ATIS (Archives)
Midland, Texas, United States

Feed Status: UP
Listen in your browser - HTML5 player(in browser, HTML5)
Click here to listen with your own player(launches your MP3 player)

KMAF 282053Z 02013G21KT 10SM CLR 23/M03 A3025 RMK AO2 SLP212 T02281028 58020

KMAF Airport Info (Airnav.com)

KMAF Flight Activity (Flightaware)

Listeners: 0 out of 1326 total

Midland ATIS: 126.800

KMAF Clearance Delivery (Archives)
Midland, Texas, United States

Feed Status: UP
Listen in your browser - HTML5 player(in browser, HTML5)
Click here to listen with your own player(launches your MP3 player)

KMAF 282053Z 02013G21KT 10SM CLR 23/M03 A3025 RMK AO2 SLP212 T02281028 58020

KMAF Airport Info (Airnav.com)

KMAF Flight Activity (Flightaware)

Listeners: 0 out of 1326 total

Midland Clearance Delivery: 118.050

KMAF Del/Gnd (Archives)
Midland, Texas, United States

Feed Status: UP
Listen in your browser - HTML5 player(in browser, HTML5)
Click here to listen with your own player(launches your MP3 player)

KMAF 282053Z 02013G21KT 10SM CLR 23/M03 A3025 RMK AO2 SLP212 T02281028 58020

KMAF Airport Info (Airnav.com)

KMAF Flight Activity (Flightaware)

Listeners: 0 out of 1326 total

Midland Clearance Delivery: 118.050
Midland Ground: 121.900

KMAF Ground (Archives)
Midland, Texas, United States

Feed Status: UP
Listen in your browser - HTML5 player(in browser, HTML5)
Click here to listen with your own player(launches your MP3 player)

KMAF 282053Z 02013G21KT 10SM CLR 23/M03 A3025 RMK AO2 SLP212 T02281028 58020

KMAF Airport Info (Airnav.com)

KMAF Flight Activity (Flightaware)

Listeners: 0 out of 1326 total

Midland Ground: 121.900

KMAF Tower (Archives)
Midland, Texas, United States

Feed Status: UP
Listen in your browser - HTML5 player(in browser, HTML5)
Click here to listen with your own player(launches your MP3 player)

KMAF 282053Z 02013G21KT 10SM CLR 23/M03 A3025 RMK AO2 SLP212 T02281028 58020

KMAF Airport Info (Airnav.com)

KMAF Flight Activity (Flightaware)

Listeners: 0 out of 1326 total

Midland Tower: 118.700

KMDW App/Dep (Archives)
Chicago, Illinois, United States

Feed Status: UP
Listen in your browser - HTML5 player(in browser, HTML5)
Click here to listen with your own player(launches your MP3 player)

KORD 282051Z 31007KT 10SM FEW025 SCT038 BKN090 16/09 A2974 RMK AO2 LTG DSNT E SLP070 60000 T01610094 55000

KORD Airport Info (Airnav.com)

KORD Flight Activity (Flightaware)

Listeners: 1 out of 1326 total

Chicago Approach/Departure (South Satellite Sector 1): 128.200
Chicago Approach/Departure (South Satellite Sector 2): 119.350

KMDW ATIS (Archives)
Chicago, Illinois, United States

Feed Status: UP
Listen in your browser - HTML5 player(in browser, HTML5)
Click here to listen with your own player(launches your MP3 player)

KMDW 282053Z 27008KT 10SM FEW050 SCT075 BKN090 16/10 A2974 RMK AO2 LTG DSNT N RAE07 SLP070 OCNL LTGICCG DSNT N-NE CB DSNT N-NE P0001 60001 T01560100 58001

KMDW Airport Info (Airnav.com)

KMDW Flight Activity (Flightaware)

Listeners: 1 out of 1326 total

Midway ATIS: 132.750

KMDW Clearance/Metering (Archives)
Chicago, Illinois, United States

Feed Status: UP
Listen in your browser - HTML5 player(in browser, HTML5)
Click here to listen with your own player(launches your MP3 player)

KMDW 282053Z 27008KT 10SM FEW050 SCT075 BKN090 16/10 A2974 RMK AO2 LTG DSNT N RAE07 SLP070 OCNL LTGICCG DSNT N-NE CB DSNT N-NE P0001 60001 T01560100 58001

KMDW Airport Info (Airnav.com)

KMDW Flight Activity (Flightaware)

Listeners: 0 out of 1326 total

Midway Clearance Delivery/Metering: 124.625

KMDW Ground #1 (Archives)
Chicago, Illinois, United States

Feed Status: UP
Listen in your browser - HTML5 player(in browser, HTML5)
Click here to listen with your own player(launches your MP3 player)

KMDW 282053Z 27008KT 10SM FEW050 SCT075 BKN090 16/10 A2974 RMK AO2 LTG DSNT N RAE07 SLP070 OCNL LTGICCG DSNT N-NE CB DSNT N-NE P0001 60001 T01560100 58001

KMDW Airport Info (Airnav.com)

KMDW Flight Activity (Flightaware)

Listeners: 0 out of 1326 total

Midway Ground: 121.650

KMDW Tower #1 (Archives)
Chicago, Illinois, United States

Feed Status: UP
Listen in your browser - HTML5 player(in browser, HTML5)
Click here to listen with your own player(launches your MP3 player)

KMDW 282053Z 27008KT 10SM FEW050 SCT075 BKN090 16/10 A2974 RMK AO2 LTG DSNT N RAE07 SLP070 OCNL LTGICCG DSNT N-NE CB DSNT N-NE P0001 60001 T01560100 58001

KMDW Airport Info (Airnav.com)

KMDW Flight Activity (Flightaware)

Listeners: 3 out of 1326 total

Midway Tower: 135.200

KMGY App/Dep (Archives)
Dayton, Ohio, United States

Feed Status: UP
Listen in your browser - HTML5 player(in browser, HTML5)
Click here to listen with your own player(launches your MP3 player)

KMGY 282120Z AUTO 30008KT 3SM RA BR SCT007 BKN013 OVC029 14/13 A2976 RMK AO2 P0004 T01440128

KMGY Airport Info (Airnav.com)

KMGY Flight Activity (Flightaware)

Listeners: 0 out of 1326 total

Dayton Approach/Departure: 118.850

NORCAL App (EXPO/127.4) (Archives)
Sacramento, California, United States

Feed Status: UP
Listen in your browser - HTML5 player(in browser, HTML5)
Click here to listen with your own player(launches your MP3 player)

KMHR 282050Z 33004KT 10SM SKC 35/00 A2989

KMHR Airport Info (Airnav.com)

KMHR Flight Activity (Flightaware)

Listeners: 1 out of 1326 total

NORCAL Approach (EXPO Sector): 127.400

KMHT App/Dep (Fitzy Sector) (Archives)
Manchester, New Hampshire, United States

Feed Status: UP
Listen in your browser - HTML5 player(in browser, HTML5)
Click here to listen with your own player(launches your MP3 player)

KMHT 282053Z 16010KT 10SM FEW040 SCT050 SCT150 BKN250 27/18 A2987 RMK AO2 SLP124 T02670178 56012

KMHT Airport Info (Airnav.com)

KMHT Flight Activity (Flightaware)

Listeners: 0 out of 1326 total

Boston Approach (Fitzy Sector): 124.900

KMHT ATIS (Archives)
Manchester, New Hampshire, United States

Feed Status: UP
Listen in your browser - HTML5 player(in browser, HTML5)
Click here to listen with your own player(launches your MP3 player)

KMHT 282053Z 16010KT 10SM FEW040 SCT050 SCT150 BKN250 27/18 A2987 RMK AO2 SLP124 T02670178 56012

KMHT Airport Info (Airnav.com)

KMHT Flight Activity (Flightaware)

Listeners: 0 out of 1326 total

Manchester ATIS: 119.550

KMHT Boston App/Dep #1 (Archives)
Manchester, New Hampshire, United States

Feed Status: UP
Listen in your browser - HTML5 player(in browser, HTML5)
Click here to listen with your own player(launches your MP3 player)

KMHT 282053Z 16010KT 10SM FEW040 SCT050 SCT150 BKN250 27/18 A2987 RMK AO2 SLP124 T02670178 56012

KMHT Airport Info (Airnav.com)

KMHT Flight Activity (Flightaware)

Listeners: 0 out of 1326 total

Boston Approach (backup): 125.825
Boston Approach (Fitzy Sector): 124.900
Boston Approach (MHT/West Sector): 134.750
Boston Approach (Tommy Sector): 127.350

KMHT Boston App/Dep #2 (Archives)
Manchester, New Hampshire, United States

Feed Status: UP
Listen in your browser - HTML5 player(in browser, HTML5)
Click here to listen with your own player(launches your MP3 player)

KMHT 282053Z 16010KT 10SM FEW040 SCT050 SCT150 BKN250 27/18 A2987 RMK AO2 SLP124 T02670178 56012

KMHT Airport Info (Airnav.com)

KMHT Flight Activity (Flightaware)

Listeners: 0 out of 1326 total

Boston Approach (backup): 125.825
Boston Approach (Fitzy Sector): 124.900
Boston Approach (MHT/West Sector): 134.750

KMHT Del/Gnd/Twr (Archives)
Manchester, New Hampshire, United States

Feed Status: UP
Listen in your browser - HTML5 player(in browser, HTML5)
Click here to listen with your own player(launches your MP3 player)

KMHT 282053Z 16010KT 10SM FEW040 SCT050 SCT150 BKN250 27/18 A2987 RMK AO2 SLP124 T02670178 56012

KMHT Airport Info (Airnav.com)

KMHT Flight Activity (Flightaware)

Listeners: 0 out of 1326 total

Airport Response 01: 158.730
Airport Response 02: 158.340
Airport Response 03: 159.720
Manchester Clearance Delivery: 135.900
Manchester Ground: 121.900
Manchester Tower: 121.300

KMHT Del/Gnd/Twr/App (Archives)
Manchester, New Hampshire, United States

Feed Status: UP
Listen in your browser - HTML5 player(in browser, HTML5)
Click here to listen with your own player(launches your MP3 player)

KMHT 282053Z 16010KT 10SM FEW040 SCT050 SCT150 BKN250 27/18 A2987 RMK AO2 SLP124 T02670178 56012

KMHT Airport Info (Airnav.com)

KMHT Flight Activity (Flightaware)

Listeners: 1 out of 1326 total

Airport Response 01: 158.730
Airport Response 02: 158.340
Airport Response 03: 159.720
Boston Approach (backup): 125.825
Boston Approach (Fitzy Sector): 124.900
Boston Approach (MHT/West Sector): 134.750
Emergency/Guard: 121.500
Manchester Clearance Delivery: 135.900
Manchester Ground: 121.900
Manchester Tower: 121.300

KMHT Tower #1 (Archives)
Manchester, New Hampshire, United States

Feed Status: UP
Listen in your browser - HTML5 player(in browser, HTML5)
Click here to listen with your own player(launches your MP3 player)

KMHT 282053Z 16010KT 10SM FEW040 SCT050 SCT150 BKN250 27/18 A2987 RMK AO2 SLP124 T02670178 56012

KMHT Airport Info (Airnav.com)

KMHT Flight Activity (Flightaware)

Listeners: 0 out of 1326 total

Manchester Tower: 121.300

KMHT Tower #2 (Archives)
Manchester, New Hampshire, United States

Feed Status: UP
Listen in your browser - HTML5 player(in browser, HTML5)
Click here to listen with your own player(launches your MP3 player)

KMHT 282053Z 16010KT 10SM FEW040 SCT050 SCT150 BKN250 27/18 A2987 RMK AO2 SLP124 T02670178 56012

KMHT Airport Info (Airnav.com)

KMHT Flight Activity (Flightaware)

Listeners: 0 out of 1326 total

Manchester Tower: 121.300

KMKE Approach/Departure (Archives)
Milwaukee, Wisconsin, United States

Feed Status: UP
Listen in your browser - HTML5 player(in browser, HTML5)
Click here to listen with your own player(launches your MP3 player)

KMKE 282052Z 31009KT 10SM FEW028 SCT047 BKN090 16/11 A2971 RMK AO2 RAE14 SLP062 P0000 60016 T01560111 53006

KMKE Airport Info (Airnav.com)

KMKE Flight Activity (Flightaware)

Listeners: 0 out of 1326 total

Milwaukee Approach: 118.000
Milwaukee Approach: 125.350
Milwaukee Approach: 126.500

KMKE Ground (Archives)
Milwaukee, Wisconsin, United States

Feed Status: UP
Listen in your browser - HTML5 player(in browser, HTML5)
Click here to listen with your own player(launches your MP3 player)

KMKE 282052Z 31009KT 10SM FEW028 SCT047 BKN090 16/11 A2971 RMK AO2 RAE14 SLP062 P0000 60016 T01560111 53006

KMKE Airport Info (Airnav.com)

KMKE Flight Activity (Flightaware)

Listeners: 0 out of 1326 total

Milwaukee Ground: 121.800
Timmerman Ground: 121.700

KMKE Tower (Archives)
Milwaukee, Wisconsin, United States

Feed Status: UP
Listen in your browser - HTML5 player(in browser, HTML5)
Click here to listen with your own player(launches your MP3 player)

KMKE 282052Z 31009KT 10SM FEW028 SCT047 BKN090 16/11 A2971 RMK AO2 RAE14 SLP062 P0000 60016 T01560111 53006

KMKE Airport Info (Airnav.com)

KMKE Flight Activity (Flightaware)

Listeners: 0 out of 1326 total

Milwaukee Tower: 124.575

KMLI Del/Gnd/Twr/App (Archives)
Moline, Illinois, United States

Feed Status: UP
Listen in your browser - HTML5 player(in browser, HTML5)
Click here to listen with your own player(launches your MP3 player)

KMLI 282052Z 31016G22KT 10SM SCT043 BKN060 17/07 A2982 RMK AO2 SLP099 T01670072 55001

KMLI Airport Info (Airnav.com)

KMLI Flight Activity (Flightaware)

Listeners: 0 out of 1326 total

Quad City Approach (N/NE): 125.950
Quad City Approach (S/SE): 133.275
Quad City Clearance: 124.050
Quad City Ground: 121.900
Quad City Tower: 119.400

KMOB Gnd/Twr/App (Archives)
Mobile, Alabama, United States

Feed Status: UP
Listen in your browser - HTML5 player(in browser, HTML5)
Click here to listen with your own player(launches your MP3 player)

KMOB 282124Z VRB04KT 10SM TS FEW025 BKN030CB OVC048 27/21 A2983 RMK AO2 LTG DSNT ALQDS TSB18 PRESRR FRQ LTGIC NW-N TS NW-N MOV E CB DSNT ALQDS T02720211

KMOB Airport Info (Airnav.com)

KMOB Flight Activity (Flightaware)

Listeners: 1 out of 1326 total

Mobile Approach/Departure North (320-139) : 118.500
Mobile Approach/Departure South (140-319): 121.000
Mobile Clearance Delivery: 119.850
Mobile Ground: 121.900
Mobile Tower: 118.300

KMRY App/Dep (Archives)
Monterey, California, United States

Feed Status: UP
Listen in your browser - HTML5 player(in browser, HTML5)
Click here to listen with your own player(launches your MP3 player)

KMRY 282054Z 36005KT 6SM HZ CLR 24/14 A2992 RMK AO2 SLPNO T02390139 58009 $

KMRY Airport Info (Airnav.com)

KMRY Flight Activity (Flightaware)

Listeners: 0 out of 1326 total

NORCAL Approach (Fremont Sector/Monterey West): 133.000
NORCAL Approach (Seca Sector/Monterey East): 127.150

KMRY ATIS (Archives)
Monterey, California, United States

Feed Status: UP
Listen in your browser - HTML5 player(in browser, HTML5)
Click here to listen with your own player(launches your MP3 player)

KMRY 282054Z 36005KT 6SM HZ CLR 24/14 A2992 RMK AO2 SLPNO T02390139 58009 $

KMRY Airport Info (Airnav.com)

KMRY Flight Activity (Flightaware)

Listeners: 1 out of 1326 total

Monterey ATIS: 119.250

KMRY Del/Gnd/Twr (Archives)
Monterey, California, United States

Feed Status: UP
Listen in your browser - HTML5 player(in browser, HTML5)
Click here to listen with your own player(launches your MP3 player)

KMRY 282054Z 36005KT 6SM HZ CLR 24/14 A2992 RMK AO2 SLPNO T02390139 58009 $

KMRY Airport Info (Airnav.com)

KMRY Flight Activity (Flightaware)

Listeners: 1 out of 1326 total

Monterey Clearance Delivery: 135.450
Monterey Ground: 120.875
Monterey Tower: 118.400

KMSN Approach/Departure
Madison, Wisconsin, United States

Feed Status: DOWN
Offline since: 2020-08-22 21:56:39 UTC

KMSN 282053Z 34008G17KT 10SM FEW028 BKN060 OVC070 12/08 A2976 RMK AO2 PK WND 33027/2025 RAB03E39 SLP079 P0000 60000 T01220083 53007

KMSN Airport Info (Airnav.com)

Madison Approach/Departure: 120.100
Madison Approach/Departure: 135.450

KMSN ATIS
Madison, Wisconsin, United States

Feed Status: DOWN
Offline since: 2020-08-22 21:56:39 UTC

KMSN 282053Z 34008G17KT 10SM FEW028 BKN060 OVC070 12/08 A2976 RMK AO2 PK WND 33027/2025 RAB03E39 SLP079 P0000 60000 T01220083 53007

KMSN Airport Info (Airnav.com)

Madison ATIS: 124.650

KMSN Clearance Delivery
Madison, Wisconsin, United States

Feed Status: DOWN
Offline since: 2020-08-22 21:56:39 UTC

KMSN 282053Z 34008G17KT 10SM FEW028 BKN060 OVC070 12/08 A2976 RMK AO2 PK WND 33027/2025 RAB03E39 SLP079 P0000 60000 T01220083 53007

KMSN Airport Info (Airnav.com)

Madison Clearance Delivery: 121.625

KMSN Emergency/Guard
Madison, Wisconsin, United States

Feed Status: DOWN
Offline since: 2020-08-22 21:56:39 UTC

KMSN 282053Z 34008G17KT 10SM FEW028 BKN060 OVC070 12/08 A2976 RMK AO2 PK WND 33027/2025 RAB03E39 SLP079 P0000 60000 T01220083 53007

KMSN Airport Info (Airnav.com)

Emergency/Guard: 121.500

KMSN Ground
Madison, Wisconsin, United States

Feed Status: DOWN
Offline since: 2020-08-22 21:56:39 UTC

KMSN 282053Z 34008G17KT 10SM FEW028 BKN060 OVC070 12/08 A2976 RMK AO2 PK WND 33027/2025 RAB03E39 SLP079 P0000 60000 T01220083 53007

KMSN Airport Info (Airnav.com)

Madison Ground: 121.900

KMSN Tower
Madison, Wisconsin, United States

Feed Status: DOWN
Offline since: 2020-08-22 21:56:39 UTC

KMSN 282053Z 34008G17KT 10SM FEW028 BKN060 OVC070 12/08 A2976 RMK AO2 PK WND 33027/2025 RAB03E39 SLP079 P0000 60000 T01220083 53007

KMSN Airport Info (Airnav.com)

Madison Tower: 119.300

KMSN Twr/App (Archives)
Madison, Wisconsin, United States

Feed Status: UP
Listen in your browser - HTML5 player(in browser, HTML5)
Click here to listen with your own player(launches your MP3 player)

KMSN 282053Z 34008G17KT 10SM FEW028 BKN060 OVC070 12/08 A2976 RMK AO2 PK WND 33027/2025 RAB03E39 SLP079 P0000 60000 T01220083 53007

KMSN Airport Info (Airnav.com)

KMSN Flight Activity (Flightaware)

Listeners: 2 out of 1326 total

Emergency / GUARD: 121.500
Madison Approach (East): 120.100
Madison Approach (West): 135.450
Madison Tower: 119.300

KMYR Gnd/Twr/App (Archives)
Myrtle Beach, South Carolina, United States

Feed Status: UP
Listen in your browser - HTML5 player(in browser, HTML5)
Click here to listen with your own player(launches your MP3 player)

KMYR 282113Z 05003KT 10SM -RA SCT019 BKN027 OVC032 22/21 A2994 RMK AO2 PNO $

KMYR Airport Info (Airnav.com)

KMYR Flight Activity (Flightaware)

Listeners: 0 out of 1326 total

Myrtle Beach Approach/Departure: 119.200
Myrtle Beach Approach/Departure: 127.400
Myrtle Beach ATIS (top of hour): 123.925
Myrtle Beach Ground: 120.300
Myrtle Beach Tower: 128.450

KMYR Gnd/Twr/App (UHF) (Archives)
Myrtle Beach, South Carolina, United States

Feed Status: UP
Listen in your browser - HTML5 player(in browser, HTML5)
Click here to listen with your own player(launches your MP3 player)

KMYR 282113Z 05003KT 10SM -RA SCT019 BKN027 OVC032 22/21 A2994 RMK AO2 PNO $

KMYR Airport Info (Airnav.com)

KMYR Flight Activity (Flightaware)

Listeners: 0 out of 1326 total

Emergency/Guard: 243.000
Myrtle Beach Approach/Departure (171-321 degrees) : 257.950
Myrtle Beach Approach/Departure (322-170 degrees): 350.300
Myrtle Beach Ground: 275.800
Myrtle Beach Tower: 259.300
PMSV (Pilot-to-Meteorological Service): 239.800

KNDZ/KNSE Twr/App
Milton, Florida, United States

Feed Status: DOWN
Offline since: 2020-08-12 05:42:39 UTC

KPNS Airport Info (Airnav.com)

Pensacola Approach: 124.850
Pensacola Approach: 127.350
Sherman Tower: 340.200
Whiting North Tower: 306.925
Whiting South Tower: 348.675

KNDZ/KNSE Twr/App
Pensacola, Florida, United States

Feed Status: DOWN
Offline since: 2020-08-12 05:42:39 UTC

KPNS Airport Info (Airnav.com)

Pensacola Approach: 124.850
Pensacola Approach: 127.350
Sherman Tower: 340.200
Whiting North Tower: 306.925
Whiting South Tower: 348.675

KPNS/KNPA App 120.65
Pensacola, Florida, United States

Feed Status: DOWN
Offline since: 2020-08-12 05:42:39 UTC

KPNS Airport Info (Airnav.com)

Pensacola Approach/Departure: 120.650

KNDZ/KNSE Twr/App
Milton, Florida, United States

Feed Status: DOWN
Offline since: 2020-08-12 05:42:39 UTC

KPNS Airport Info (Airnav.com)

Pensacola Approach: 124.850
Pensacola Approach: 127.350
Sherman Tower: 340.200
Whiting North Tower: 306.925
Whiting South Tower: 348.675

KOAK Del/Gnd/Twr (Archives)
Oakland, California, United States

Feed Status: UP
Listen in your browser - HTML5 player(in browser, HTML5)
Click here to listen with your own player(launches your MP3 player)

KOAK 282053Z 26008KT 10SM FEW200 33/07 A2990 RMK AO2 SLP123 T03330067 58013

KOAK Airport Info (Airnav.com)

KOAK Flight Activity (Flightaware)

Listeners: 0 out of 1326 total

Oakland Clearance Delivery: 121.100
Oakland Ground: 121.750
Oakland Ground (North): 121.900
Oakland Tower: 127.200
Oakland Tower (Runways 28L/10R, 28R/10L, 33/15): 118.300

KOAK Tower (Both)
Oakland, California, United States

Feed Status: DOWN
Offline since: 2020-09-25 16:59:39 UTC

KOAK 282053Z 26008KT 10SM FEW200 33/07 A2990 RMK AO2 SLP123 T03330067 58013

KOAK Airport Info (Airnav.com)

Oakland Tower (Runways 28L/10R, 28R/10L, 33/15): 118.300
Oakland Tower (Rwys 12/30): 127.200

KOAK Tower (Rwys 12/30)
Oakland, California, United States

Feed Status: DOWN
Offline since: 2020-09-25 16:59:39 UTC

KOAK 282053Z 26008KT 10SM FEW200 33/07 A2990 RMK AO2 SLP123 T03330067 58013

KOAK Airport Info (Airnav.com)

Oakland Tower (Rwys 12/30): 127.200

KOAK Tower (Rwys 28R/10L 28L/10R 15/33)
Oakland, California, United States

Feed Status: DOWN
Offline since: 2020-09-25 16:59:39 UTC

KOAK 282053Z 26008KT 10SM FEW200 33/07 A2990 RMK AO2 SLP123 T03330067 58013

KOAK Airport Info (Airnav.com)

Oakland Tower (Runways 28L/10R, 28R/10L, 33/15): 118.300

NORCAL Approach (KOAK) (Archives)
Oakland, California, United States

Feed Status: UP
Listen in your browser - HTML5 player(in browser, HTML5)
Click here to listen with your own player(launches your MP3 player)

KOAK 282053Z 26008KT 10SM FEW200 33/07 A2990 RMK AO2 SLP123 T03330067 58013

KOAK Airport Info (Airnav.com)

KOAK Flight Activity (Flightaware)

Listeners: 0 out of 1326 total

NORCAL Approach (KOAK Rwy 29/27R Final): 125.350
NORCAL Approach (Mulford Sector): 124.400

NORCAL Departure (KSFO/KOAK) (Archives)
Oakland, California, United States

Feed Status: UP
Listen in your browser - HTML5 player(in browser, HTML5)
Click here to listen with your own player(launches your MP3 player)

KOAK 282053Z 26008KT 10SM FEW200 33/07 A2990 RMK AO2 SLP123 T03330067 58013

KOAK Airport Info (Airnav.com)

KOAK Flight Activity (Flightaware)

Listeners: 3 out of 1326 total

NORCAL Departure (Northeast Departures): 120.900
NORCAL Departure (Northeast Departures): 127.000
NORCAL Departure (Southwest Departures): 127.975
NORCAL Departure (Southwest Departures): 135.100

KOCF Gnd/Twr/App (Archives)
Ocala, Florida, United States

Feed Status: UP
Listen in your browser - HTML5 player(in browser, HTML5)
Click here to listen with your own player(launches your MP3 player)

KOCF 282051Z 00000KT 10SM SCT008 26/24 A2988 RMK AO2 SLP117 60000 T02610244 58009 $

KOCF Airport Info (Airnav.com)

KOCF Flight Activity (Flightaware)

Listeners: 0 out of 1326 total

Jacksonville Approach (OCF RCO): 118.600
Ocala Ground: 121.400
Ocala Tower: 119.250
UNICOM: 123.000

KOFF Gnd/Twr/App/ZMP (Archives)
Omaha, Nebraska, United States

Feed Status: UP
Listen in your browser - HTML5 player(in browser, HTML5)
Click here to listen with your own player(launches your MP3 player)

KOFF 282056Z AUTO 31014G22KT 10SM OVC075 17/04 A3002 RMK AO2 SLP169 T01730036 56009 $

KOFF Airport Info (Airnav.com)

KOFF Flight Activity (Flightaware)

Listeners: 1 out of 1326 total

Emergency/Guard: 121.500
Minneapolis Center (Sector 27 Low): 119.600
Offutt AFB Ground: 121.700
Offutt AFB Tower: 123.700
Omaha Approach/Departure (East): 124.500
Omaha Approach/Departure (West): 120.100

KOKC App/Dep (NE) (Archives)
Oklahoma City, Oklahoma, United States

Feed Status: UP
Listen in your browser - HTML5 player(in browser, HTML5)
Click here to listen with your own player(launches your MP3 player)

KOKC 282052Z 32018G28KT 10SM SCT090 22/M01 A3015 RMK AO2 PK WND 32030/2036 SLP201 T02221011 56014 $

KOKC Airport Info (Airnav.com)

KOKC Flight Activity (Flightaware)

Listeners: 0 out of 1326 total

Oke City Approach/Departure: 124.200

KOKC App/Dep (SW) (Archives)
Oklahoma City, Oklahoma, United States

Feed Status: UP
Listen in your browser - HTML5 player(in browser, HTML5)
Click here to listen with your own player(launches your MP3 player)

KOKC 282052Z 32018G28KT 10SM SCT090 22/M01 A3015 RMK AO2 PK WND 32030/2036 SLP201 T02221011 56014 $

KOKC Airport Info (Airnav.com)

KOKC Flight Activity (Flightaware)

Listeners: 0 out of 1326 total

Oke City Approach/Departure: 124.600

KOKC ATIS (Archives)
Oklahoma City, Oklahoma, United States

Feed Status: UP
Listen in your browser - HTML5 player(in browser, HTML5)
Click here to listen with your own player(launches your MP3 player)

KOKC 282052Z 32018G28KT 10SM SCT090 22/M01 A3015 RMK AO2 PK WND 32030/2036 SLP201 T02221011 56014 $

KOKC Airport Info (Airnav.com)

KOKC Flight Activity (Flightaware)

Listeners: 0 out of 1326 total

Rogers ATIS: 125.850

KOKC Clearance Delivery (Archives)
Oklahoma City, Oklahoma, United States

Feed Status: UP
Listen in your browser - HTML5 player(in browser, HTML5)
Click here to listen with your own player(launches your MP3 player)

KOKC 282052Z 32018G28KT 10SM SCT090 22/M01 A3015 RMK AO2 PK WND 32030/2036 SLP201 T02221011 56014 $

KOKC Airport Info (Airnav.com)

KOKC Flight Activity (Flightaware)

Listeners: 0 out of 1326 total

Rogers Clearance Delivery: 124.350

KOKC Emergency/Guard (Archives)
Oklahoma City, Oklahoma, United States

Feed Status: UP
Listen in your browser - HTML5 player(in browser, HTML5)
Click here to listen with your own player(launches your MP3 player)

KOKC 282052Z 32018G28KT 10SM SCT090 22/M01 A3015 RMK AO2 PK WND 32030/2036 SLP201 T02221011 56014 $

KOKC Airport Info (Airnav.com)

KOKC Flight Activity (Flightaware)

Listeners: 0 out of 1326 total

Emergency/Guard: 121.500

KOKC Ground (Archives)
Oklahoma City, Oklahoma, United States

Feed Status: UP
Listen in your browser - HTML5 player(in browser, HTML5)
Click here to listen with your own player(launches your MP3 player)

KOKC 282052Z 32018G28KT 10SM SCT090 22/M01 A3015 RMK AO2 PK WND 32030/2036 SLP201 T02221011 56014 $

KOKC Airport Info (Airnav.com)

KOKC Flight Activity (Flightaware)

Listeners: 0 out of 1326 total

Rogers Ground: 121.900

KOKC Tower (Archives)
Oklahoma City, Oklahoma, United States

Feed Status: UP
Listen in your browser - HTML5 player(in browser, HTML5)
Click here to listen with your own player(launches your MP3 player)

KOKC 282052Z 32018G28KT 10SM SCT090 22/M01 A3015 RMK AO2 PK WND 32030/2036 SLP201 T02221011 56014 $

KOKC Airport Info (Airnav.com)

KOKC Flight Activity (Flightaware)

Listeners: 2 out of 1326 total

Rogers Tower: 119.350
Rogers Tower: 120.250
Rogers Tower (UHF): 269.450

KOMA Del/Gnd/Twr (Archives)
Omaha, Nebraska, United States

Feed Status: UP
Listen in your browser - HTML5 player(in browser, HTML5)
Click here to listen with your own player(launches your MP3 player)

KOMA 282052Z 31015G24KT 10SM SCT060 OVC080 17/04 A3001 RMK AO2 PK WND 32027/2000 SLP162 T01720039 55010

KOMA Airport Info (Airnav.com)

KOMA Flight Activity (Flightaware)

Listeners: 1 out of 1326 total

Omaha Clearance Delivery: 119.900
Omaha Ground: 121.900
Omaha Tower: 132.100

KONT Del/Gnd/Twr/App (Archives)
Ontario, California, United States

Feed Status: UP
Listen in your browser - HTML5 player(in browser, HTML5)
Click here to listen with your own player(launches your MP3 player)

KONT 282053Z 27007KT 10SM CLR 36/13 A2989 RMK AO2 SLP104 T03610128 58016

KONT Airport Info (Airnav.com)

KONT Flight Activity (Flightaware)

Listeners: 2 out of 1326 total

Ontario Clearance Delivery: 118.100
Ontario Ground: 121.900
Ontario Tower: 120.600
SOCAL Approach/Departure (N-NE): 127.000
SOCAL Approach/Departure (NE-S): 134.000
SOCAL Approach/Departure (S-SW): 135.400
SOCAL Approach/Departure (SW-N): 125.500

KORF ATIS (Archives)
Norfolk, Virginia, United States

Feed Status: UP
Listen in your browser - HTML5 player(in browser, HTML5)
Click here to listen with your own player(launches your MP3 player)

KORF 282051Z 14011KT 10SM OVC110 26/19 A2991 RMK AO2 SLP127 T02610189 56006

KORF Airport Info (Airnav.com)

KORF Flight Activity (Flightaware)

Listeners: 0 out of 1326 total

Norfolk ATIS: 127.150

KORF Gnd/Twr/App/Radar (Archives)
Norfolk, Virginia, United States

Feed Status: UP
Listen in your browser - HTML5 player(in browser, HTML5)
Click here to listen with your own player(launches your MP3 player)

KORF 282051Z 14011KT 10SM OVC110 26/19 A2991 RMK AO2 SLP127 T02610189 56006

KORF Airport Info (Airnav.com)

KORF Flight Activity (Flightaware)

Listeners: 1 out of 1326 total

Norfolk Approach: 119.450
Norfolk Approach: 353.700
Norfolk Approach: 118.900
Norfolk Approach: 335.625
Norfolk Approach/Departure: 127.900
Norfolk Approach/Departure: 126.050
Norfolk Approach/Departure (Discrete): 128.050
Norfolk Approach/Departure (East): 370.925
Norfolk Approach/Departure (West): 360.600
Norfolk Clearance Delivery: 118.500
Norfolk Departure: 125.200
Norfolk Departure: 379.100
Norfolk Departure: 363.125
Norfolk Ground: 121.900
Norfolk Ground (alternate): 123.950
Norfolk Radar: 266.800
Norfolk Radar: 119.600
Norfolk Radar: 124.825
Norfolk Radar: 288.300
Norfolk Tower: 120.800
Norfolk Tower: 257.800

KPDX App/Dep (Archives)
Portland, Oregon, United States

Feed Status: UP
Listen in your browser - HTML5 player(in browser, HTML5)
Click here to listen with your own player(launches your MP3 player)

KPDX 282053Z VRB03KT 10SM CLR 26/11 A3018 RMK AO2 SLP219 T02610111 58026

KPDX Airport Info (Airnav.com)

KPDX Flight Activity (Flightaware)

Listeners: 1 out of 1326 total

Portland Approach (100-279 deg): 118.100
Portland Approach (280-099 deg): 124.350

KPDX App/Dep/Final (Archives)
Portland, Oregon, United States

Feed Status: UP
Listen in your browser - HTML5 player(in browser, HTML5)
Click here to listen with your own player(launches your MP3 player)

KPDX 282053Z VRB03KT 10SM CLR 26/11 A3018 RMK AO2 SLP219 T02610111 58026

KPDX Airport Info (Airnav.com)

KPDX Flight Activity (Flightaware)

Listeners: 1 out of 1326 total

Emergency (Guard): 121.500
Portland Approach (100-279 deg): 118.100
Portland Approach (280-099 deg): 124.350
Portland Approach (Final): 126.900

KPDX Approach (Final) (Archives)
Portland, Oregon, United States

Feed Status: UP
Listen in your browser - HTML5 player(in browser, HTML5)
Click here to listen with your own player(launches your MP3 player)

KPDX 282053Z VRB03KT 10SM CLR 26/11 A3018 RMK AO2 SLP219 T02610111 58026

KPDX Airport Info (Airnav.com)

KPDX Flight Activity (Flightaware)

Listeners: 0 out of 1326 total

Emergency (Guard): 121.500
Portland Approach (Final): 126.900

KPDX ATIS (Archives)
Portland, Oregon, United States

Feed Status: UP
Listen in your browser - HTML5 player(in browser, HTML5)
Click here to listen with your own player(launches your MP3 player)

KPDX 282053Z VRB03KT 10SM CLR 26/11 A3018 RMK AO2 SLP219 T02610111 58026

KPDX Airport Info (Airnav.com)

KPDX Flight Activity (Flightaware)

Listeners: 0 out of 1326 total

Portland ATIS: 128.350

KPDX Del/Gnd (Archives)
Portland, Oregon, United States

Feed Status: UP
Listen in your browser - HTML5 player(in browser, HTML5)
Click here to listen with your own player(launches your MP3 player)

KPDX 282053Z VRB03KT 10SM CLR 26/11 A3018 RMK AO2 SLP219 T02610111 58026

KPDX Airport Info (Airnav.com)

KPDX Flight Activity (Flightaware)

Listeners: 0 out of 1326 total

Portland Clearance Delivery: 120.125
Portland Ground: 121.900

KPDX Del/Gnd/Twr (Archives)
Portland, Oregon, United States

Feed Status: UP
Listen in your browser - HTML5 player(in browser, HTML5)
Click here to listen with your own player(launches your MP3 player)

KPDX 282053Z VRB03KT 10SM CLR 26/11 A3018 RMK AO2 SLP219 T02610111 58026

KPDX Airport Info (Airnav.com)

KPDX Flight Activity (Flightaware)

Listeners: 0 out of 1326 total

Portland Clearance Delivery: 120.125
Portland Ground: 121.900
Portland Tower: 118.700
Portland Tower: 119.000
Portland Tower: 123.775

KPDX Tower (Archives)
Portland, Oregon, United States

Feed Status: UP
Listen in your browser - HTML5 player(in browser, HTML5)
Click here to listen with your own player(launches your MP3 player)

KPDX 282053Z VRB03KT 10SM CLR 26/11 A3018 RMK AO2 SLP219 T02610111 58026

KPDX Airport Info (Airnav.com)

KPDX Flight Activity (Flightaware)

Listeners: 1 out of 1326 total

Portland Tower: 118.700
Portland Tower: 123.775
Portland Tower: 119.000

KPIA Approach (North) (Archives)
Peoria, Illinois, United States

Feed Status: UP
Listen in your browser - HTML5 player(in browser, HTML5)
Click here to listen with your own player(launches your MP3 player)

KPIA 282054Z 29013G20KT 10SM SCT046 BKN100 18/08 A2983 RMK AO2 SLP099 60004 T01780083 55005

KPIA Airport Info (Airnav.com)

KPIA Flight Activity (Flightaware)

Listeners: 0 out of 1326 total

Peoria Approach/Departure (North): 125.800

KPIA Approach (South) (Archives)
Peoria, Illinois, United States

Feed Status: UP
Listen in your browser - HTML5 player(in browser, HTML5)
Click here to listen with your own player(launches your MP3 player)

KPIA 282054Z 29013G20KT 10SM SCT046 BKN100 18/08 A2983 RMK AO2 SLP099 60004 T01780083 55005

KPIA Airport Info (Airnav.com)

KPIA Flight Activity (Flightaware)

Listeners: 0 out of 1326 total

Peoria Approach/Departure (South): 124.675

KPIA Approach/Departure (Archives)
Peoria, Illinois, United States

Feed Status: UP
Listen in your browser - HTML5 player(in browser, HTML5)
Click here to listen with your own player(launches your MP3 player)

KPIA 282054Z 29013G20KT 10SM SCT046 BKN100 18/08 A2983 RMK AO2 SLP099 60004 T01780083 55005

KPIA Airport Info (Airnav.com)

KPIA Flight Activity (Flightaware)

Listeners: 0 out of 1326 total

Peoria Approach/Departure (North): 125.800
Peoria Approach/Departure (South): 124.675

KPIA Area Guard (Archives)
Peoria, Illinois, United States

Feed Status: UP
Listen in your browser - HTML5 player(in browser, HTML5)
Click here to listen with your own player(launches your MP3 player)

KPIA 282054Z 29013G20KT 10SM SCT046 BKN100 18/08 A2983 RMK AO2 SLP099 60004 T01780083 55005

KPIA Airport Info (Airnav.com)

KPIA Flight Activity (Flightaware)

Listeners: 0 out of 1326 total

Emergency/Guard: 121.500

KPIA ATIS (Archives)
Peoria, Illinois, United States

Feed Status: UP
Listen in your browser - HTML5 player(in browser, HTML5)
Click here to listen with your own player(launches your MP3 player)

KPIA 282054Z 29013G20KT 10SM SCT046 BKN100 18/08 A2983 RMK AO2 SLP099 60004 T01780083 55005

KPIA Airport Info (Airnav.com)

KPIA Flight Activity (Flightaware)

Listeners: 0 out of 1326 total

Peoria ATIS/AWOS: 126.100

KPIA Ground (Archives)
Peoria, Illinois, United States

Feed Status: UP
Listen in your browser - HTML5 player(in browser, HTML5)
Click here to listen with your own player(launches your MP3 player)

KPIA 282054Z 29013G20KT 10SM SCT046 BKN100 18/08 A2983 RMK AO2 SLP099 60004 T01780083 55005

KPIA Airport Info (Airnav.com)

KPIA Flight Activity (Flightaware)

Listeners: 0 out of 1326 total

Peoria Ground: 121.850

KPIA Ground/Tower (Archives)
Peoria, Illinois, United States

Feed Status: UP
Listen in your browser - HTML5 player(in browser, HTML5)
Click here to listen with your own player(launches your MP3 player)

KPIA 282054Z 29013G20KT 10SM SCT046 BKN100 18/08 A2983 RMK AO2 SLP099 60004 T01780083 55005

KPIA Airport Info (Airnav.com)

KPIA Flight Activity (Flightaware)

Listeners: 0 out of 1326 total

Peoria Ground: 121.850
Peoria Tower: 124.000

KPIA Tower (Archives)
Peoria, Illinois, United States

Feed Status: UP
Listen in your browser - HTML5 player(in browser, HTML5)
Click here to listen with your own player(launches your MP3 player)

KPIA 282054Z 29013G20KT 10SM SCT046 BKN100 18/08 A2983 RMK AO2 SLP099 60004 T01780083 55005

KPIA Airport Info (Airnav.com)

KPIA Flight Activity (Flightaware)

Listeners: 0 out of 1326 total

Peoria Tower: 124.000

KFBG/KPOB Gnd/Twr (Archives)
Fayetteville, North Carolina, United States

Feed Status: UP
Listen in your browser - HTML5 player(in browser, HTML5)
Click here to listen with your own player(launches your MP3 player)

KFAY 282053Z 18008KT 10SM BKN110 25/20 A2992 RMK AO2 SLP125 T02500200 58005

KFAY Airport Info (Airnav.com)

KFAY Flight Activity (Flightaware)

Listeners: 0 out of 1326 total

Pope Ground: 124.550
Pope Tower: 135.025
Simmons Base Ops: 142.350
Simmons Ground: 121.900
Simmons PAR Radar: 124.200
Simmons Radar: 120.800
Simmons Tower: 125.900

KPVD Approach/Departure (Archives)
Providence, Rhode Island, United States

Feed Status: UP
Listen in your browser - HTML5 player(in browser, HTML5)
Click here to listen with your own player(launches your MP3 player)

KPVD 282051Z 16008KT 10SM FEW006 BKN034 BKN250 21/19 A2994 RMK AO2 SLP139 60001 T02060194 56006

KPVD Airport Info (Airnav.com)

KPVD Flight Activity (Flightaware)

Listeners: 0 out of 1326 total

Emergency/Guard: 121.500
Providence Approach: 127.900
Providence Approach (GROTON Sector): 119.450
Providence Approach (JUMPR Sector): 125.750
Providence Approach (New Bedford Sector): 128.700
Providence Approach/Departure (RHODY Sector): 123.675

KPVD ATIS (Archives)
Providence, Rhode Island, United States

Feed Status: UP
Listen in your browser - HTML5 player(in browser, HTML5)
Click here to listen with your own player(launches your MP3 player)

KPVD 282051Z 16008KT 10SM FEW006 BKN034 BKN250 21/19 A2994 RMK AO2 SLP139 60001 T02060194 56006

KPVD Airport Info (Airnav.com)

KPVD Flight Activity (Flightaware)

Listeners: 0 out of 1326 total

Providence ATIS: 124.200

KPVD Clearance Delivery (Archives)
Providence, Rhode Island, United States

Feed Status: UP
Listen in your browser - HTML5 player(in browser, HTML5)
Click here to listen with your own player(launches your MP3 player)

KPVD 282051Z 16008KT 10SM FEW006 BKN034 BKN250 21/19 A2994 RMK AO2 SLP139 60001 T02060194 56006

KPVD Airport Info (Airnav.com)

KPVD Flight Activity (Flightaware)

Listeners: 0 out of 1326 total

Providence Clearance Delivery: 126.650

KPVD Gnd/Twr (Archives)
Providence, Rhode Island, United States

Feed Status: UP
Listen in your browser - HTML5 player(in browser, HTML5)
Click here to listen with your own player(launches your MP3 player)

KPVD 282051Z 16008KT 10SM FEW006 BKN034 BKN250 21/19 A2994 RMK AO2 SLP139 60001 T02060194 56006

KPVD Airport Info (Airnav.com)

KPVD Flight Activity (Flightaware)

Listeners: 0 out of 1326 total

Providence Ground: 121.900
Providence Tower: 120.700

KPVD Gnd/Twr/App (Archives)
Providence, Rhode Island, United States

Feed Status: UP
Listen in your browser - HTML5 player(in browser, HTML5)
Click here to listen with your own player(launches your MP3 player)

KPVD 282051Z 16008KT 10SM FEW006 BKN034 BKN250 21/19 A2994 RMK AO2 SLP139 60001 T02060194 56006

KPVD Airport Info (Airnav.com)

KPVD Flight Activity (Flightaware)

Listeners: 0 out of 1326 total

Providence Approach: 127.900
Providence Approach (GROTON Sector): 119.450
Providence Approach (JUMPR Sector): 125.750
Providence Approach (New Bedford Sector): 128.700
Providence Approach/Departure (RHODY Sector): 123.675
Providence Ground: 121.900
Providence Tower: 120.700

KPWM App/Dep #1 (Archives)
Portland, Maine, United States

Feed Status: UP
Listen in your browser - HTML5 player(in browser, HTML5)
Click here to listen with your own player(launches your MP3 player)

KPWM 282055Z 18008G16KT 10SM OVC005 21/19 A2993 RMK AO2 T02110189

KPWM Airport Info (Airnav.com)

KPWM Flight Activity (Flightaware)

Listeners: 0 out of 1326 total

Portland Approach (North): 125.500
Portland Approach (South): 119.750

KPWM App/Dep #2 (Archives)
Portland, Maine, United States

Feed Status: UP
Listen in your browser - HTML5 player(in browser, HTML5)
Click here to listen with your own player(launches your MP3 player)

KPWM 282055Z 18008G16KT 10SM OVC005 21/19 A2993 RMK AO2 T02110189

KPWM Airport Info (Airnav.com)

KPWM Flight Activity (Flightaware)

Listeners: 0 out of 1326 total

Portland Approach (South): 119.750

KPWM Gnd/Tower (Archives)
Portland, Maine, United States

Feed Status: UP
Listen in your browser - HTML5 player(in browser, HTML5)
Click here to listen with your own player(launches your MP3 player)

KPWM 282055Z 18008G16KT 10SM OVC005 21/19 A2993 RMK AO2 T02110189

KPWM Airport Info (Airnav.com)

KPWM Flight Activity (Flightaware)

Listeners: 2 out of 1326 total

Portland Clearance Delivery: 121.900
Portland Ground: 121.900
Portland Tower: 120.900

KPWM Gnd/Twr/App (Archives)
Portland, Maine, United States

Feed Status: UP
Listen in your browser - HTML5 player(in browser, HTML5)
Click here to listen with your own player(launches your MP3 player)

KPWM 282055Z 18008G16KT 10SM OVC005 21/19 A2993 RMK AO2 T02110189

KPWM Airport Info (Airnav.com)

KPWM Flight Activity (Flightaware)

Listeners: 0 out of 1326 total

Portland Approach (North): 125.500
Portland Approach (South): 119.750
Portland Clearance Delivery: 121.900
Portland Ground: 121.900
Portland Tower: 120.900

KPWM Tower (Archives)
Portland, Maine, United States

Feed Status: UP
Listen in your browser - HTML5 player(in browser, HTML5)
Click here to listen with your own player(launches your MP3 player)

KPWM 282055Z 18008G16KT 10SM OVC005 21/19 A2993 RMK AO2 T02110189

KPWM Airport Info (Airnav.com)

KPWM Flight Activity (Flightaware)

Listeners: 0 out of 1326 total

Portland Tower: 120.900

KRDU Approach (Archives)
Raleigh/Durham, North Carolina, United States

Feed Status: UP
Listen in your browser - HTML5 player(in browser, HTML5)
Click here to listen with your own player(launches your MP3 player)

KRDU 282051Z 17012KT 10SM SCT035TCU BKN250 26/21 A2991 RMK AO2 SLP123 TCU NW T02610206 56009

KRDU Airport Info (Airnav.com)

KRDU Flight Activity (Flightaware)

Listeners: 0 out of 1326 total

Raleigh Approach: 124.950
Raleigh Approach: 128.300

KRDU Approach (Final)
Raleigh/Durham, North Carolina, United States

Feed Status: DOWN
Offline since: 2020-09-11 22:48:39 UTC

KRDU 282051Z 17012KT 10SM SCT035TCU BKN250 26/21 A2991 RMK AO2 SLP123 TCU NW T02610206 56009

KRDU Airport Info (Airnav.com)

Raleigh Approach (Final): 124.800

KRDU Approach/Departure (Archives)
Raleigh/Durham, North Carolina, United States

Feed Status: UP
Listen in your browser - HTML5 player(in browser, HTML5)
Click here to listen with your own player(launches your MP3 player)

KRDU 282051Z 17012KT 10SM SCT035TCU BKN250 26/21 A2991 RMK AO2 SLP123 TCU NW T02610206 56009

KRDU Airport Info (Airnav.com)

KRDU Flight Activity (Flightaware)

Listeners: 0 out of 1326 total

Raleigh Approach: 124.950
Raleigh Approach: 128.300
Raleigh Departure: 125.300
Raleigh Departure: 132.350

KRDU ATIS
Raleigh/Durham, North Carolina, United States

Feed Status: DOWN
Offline since: 2020-09-11 22:48:39 UTC

KRDU 282051Z 17012KT 10SM SCT035TCU BKN250 26/21 A2991 RMK AO2 SLP123 TCU NW T02610206 56009

KRDU Airport Info (Airnav.com)

Raleigh ATIS: 123.800

KRDU Del/Ground
Raleigh/Durham, North Carolina, United States

Feed Status: DOWN
Offline since: 2020-09-11 22:48:39 UTC

KRDU 282051Z 17012KT 10SM SCT035TCU BKN250 26/21 A2991 RMK AO2 SLP123 TCU NW T02610206 56009

KRDU Airport Info (Airnav.com)

Raleigh Clearance Delivery: 120.100
Raleigh Ground (East Rwys 05R/23L): 121.900
Raleigh Ground (West Rwys 05L/23R): 121.700

KRDU Departure (Archives)
Raleigh/Durham, North Carolina, United States

Feed Status: UP
Listen in your browser - HTML5 player(in browser, HTML5)
Click here to listen with your own player(launches your MP3 player)

KRDU 282051Z 17012KT 10SM SCT035TCU BKN250 26/21 A2991 RMK AO2 SLP123 TCU NW T02610206 56009

KRDU Airport Info (Airnav.com)

KRDU Flight Activity (Flightaware)

Listeners: 0 out of 1326 total

Raleigh Departure: 132.350
Raleigh Departure: 125.300

KRDU Departure 132.35
Raleigh/Durham, North Carolina, United States

Feed Status: DOWN
Offline since: 2020-09-28 21:20:22 UTC

KRDU 282051Z 17012KT 10SM SCT035TCU BKN250 26/21 A2991 RMK AO2 SLP123 TCU NW T02610206 56009

KRDU Airport Info (Airnav.com)

Raleigh Departure: 132.350

KRDU Tower (East)
Raleigh/Durham, North Carolina, United States

Feed Status: DOWN
Offline since: 2020-09-11 22:48:39 UTC

KRDU 282051Z 17012KT 10SM SCT035TCU BKN250 26/21 A2991 RMK AO2 SLP123 TCU NW T02610206 56009

KRDU Airport Info (Airnav.com)

Raleigh Tower (East: Rwys 05R/23L, 14/32): 127.450

KRDU Tower (East/West)
Raleigh/Durham, North Carolina, United States

Feed Status: DOWN
Offline since: 2020-09-11 22:48:39 UTC

KRDU 282051Z 17012KT 10SM SCT035TCU BKN250 26/21 A2991 RMK AO2 SLP123 TCU NW T02610206 56009

KRDU Airport Info (Airnav.com)

Raleigh Tower (East: Rwys 05R/23L, 14/32): 127.450
Raleigh Tower (West: Rwy 05L/23R): 119.300

KRDU Tower (West)
Raleigh/Durham, North Carolina, United States

Feed Status: DOWN
Offline since: 2020-09-11 22:48:39 UTC

KRDU 282051Z 17012KT 10SM SCT035TCU BKN250 26/21 A2991 RMK AO2 SLP123 TCU NW T02610206 56009

KRDU Airport Info (Airnav.com)

Raleigh Tower (West: Rwy 05L/23R): 119.300

KRNO Clearance Delivery (Archives)
Reno, Nevada, United States

Feed Status: UP
Listen in your browser - HTML5 player(in browser, HTML5)
Click here to listen with your own player(launches your MP3 player)

KRNO 282055Z 06003KT 10SM CLR 23/M05 A3033 RMK AO2 SLP231 T02281050 56017

KRNO Airport Info (Airnav.com)

KRNO Flight Activity (Flightaware)

Listeners: 0 out of 1326 total

Reno Clearance Delivery: 124.900

KRNO Del/Gnd/Twr (Archives)
Reno, Nevada, United States

Feed Status: UP
Listen in your browser - HTML5 player(in browser, HTML5)
Click here to listen with your own player(launches your MP3 player)

KRNO 282055Z 06003KT 10SM CLR 23/M05 A3033 RMK AO2 SLP231 T02281050 56017

KRNO Airport Info (Airnav.com)

KRNO Flight Activity (Flightaware)

Listeners: 1 out of 1326 total

Reno Clearance Delivery: 124.900
Reno Ground: 121.900
Reno Tower: 118.700

KRNO Del/Gnd/Twr (Archives)
Reno, Nevada, United States

Feed Status: UP
Listen in your browser - HTML5 player(in browser, HTML5)
Click here to listen with your own player(launches your MP3 player)

KRNO 282055Z 06003KT 10SM CLR 23/M05 A3033 RMK AO2 SLP231 T02281050 56017

KRNO Airport Info (Airnav.com)

KRNO Flight Activity (Flightaware)

Listeners: 1 out of 1326 total

Reno Clearance Delivery: 124.900
Reno Ground: 121.900
Reno Tower: 118.700

KRNO Del/Gnd/Twr/App/ZOA (Archives)
Reno, Nevada, United States

Feed Status: UP
Listen in your browser - HTML5 player(in browser, HTML5)
Click here to listen with your own player(launches your MP3 player)

KRNO 282055Z 06003KT 10SM CLR 23/M05 A3033 RMK AO2 SLP231 T02281050 56017

KRNO Airport Info (Airnav.com)

KRNO Flight Activity (Flightaware)

Listeners: 2 out of 1326 total

Emergency/Guard: 121.500
NORCAL Approach (Reno North): 126.300
NORCAL Approach (Reno South): 119.200
Oakland Center (Zone 45, Lo): 128.800
Reno Clearance Delivery: 124.900
Reno Ground: 121.900
Reno Tower: 118.700

KRNO Emergency/Guard (Archives)
Reno, Nevada, United States

Feed Status: UP
Listen in your browser - HTML5 player(in browser, HTML5)
Click here to listen with your own player(launches your MP3 player)

KRNO 282055Z 06003KT 10SM CLR 23/M05 A3033 RMK AO2 SLP231 T02281050 56017

KRNO Airport Info (Airnav.com)

KRNO Flight Activity (Flightaware)

Listeners: 0 out of 1326 total

Emergency/Guard: 121.500

KRNO Ground (Archives)
Reno, Nevada, United States

Feed Status: UP
Listen in your browser - HTML5 player(in browser, HTML5)
Click here to listen with your own player(launches your MP3 player)

KRNO 282055Z 06003KT 10SM CLR 23/M05 A3033 RMK AO2 SLP231 T02281050 56017

KRNO Airport Info (Airnav.com)

KRNO Flight Activity (Flightaware)

Listeners: 0 out of 1326 total

Reno Ground: 121.900

KRNO NORCAL App/Dep (Archives)
Reno, Nevada, United States

Feed Status: UP
Listen in your browser - HTML5 player(in browser, HTML5)
Click here to listen with your own player(launches your MP3 player)

KRNO 282055Z 06003KT 10SM CLR 23/M05 A3033 RMK AO2 SLP231 T02281050 56017

KRNO Airport Info (Airnav.com)

KRNO Flight Activity (Flightaware)

Listeners: 0 out of 1326 total

NORCAL Approach (Reno North): 126.300
NORCAL Approach (Reno South): 119.200

KRNO NORCAL App/Dep (North) (Archives)
Reno, Nevada, United States

Feed Status: UP
Listen in your browser - HTML5 player(in browser, HTML5)
Click here to listen with your own player(launches your MP3 player)

KRNO 282055Z 06003KT 10SM CLR 23/M05 A3033 RMK AO2 SLP231 T02281050 56017

KRNO Airport Info (Airnav.com)

KRNO Flight Activity (Flightaware)

Listeners: 0 out of 1326 total

NORCAL Approach (Reno North): 126.300

KRNO NORCAL App/Dep (South) (Archives)
Reno, Nevada, United States

Feed Status: UP
Listen in your browser - HTML5 player(in browser, HTML5)
Click here to listen with your own player(launches your MP3 player)

KRNO 282055Z 06003KT 10SM CLR 23/M05 A3033 RMK AO2 SLP231 T02281050 56017

KRNO Airport Info (Airnav.com)

KRNO Flight Activity (Flightaware)

Listeners: 0 out of 1326 total

NORCAL Approach (Reno South): 119.200

KRNO Tower (Archives)
Reno, Nevada, United States

Feed Status: UP
Listen in your browser - HTML5 player(in browser, HTML5)
Click here to listen with your own player(launches your MP3 player)

KRNO 282055Z 06003KT 10SM CLR 23/M05 A3033 RMK AO2 SLP231 T02281050 56017

KRNO Airport Info (Airnav.com)

KRNO Flight Activity (Flightaware)

Listeners: 0 out of 1326 total

Reno Tower: 118.700

KROA App/Dep #1 (Archives)
Roanoke, Virginia, United States

Feed Status: UP
Listen in your browser - HTML5 player(in browser, HTML5)
Click here to listen with your own player(launches your MP3 player)

KROA 282054Z 20009G16KT 10SM FEW037 SCT080 26/18 A2987 RMK AO2 SLP106 T02610183 56010

KROA Airport Info (Airnav.com)

KROA Flight Activity (Flightaware)

Listeners: 0 out of 1326 total

Roanoke Approach: 118.150
Roanoke Approach: 126.900

KROA App/Dep #2 (Archives)
Roanoke, Virginia, United States

Feed Status: UP
Listen in your browser - HTML5 player(in browser, HTML5)
Click here to listen with your own player(launches your MP3 player)

KROA 282054Z 20009G16KT 10SM FEW037 SCT080 26/18 A2987 RMK AO2 SLP106 T02610183 56010

KROA Airport Info (Airnav.com)

KROA Flight Activity (Flightaware)

Listeners: 0 out of 1326 total

Roanoke Approach: 118.150
Roanoke Approach: 126.900

KROA ATIS (Archives)
Roanoke, Virginia, United States

Feed Status: UP
Listen in your browser - HTML5 player(in browser, HTML5)
Click here to listen with your own player(launches your MP3 player)

KROA 282054Z 20009G16KT 10SM FEW037 SCT080 26/18 A2987 RMK AO2 SLP106 T02610183 56010

KROA Airport Info (Airnav.com)

KROA Flight Activity (Flightaware)

Listeners: 5 out of 1326 total

Roanoke ATIS: 132.375

KROA Del/Gnd (Archives)
Roanoke, Virginia, United States

Feed Status: UP
Listen in your browser - HTML5 player(in browser, HTML5)
Click here to listen with your own player(launches your MP3 player)

KROA 282054Z 20009G16KT 10SM FEW037 SCT080 26/18 A2987 RMK AO2 SLP106 T02610183 56010

KROA Airport Info (Airnav.com)

KROA Flight Activity (Flightaware)

Listeners: 1 out of 1326 total

Roanoke Clearance Delivery: 119.700
Roanoke Ground: 121.900

KROA Gnd/Twr (Archives)
Roanoke, Virginia, United States

Feed Status: UP
Listen in your browser - HTML5 player(in browser, HTML5)
Click here to listen with your own player(launches your MP3 player)

KROA 282054Z 20009G16KT 10SM FEW037 SCT080 26/18 A2987 RMK AO2 SLP106 T02610183 56010

KROA Airport Info (Airnav.com)

KROA Flight Activity (Flightaware)

Listeners: 0 out of 1326 total

Roanoke Ground: 121.900
Roanoke Tower: 118.300

KROA Gnd/Twr/App (Archives)
Roanoke, Virginia, United States

Feed Status: UP
Listen in your browser - HTML5 player(in browser, HTML5)
Click here to listen with your own player(launches your MP3 player)

KROA 282054Z 20009G16KT 10SM FEW037 SCT080 26/18 A2987 RMK AO2 SLP106 T02610183 56010

KROA Airport Info (Airnav.com)

KROA Flight Activity (Flightaware)

Listeners: 0 out of 1326 total

Roanoke Approach: 126.900
Roanoke Approach: 118.150
Roanoke Ground: 121.900
Roanoke Tower: 118.300

KROA Tower (Archives)
Roanoke, Virginia, United States

Feed Status: UP
Listen in your browser - HTML5 player(in browser, HTML5)
Click here to listen with your own player(launches your MP3 player)

KROA 282054Z 20009G16KT 10SM FEW037 SCT080 26/18 A2987 RMK AO2 SLP106 T02610183 56010

KROA Airport Info (Airnav.com)

KROA Flight Activity (Flightaware)

Listeners: 0 out of 1326 total

Roanoke Tower: 118.300

KROC Approach (Archives)
Rochester, New York, United States

Feed Status: UP
Listen in your browser - HTML5 player(in browser, HTML5)
Click here to listen with your own player(launches your MP3 player)

KROC 282054Z 23005KT 10SM BKN050 BKN100 27/14 A2970 RMK AO2 SLP057 60000 T02670139 56013 $

KROC Airport Info (Airnav.com)

KROC Flight Activity (Flightaware)

Listeners: 0 out of 1326 total

Rochester Approach: 119.550
Rochester Approach: 123.700

KROC Del/Gnd/Twr (Archives)
Rochester, New York, United States

Feed Status: UP
Listen in your browser - HTML5 player(in browser, HTML5)
Click here to listen with your own player(launches your MP3 player)

KROC 282054Z 23005KT 10SM BKN050 BKN100 27/14 A2970 RMK AO2 SLP057 60000 T02670139 56013 $

KROC Airport Info (Airnav.com)

KROC Flight Activity (Flightaware)

Listeners: 1 out of 1326 total

Rochester Clearance Delivery: 118.800
Rochester Ground: 121.700
Rochester Tower: 118.300

KROC Delivery/Ground
Rochester, New York, United States

Feed Status: DOWN
Offline since: 2020-09-12 00:24:06 UTC

KROC 282054Z 23005KT 10SM BKN050 BKN100 27/14 A2970 RMK AO2 SLP057 60000 T02670139 56013 $

KROC Airport Info (Airnav.com)

Rochester Clearance Delivery: 118.800
Rochester Ground: 121.700

KROC Tower
Rochester, New York, United States

Feed Status: DOWN
Offline since: 2020-09-12 00:24:06 UTC

KROC 282054Z 23005KT 10SM BKN050 BKN100 27/14 A2970 RMK AO2 SLP057 60000 T02670139 56013 $

KROC Airport Info (Airnav.com)

Rochester Tower: 118.300

KROG/KXNA/KVBT/Misc (Archives)
Rogers, Arkansas, United States

Feed Status: UP
Listen in your browser - HTML5 player(in browser, HTML5)
Click here to listen with your own player(launches your MP3 player)

KROG 282058Z 33011G23KT 10SM BKN060 OVC075 19/06 A3006 RMK AO2 SLP171 6//// T01890061 56010 PNO $

KROG Airport Info (Airnav.com)

KROG Flight Activity (Flightaware)

Listeners: 0 out of 1326 total

Bentonville CTAF: 122.800
Northwest Regional Tower: 127.100
Razorback Approach/Departure (East): 126.600
Rogers Tower: 119.375

KRSW Gnd/Twr/App/Dep (Archives)
Fort Myers, Florida, United States

Feed Status: UP
Listen in your browser - HTML5 player(in browser, HTML5)
Click here to listen with your own player(launches your MP3 player)

KRSW 282053Z VRB04KT 10SM FEW034 SCT048 BKN055 31/23 A2984 RMK AO2 LTG DSNT NE AND SE SLP101 T03110233 56008

KRSW Airport Info (Airnav.com)

KRSW Flight Activity (Flightaware)

Listeners: 2 out of 1326 total

Ft. Myers Approach/Departure (060-240): 119.750
Ft. Myers Approach/Departure (241-330): 125.150
Ft. Myers Approach/Departure (331-059): 126.800
Ft. Myers Ground: 121.900
Ft. Myers Tower: 128.750

KSAT Approach (Archives)
San Antonio, Texas, United States

Feed Status: UP
Listen in your browser - HTML5 player(in browser, HTML5)
Click here to listen with your own player(launches your MP3 player)

KSAT 282051Z 03011G25KT 10SM OVC080 25/05 A3007 RMK AO2 PK WND 02028/2008 SLP165 T02500050 55005

KSAT Airport Info (Airnav.com)

KSAT Flight Activity (Flightaware)

Listeners: 3 out of 1326 total

San Antonio Approach/Departure: 127.100
San Antonio Approach/Departure: 125.700
San Antonio Approach/Departure (091-140): 128.050
San Antonio Approach/Departure (141-270): 118.050
San Antonio Approach/Departure (271-359): 125.100
San Antonio Approach/Departure (360-090): 124.450

KSAT Ground (Archives)
San Antonio, Texas, United States

Feed Status: UP
Listen in your browser - HTML5 player(in browser, HTML5)
Click here to listen with your own player(launches your MP3 player)

KSAT 282051Z 03011G25KT 10SM OVC080 25/05 A3007 RMK AO2 PK WND 02028/2008 SLP165 T02500050 55005

KSAT Airport Info (Airnav.com)

KSAT Flight Activity (Flightaware)

Listeners: 0 out of 1326 total

San Antonio Ground: 121.900

KSAT Tower (Archives)
San Antonio, Texas, United States

Feed Status: UP
Listen in your browser - HTML5 player(in browser, HTML5)
Click here to listen with your own player(launches your MP3 player)

KSAT 282051Z 03011G25KT 10SM OVC080 25/05 A3007 RMK AO2 PK WND 02028/2008 SLP165 T02500050 55005

KSAT Airport Info (Airnav.com)

KSAT Flight Activity (Flightaware)

Listeners: 3 out of 1326 total

San Antonio Tower: 119.800

KSBA App/Dep (Archives)
Santa Barbara, California, United States

Feed Status: UP
Listen in your browser - HTML5 player(in browser, HTML5)
Click here to listen with your own player(launches your MP3 player)

KSBA 150618Z AUTO 01003KT 3SM BR CLR 16/13 A2999 RMK AO2 T01560133

KSBA Airport Info (Airnav.com)

KSBA Flight Activity (Flightaware)

Listeners: 0 out of 1326 total

Santa Barbara Approach/Departure: 125.400
Santa Barbara Approach/Departure: 124.150
Santa Barbara Approach/Departure: 120.550

KSBA Del/Ground (Archives)
Santa Barbara, California, United States

Feed Status: UP
Listen in your browser - HTML5 player(in browser, HTML5)
Click here to listen with your own player(launches your MP3 player)

KSBA 150618Z AUTO 01003KT 3SM BR CLR 16/13 A2999 RMK AO2 T01560133

KSBA Airport Info (Airnav.com)

KSBA Flight Activity (Flightaware)

Listeners: 0 out of 1326 total

Santa Barbara Clearance Delivery: 132.900
Santa Barbara Ground: 121.700

KSBA Tower (Archives)
Santa Barbara, California, United States

Feed Status: UP
Listen in your browser - HTML5 player(in browser, HTML5)
Click here to listen with your own player(launches your MP3 player)

KSBA 150618Z AUTO 01003KT 3SM BR CLR 16/13 A2999 RMK AO2 T01560133

KSBA Airport Info (Airnav.com)

KSBA Flight Activity (Flightaware)

Listeners: 1 out of 1326 total

Santa Barbara Tower: 119.700

KSDF App/Dep #1 (Archives)
Louisville, Kentucky, United States

Feed Status: UP
Listen in your browser - HTML5 player(in browser, HTML5)
Click here to listen with your own player(launches your MP3 player)

KSDF 282112Z 30007KT 10SM SCT021 SCT026 BKN070 16/13 A2982 RMK AO2 T01610133

KSDF Airport Info (Airnav.com)

KSDF Flight Activity (Flightaware)

Listeners: 0 out of 1326 total

Louisville Approach/Departure: 132.075

KSDF App/Dep #2 (Archives)
Louisville, Kentucky, United States

Feed Status: UP
Listen in your browser - HTML5 player(in browser, HTML5)
Click here to listen with your own player(launches your MP3 player)

KSDF 282112Z 30007KT 10SM SCT021 SCT026 BKN070 16/13 A2982 RMK AO2 T01610133

KSDF Airport Info (Airnav.com)

KSDF Flight Activity (Flightaware)

Listeners: 0 out of 1326 total

Louisville Approach/Departure: 134.150

KSDF ATIS (Archives)
Louisville, Kentucky, United States

Feed Status: UP
Listen in your browser - HTML5 player(in browser, HTML5)
Click here to listen with your own player(launches your MP3 player)

KSDF 282112Z 30007KT 10SM SCT021 SCT026 BKN070 16/13 A2982 RMK AO2 T01610133

KSDF Airport Info (Airnav.com)

KSDF Flight Activity (Flightaware)

Listeners: 0 out of 1326 total

Louisville ATIS: 118.725

KSDF Ground/Tower #1 (Archives)
Louisville, Kentucky, United States

Feed Status: UP
Listen in your browser - HTML5 player(in browser, HTML5)
Click here to listen with your own player(launches your MP3 player)

KSDF 282112Z 30007KT 10SM SCT021 SCT026 BKN070 16/13 A2982 RMK AO2 T01610133

KSDF Airport Info (Airnav.com)

KSDF Flight Activity (Flightaware)

Listeners: 0 out of 1326 total

Louisville Ground: 121.700
Louisville Tower: 124.200

KSDF Thunder Over Louisville Air Show #2 (Archives)
Louisville, Kentucky, United States

Feed Status: UP
Listen in your browser - HTML5 player(in browser, HTML5)
Click here to listen with your own player(launches your MP3 player)

KSDF 282112Z 30007KT 10SM SCT021 SCT026 BKN070 16/13 A2982 RMK AO2 T01610133

KSDF Airport Info (Airnav.com)

KSDF Flight Activity (Flightaware)

Listeners: 0 out of 1326 total

Air Boss (VHF): 120.300
Air to Air: 126.850

KSFB ATIS (Archives)
Orlando, Florida, United States

Feed Status: UP
Listen in your browser - HTML5 player(in browser, HTML5)
Click here to listen with your own player(launches your MP3 player)

KSFB 282125Z 29012KT 8SM TSRA FEW024 BKN110 24/22 A2988 RMK AO2 PK WND 24026/2054 LTG DSNT ALQDS TSB19 P0005 T02390222

KSFB Airport Info (Airnav.com)

KSFB Flight Activity (Flightaware)

Listeners: 0 out of 1326 total

Sanford ATIS: 125.975

KSFB Clearance Delivery (Archives)
Orlando, Florida, United States

Feed Status: UP
Listen in your browser - HTML5 player(in browser, HTML5)
Click here to listen with your own player(launches your MP3 player)

KSFB 282125Z 29012KT 8SM TSRA FEW024 BKN110 24/22 A2988 RMK AO2 PK WND 24026/2054 LTG DSNT ALQDS TSB19 P0005 T02390222

KSFB Airport Info (Airnav.com)

KSFB Flight Activity (Flightaware)

Listeners: 0 out of 1326 total

Sanford Clearance Delivery: 123.975

KSFB Del/Gnd (Archives)
Orlando, Florida, United States

Feed Status: UP
Listen in your browser - HTML5 player(in browser, HTML5)
Click here to listen with your own player(launches your MP3 player)

KSFB 282125Z 29012KT 8SM TSRA FEW024 BKN110 24/22 A2988 RMK AO2 PK WND 24026/2054 LTG DSNT ALQDS TSB19 P0005 T02390222

KSFB Airport Info (Airnav.com)

KSFB Flight Activity (Flightaware)

Listeners: 0 out of 1326 total

Sanford Clearance Delivery: 123.975
Sanford Ground: 121.350

KSFB Ground (Archives)
Orlando, Florida, United States

Feed Status: UP
Listen in your browser - HTML5 player(in browser, HTML5)
Click here to listen with your own player(launches your MP3 player)

KSFB 282125Z 29012KT 8SM TSRA FEW024 BKN110 24/22 A2988 RMK AO2 PK WND 24026/2054 LTG DSNT ALQDS TSB19 P0005 T02390222

KSFB Airport Info (Airnav.com)

KSFB Flight Activity (Flightaware)

Listeners: 0 out of 1326 total

Sanford Ground: 121.350

KSFB Tower (Both) (Archives)
Orlando, Florida, United States

Feed Status: UP
Listen in your browser - HTML5 player(in browser, HTML5)
Click here to listen with your own player(launches your MP3 player)

KSFB 282125Z 29012KT 8SM TSRA FEW024 BKN110 24/22 A2988 RMK AO2 PK WND 24026/2054 LTG DSNT ALQDS TSB19 P0005 T02390222

KSFB Airport Info (Airnav.com)

KSFB Flight Activity (Flightaware)

Listeners: 1 out of 1326 total

Sanford Tower (Runways 9L/27R, 18/36): 120.300
Sanford Tower (Runways 9R/27L, 9C/27C): 135.250

KSFB Tower (Main) (Archives)
Orlando, Florida, United States

Feed Status: UP
Listen in your browser - HTML5 player(in browser, HTML5)
Click here to listen with your own player(launches your MP3 player)

KSFB 282125Z 29012KT 8SM TSRA FEW024 BKN110 24/22 A2988 RMK AO2 PK WND 24026/2054 LTG DSNT ALQDS TSB19 P0005 T02390222

KSFB Airport Info (Airnav.com)

KSFB Flight Activity (Flightaware)

Listeners: 0 out of 1326 total

Sanford Tower (Runways 9L/27R, 18/36): 120.300

KSFB Tower (South) (Archives)
Orlando, Florida, United States

Feed Status: UP
Listen in your browser - HTML5 player(in browser, HTML5)
Click here to listen with your own player(launches your MP3 player)

KSFB 282125Z 29012KT 8SM TSRA FEW024 BKN110 24/22 A2988 RMK AO2 PK WND 24026/2054 LTG DSNT ALQDS TSB19 P0005 T02390222

KSFB Airport Info (Airnav.com)

KSFB Flight Activity (Flightaware)

Listeners: 0 out of 1326 total

Sanford Tower (Runways 9R/27L, 9C/27C): 135.250

NORCAL Departure (KSFO/KOAK) (Archives)
San Francisco, California, United States

Feed Status: UP
Listen in your browser - HTML5 player(in browser, HTML5)
Click here to listen with your own player(launches your MP3 player)

KOAK 282053Z 26008KT 10SM FEW200 33/07 A2990 RMK AO2 SLP123 T03330067 58013

KOAK Airport Info (Airnav.com)

KOAK Flight Activity (Flightaware)

Listeners: 3 out of 1326 total

NORCAL Departure (Northeast Departures): 120.900
NORCAL Departure (Northeast Departures): 127.000
NORCAL Departure (Southwest Departures): 127.975
NORCAL Departure (Southwest Departures): 135.100

KSGF Approach (Archives)
Springfield, Missouri, United States

Feed Status: UP
Listen in your browser - HTML5 player(in browser, HTML5)
Click here to listen with your own player(launches your MP3 player)

KSGF 282052Z 32013G22KT 10SM SCT060 BKN075 18/06 A3001 RMK AO2 PK WND 31026/1955 SLP156 T01830061 56011

KSGF Airport Info (Airnav.com)

KSGF Flight Activity (Flightaware)

Listeners: 2 out of 1326 total

Springfield Approach: 121.100
Springfield Approach: 124.950
Springfield Approach: 126.350

KSGF Ground/Tower (Archives)
Springfield, Missouri, United States

Feed Status: UP
Listen in your browser - HTML5 player(in browser, HTML5)
Click here to listen with your own player(launches your MP3 player)

KSGF 282052Z 32013G22KT 10SM SCT060 BKN075 18/06 A3001 RMK AO2 PK WND 31026/1955 SLP156 T01830061 56011

KSGF Airport Info (Airnav.com)

KSGF Flight Activity (Flightaware)

Listeners: 0 out of 1326 total

Springfield Ground: 121.900
Springfield Tower: 119.900

KSJC D-ATIS (Archives)
San Jose, California, United States

Feed Status: UP
Listen in your browser - HTML5 player(in browser, HTML5)
Click here to listen with your own player(launches your MP3 player)

KSJC 282053Z VRB03KT 10SM FEW014 BKN046 OVC060 36/02 A2988 RMK AO2 SLP118 FU FEW014 FU BKN046 FU OVC060 T03560017 58016

KSJC Airport Info (Airnav.com)

KSJC Flight Activity (Flightaware)

Listeners: 0 out of 1326 total

San Jose D-ATIS: 126.950

KSJC Del/Gnd/Misc (Archives)
San Jose, California, United States

Feed Status: UP
Listen in your browser - HTML5 player(in browser, HTML5)
Click here to listen with your own player(launches your MP3 player)

KSJC 282053Z VRB03KT 10SM FEW014 BKN046 OVC060 36/02 A2988 RMK AO2 SLP118 FU FEW014 FU BKN046 FU OVC060 T03560017 58016

KSJC Airport Info (Airnav.com)

KSJC Flight Activity (Flightaware)

Listeners: 0 out of 1326 total

Alaska Airlines Ops: 131.200
American Airlines Ops: 129.200
Atlantic Aviation (San Jose Jet Center): 129.800
Emergency/Guard: 121.500
Horizon Air Ops: 132.000
San Jose Clearance Delivery: 118.000
San Jose Ground: 121.700
Signature Flight Support: 129.050
Southwest Airlines Ops: 464.625
Southwest Airlines Ops: 131.700

KSJC Ground (Archives)
San Jose, California, United States

Feed Status: UP
Listen in your browser - HTML5 player(in browser, HTML5)
Click here to listen with your own player(launches your MP3 player)

KSJC 282053Z VRB03KT 10SM FEW014 BKN046 OVC060 36/02 A2988 RMK AO2 SLP118 FU FEW014 FU BKN046 FU OVC060 T03560017 58016

KSJC Airport Info (Airnav.com)

KSJC Flight Activity (Flightaware)

Listeners: 0 out of 1326 total

San Jose Ground: 121.700

KSJC NORCAL Approach #1 (Archives)
San Jose, California, United States

Feed Status: UP
Listen in your browser - HTML5 player(in browser, HTML5)
Click here to listen with your own player(launches your MP3 player)

KSJC 282053Z VRB03KT 10SM FEW014 BKN046 OVC060 36/02 A2988 RMK AO2 SLP118 FU FEW014 FU BKN046 FU OVC060 T03560017 58016

KSJC Airport Info (Airnav.com)

KSJC Flight Activity (Flightaware)

Listeners: 0 out of 1326 total

Emergency/Guard: 121.500
NORCAL Approach: 135.200
NORCAL Approach "LICKE" SJC Final: 120.100

KSJC NORCAL Approach #2 (Archives)
San Jose, California, United States

Feed Status: UP
Listen in your browser - HTML5 player(in browser, HTML5)
Click here to listen with your own player(launches your MP3 player)

KSJC 282053Z VRB03KT 10SM FEW014 BKN046 OVC060 36/02 A2988 RMK AO2 SLP118 FU FEW014 FU BKN046 FU OVC060 T03560017 58016

KSJC Airport Info (Airnav.com)

KSJC Flight Activity (Flightaware)

Listeners: 0 out of 1326 total

NORCAL Approach "LICKE" SJC Final: 120.100
NORCAL Approach "TOGA": 121.300

KSJC NORCAL Departure (Archives)
San Jose, California, United States

Feed Status: UP
Listen in your browser - HTML5 player(in browser, HTML5)
Click here to listen with your own player(launches your MP3 player)

KSJC 282053Z VRB03KT 10SM FEW014 BKN046 OVC060 36/02 A2988 RMK AO2 SLP118 FU FEW014 FU BKN046 FU OVC060 T03560017 58016

KSJC Airport Info (Airnav.com)

KSJC Flight Activity (Flightaware)

Listeners: 0 out of 1326 total

NORCAL Departure: 121.300

KSJC Tower #1 (Archives)
San Jose, California, United States

Feed Status: UP
Listen in your browser - HTML5 player(in browser, HTML5)
Click here to listen with your own player(launches your MP3 player)

KSJC 282053Z VRB03KT 10SM FEW014 BKN046 OVC060 36/02 A2988 RMK AO2 SLP118 FU FEW014 FU BKN046 FU OVC060 T03560017 58016

KSJC Airport Info (Airnav.com)

KSJC Flight Activity (Flightaware)

Listeners: 0 out of 1326 total

San Jose Tower: 124.000

KSJC Tower #2 (Archives)
San Jose, California, United States

Feed Status: UP
Listen in your browser - HTML5 player(in browser, HTML5)
Click here to listen with your own player(launches your MP3 player)

KSJC 282053Z VRB03KT 10SM FEW014 BKN046 OVC060 36/02 A2988 RMK AO2 SLP118 FU FEW014 FU BKN046 FU OVC060 T03560017 58016

KSJC Airport Info (Airnav.com)

KSJC Flight Activity (Flightaware)

Listeners: 0 out of 1326 total

San Jose Tower: 124.000
San Jose Tower: 120.700

KSMF/KSAC App/Dep
Sacramento, California, United States

Feed Status: DOWN
Offline since: 2020-02-18 19:33:06 UTC

KSMF 282053Z 33013KT 10SM CLR 36/03 A2989 RMK AO2 SLP121 T03610033 58015

KSMF Airport Info (Airnav.com)

NORCAL Approach/Departure: 127.400
NORCAL Approach/Departure: 125.100
NORCAL Approach/Departure: 125.400
NORCAL Approach/Departure: 123.700

KSNA Del/Gnd (Archives)
Santa Ana, California, United States

Feed Status: UP
Listen in your browser - HTML5 player(in browser, HTML5)
Click here to listen with your own player(launches your MP3 player)

KSNA 282053Z 25006KT 7SM CLR 29/17 A2988 RMK AO2 SLP116 T02940172 58016

KSNA Airport Info (Airnav.com)

KSNA Flight Activity (Flightaware)

Listeners: 0 out of 1326 total

John Wayne Clearance (IFR): 118.000
John Wayne Clearance (VFR): 121.850
John Wayne Ground (East): 120.800
John Wayne Ground (West): 132.250

KSNA Del/Gnd/Twr/App (Archives)
Santa Ana, California, United States

Feed Status: UP
Listen in your browser - HTML5 player(in browser, HTML5)
Click here to listen with your own player(launches your MP3 player)

KSNA 282053Z 25006KT 7SM CLR 29/17 A2988 RMK AO2 SLP116 T02940172 58016

KSNA Airport Info (Airnav.com)

KSNA Flight Activity (Flightaware)

Listeners: 2 out of 1326 total

John Wayne Clearance Delivery: 121.850
John Wayne Ground: 120.800
John Wayne Tower: 119.900
John Wayne Tower: 126.800
SoCal Approach (NE/SW): 128.100
SoCal Approach (NW/NE): 121.300
SoCal Approach (SE): 124.100

KSRQ App/Dep (Archives)
Sarasota/Bradenton, Florida, United States

Feed Status: UP
Listen in your browser - HTML5 player(in browser, HTML5)
Click here to listen with your own player(launches your MP3 player)

KSRQ 282053Z 28009KT 10SM SCT035 31/25 A2984 RMK AO2 SLP103 T03110250 56016

KSRQ Airport Info (Airnav.com)

KSRQ Flight Activity (Flightaware)

Listeners: 2 out of 1326 total

Tampa Approach/Departure: 119.650
Tampa Approach/Departure: 124.950

KSRQ Del/Gnd (Archives)
Sarasota/Bradenton, Florida, United States

Feed Status: UP
Listen in your browser - HTML5 player(in browser, HTML5)
Click here to listen with your own player(launches your MP3 player)

KSRQ 282053Z 28009KT 10SM SCT035 31/25 A2984 RMK AO2 SLP103 T03110250 56016

KSRQ Airport Info (Airnav.com)

KSRQ Flight Activity (Flightaware)

Listeners: 0 out of 1326 total

Sarasota Clearance Delivery: 118.250
Sarasota Ground: 121.900

KSRQ Tower (Archives)
Sarasota/Bradenton, Florida, United States

Feed Status: UP
Listen in your browser - HTML5 player(in browser, HTML5)
Click here to listen with your own player(launches your MP3 player)

KSRQ 282053Z 28009KT 10SM SCT035 31/25 A2984 RMK AO2 SLP103 T03110250 56016

KSRQ Airport Info (Airnav.com)

KSRQ Flight Activity (Flightaware)

Listeners: 0 out of 1326 total

Sarasota Tower: 120.100
Sarasota Tower: 256.800

KSYR ATIS (Archives)
Syracuse, New York, United States

Feed Status: UP
Listen in your browser - HTML5 player(in browser, HTML5)
Click here to listen with your own player(launches your MP3 player)

KSYR 282054Z 18012G18KT 10SM SCT055 BKN100 BKN180 29/14 A2973 RMK AO2 SLP061 T02890144 58010

KSYR Airport Info (Airnav.com)

KSYR Flight Activity (Flightaware)

Listeners: 0 out of 1326 total

Syracuse ATIS: 124.225

KSYR Del/Gnd (Archives)
Syracuse, New York, United States

Feed Status: UP
Listen in your browser - HTML5 player(in browser, HTML5)
Click here to listen with your own player(launches your MP3 player)

KSYR 282054Z 18012G18KT 10SM SCT055 BKN100 BKN180 29/14 A2973 RMK AO2 SLP061 T02890144 58010

KSYR Airport Info (Airnav.com)

KSYR Flight Activity (Flightaware)

Listeners: 0 out of 1326 total

Syracuse Clearance Delivery: 125.050
Syracuse Ground: 121.700

KSYR Tower/Approach (Archives)
Syracuse, New York, United States

Feed Status: UP
Listen in your browser - HTML5 player(in browser, HTML5)
Click here to listen with your own player(launches your MP3 player)

KSYR 282054Z 18012G18KT 10SM SCT055 BKN100 BKN180 29/14 A2973 RMK AO2 SLP061 T02890144 58010

KSYR Airport Info (Airnav.com)

KSYR Flight Activity (Flightaware)

Listeners: 2 out of 1326 total

Syracuse Approach: 134.275
Syracuse Approach: 126.125
Syracuse Tower: 120.300

KTLH Del/Gnd/Twr/App (Archives)
Tallahassee, Florida, United States

Feed Status: UP
Listen in your browser - HTML5 player(in browser, HTML5)
Click here to listen with your own player(launches your MP3 player)

KTLH 282053Z 16009KT 10SM FEW042TCU SCT055 BKN080 29/23 A2982 RMK AO2 SLP097 TCU NW AND N AND NE T02890233 58018 $

KTLH Airport Info (Airnav.com)

KTLH Flight Activity (Flightaware)

Listeners: 0 out of 1326 total

Tallahassee Approach/Departure: 135.800
Tallahassee Approach/Departure: 128.700
Tallahassee Approach/Departure: 133.850
Tallahassee Clearance Delivery: 126.650
Tallahassee Ground: 121.900
Tallahassee Tower: 118.700

KTOL Del/Gnd/Twr/App (Archives)
Toledo, Ohio, United States

Feed Status: UP
Listen in your browser - HTML5 player(in browser, HTML5)
Click here to listen with your own player(launches your MP3 player)

KTOL 282052Z 29008KT 5SM -RA BR BKN008 OVC015 14/12 A2972 RMK AO2 RAB11 SLP063 P0003 60003 T01440122 53011 $

KTOL Airport Info (Airnav.com)

KTOL Flight Activity (Flightaware)

Listeners: 2 out of 1326 total

Toledo Approach (East): 126.100
Toledo Approach (West): 134.350
Toledo Clearance Delivery: 121.750
Toledo Ground: 121.900
Toledo Tower: 118.100

KTUL Del/Gnd/Twr/App (Archives)
Tulsa, Oklahoma, United States

Feed Status: UP
Listen in your browser - HTML5 player(in browser, HTML5)
Click here to listen with your own player(launches your MP3 player)

KTUL 282053Z 33018G29KT 10SM SCT090 23/04 A3009 RMK AO2 PK WND 33029/2050 SLP184 T02330044 56014

KTUL Airport Info (Airnav.com)

KTUL Flight Activity (Flightaware)

Listeners: 1 out of 1326 total

Emergency/Guard: 121.500
Tulsa Approach (175-354deg): 124.000
Tulsa Approach (355-174deg): 119.100
Tulsa Approach (Final): 132.100
Tulsa Approach/Departure (KRVS): 134.700
Tulsa Clearance: 134.050
Tulsa Ground: 121.900
Tulsa Tower (Rwy 18R/36L): 118.700
Tulsa Tower (Rwys 18L/36R, 08/26): 121.200

KDMA/KTUS Twr/Ops/ZAB (Archives)
Tucson, Arizona, United States

Feed Status: UP
Listen in your browser - HTML5 player(in browser, HTML5)
Click here to listen with your own player(launches your MP3 player)

KTUS 282053Z 02006G15KT 10SM CLR 36/M02 A2999 RMK AO2 SLP104 T03611022 58019

KTUS Airport Info (Airnav.com)

KTUS Flight Activity (Flightaware)

Listeners: 4 out of 1326 total

357FS Ops: 139.725
358FS Ops: 138.500
Albuquerque Center (Sector 47 Silver City/Low/UHF): 327.150
Albuquerque Center (Sector 90 San Simon/High/UHF): 281.500
AWACS: 364.200
BigFoot: 234.800
BigFoot: 271.000
Davis-Monthan AFB: 253.500
Tucson 162FW SOS IOPS: 392.200
Tucson Tower (UHF): 257.800

KTUS Del/Gnd/Twr/App/KDMA (Archives)
Tucson, Arizona, United States

Feed Status: UP
Listen in your browser - HTML5 player(in browser, HTML5)
Click here to listen with your own player(launches your MP3 player)

KTUS 282053Z 02006G15KT 10SM CLR 36/M02 A2999 RMK AO2 SLP104 T03611022 58019

KTUS Airport Info (Airnav.com)

KTUS Flight Activity (Flightaware)

Listeners: 0 out of 1326 total

KDMA Tower: 118.850
Tucson Approach (alt): 128.500
Tucson Approach (East/South): 125.100
Tucson Approach (North): 119.400
Tucson Approach (Practice Areas): 125.900
Tucson Clearance Delivery: 126.650
Tucson Ground: 124.400
Tucson Tower: 118.300
Tucson Tower (alt): 119.000

KTYS Del/Gnd/Twr/App (Archives)
Knoxville, Tennessee, United States

Feed Status: UP
Listen in your browser - HTML5 player(in browser, HTML5)
Click here to listen with your own player(launches your MP3 player)

KTYS 282053Z 21014G22KT 10SM FEW045 FEW150 BKN250 28/17 A2976 RMK AO2 SLP066 T02780167 56022

KTYS Airport Info (Airnav.com)

KTYS Flight Activity (Flightaware)

Listeners: 2 out of 1326 total

Knoxville Approach/Departure: 123.900
Knoxville Approach/Departure: 120.650
Knoxville Approach/Departure: 360.800
Knoxville Approach/Departure: 353.600
Knoxville Approach/Departure: 118.000
Knoxville Clearance Delivery: 121.650
Knoxville Ground: 348.600
Knoxville Ground: 121.900
Knoxville Tower: 257.800
Knoxville Tower: 121.200

KROG/KXNA/KVBT/Misc (Archives)
Bentonville, Arkansas, United States

Feed Status: UP
Listen in your browser - HTML5 player(in browser, HTML5)
Click here to listen with your own player(launches your MP3 player)

KROG 282058Z 33011G23KT 10SM BKN060 OVC075 19/06 A3006 RMK AO2 SLP171 6//// T01890061 56010 PNO $

KROG Airport Info (Airnav.com)

KROG Flight Activity (Flightaware)

Listeners: 0 out of 1326 total

Bentonville CTAF: 122.800
Northwest Regional Tower: 127.100
Razorback Approach/Departure (East): 126.600
Rogers Tower: 119.375

KROG/KXNA/KVBT/Misc (Archives)
Fayetteville/Springdale/Rogers, Arkansas, United States

Feed Status: UP
Listen in your browser - HTML5 player(in browser, HTML5)
Click here to listen with your own player(launches your MP3 player)

KROG 282058Z 33011G23KT 10SM BKN060 OVC075 19/06 A3006 RMK AO2 SLP171 6//// T01890061 56010 PNO $

KROG Airport Info (Airnav.com)

KROG Flight Activity (Flightaware)

Listeners: 0 out of 1326 total

Bentonville CTAF: 122.800
Northwest Regional Tower: 127.100
Razorback Approach/Departure (East): 126.600
Rogers Tower: 119.375

KBTR/KHZR/L38 Del/Gnd/Twr/App/CTAF
Gonzales, Louisiana, United States

Feed Status: DOWN
Offline since: 2020-08-21 21:05:05 UTC

KBTR 282053Z 32011G17KT 10SM -RA BKN007 BKN018 OVC025 22/21 A2986 RMK AO2 SLP109 P0000 60005 T02220206 56022

KBTR Airport Info (Airnav.com)

Baton Rouge Approach/Departure (East): 126.500
Baton Rouge Approach/Departure (Military): 278.300
Baton Rouge Approach/Departure (West): 120.300
Baton Rouge Clearance Delivery: 119.400
Baton Rouge Ground: 121.900
Baton Rouge Tower (Military): 257.800
Baton Rouge Tower/CTAF: 118.450
Baton Rouge UNICOM: 122.950
Houston Center (App/Dep when Approach closed): 338.250
Houston Center (App/Dep when Approach closed): 126.350
Louisiana Regional L38 CTAF: 123.000
United Airlines: 129.925

PANC Del/Gnd/App (Archives)
Anchorage, Alaska, United States

Feed Status: UP
Listen in your browser - HTML5 player(in browser, HTML5)
Click here to listen with your own player(launches your MP3 player)

PANC 282053Z 15003KT 10SM -RA FEW019 BKN075 BKN090 11/07 A2959 RMK AO2 SLP020 P0000 60002 T01060067 53041

PANC Airport Info (Airnav.com)

PANC Flight Activity (Flightaware)

Listeners: 3 out of 1326 total

Anchorage Approach/Dep (046-205 deg): 126.400
Anchorage Approach/Dep (206-249 deg): 123.800
Anchorage Approach/Dep (250-330 deg <=1500'): 119.100
Anchorage Approach/Dep (250-330 deg >1500'): 118.600
Anchorage Approach/Dep (331-045 deg <=2500'): 119.100
Anchorage Clearance: 119.400
Anchorage Ground: 121.900

PANC Del/Gnd/Twr/App (Archives)
Anchorage, Alaska, United States

Feed Status: UP
Listen in your browser - HTML5 player(in browser, HTML5)
Click here to listen with your own player(launches your MP3 player)

PANC 282053Z 15003KT 10SM -RA FEW019 BKN075 BKN090 11/07 A2959 RMK AO2 SLP020 P0000 60002 T01060067 53041

PANC Airport Info (Airnav.com)

PANC Flight Activity (Flightaware)

Listeners: 3 out of 1326 total

Anchorage Approach/Dep (046-205 deg): 126.400
Anchorage Approach/Dep (206-249 deg): 123.800
Anchorage Approach/Dep (250-330 deg <=1500'): 119.100
Anchorage Approach/Dep (250-330 deg >1500'): 118.600
Anchorage Approach/Dep (331-045 deg <=2500'): 119.100
Anchorage Clearance: 119.400
Anchorage Ground: 121.900
Anchorage Tower: 118.300

PANC Tower (Archives)
Anchorage, Alaska, United States

Feed Status: UP
Listen in your browser - HTML5 player(in browser, HTML5)
Click here to listen with your own player(launches your MP3 player)

PANC 282053Z 15003KT 10SM -RA FEW019 BKN075 BKN090 11/07 A2959 RMK AO2 SLP020 P0000 60002 T01060067 53041

PANC Airport Info (Airnav.com)

PANC Flight Activity (Flightaware)

Listeners: 0 out of 1326 total

Anchorage Tower: 118.300

PHOG ATIS (Archives)
Kahului, Hawaii, United States

Feed Status: UP
Listen in your browser - HTML5 player(in browser, HTML5)
Click here to listen with your own player(launches your MP3 player)

PHOG 282054Z 04017KT 10SM FEW030 SCT055 32/21 A2999 RMK AO2 SLP159 T03170206 58001

PHOG Airport Info (Airnav.com)

PHOG Flight Activity (Flightaware)

Listeners: 1 out of 1326 total

Maui ATIS: 128.600

PHOG Clearance Delivery (Archives)
Kahului, Hawaii, United States

Feed Status: UP
Listen in your browser - HTML5 player(in browser, HTML5)
Click here to listen with your own player(launches your MP3 player)

PHOG 282054Z 04017KT 10SM FEW030 SCT055 32/21 A2999 RMK AO2 SLP159 T03170206 58001

PHOG Airport Info (Airnav.com)

PHOG Flight Activity (Flightaware)

Listeners: 1 out of 1326 total

Maui Clearance Delivery: 120.600

PHOG Del/Gnd/Twr/App (Archives)
Kahului, Hawaii, United States

Feed Status: UP
Listen in your browser - HTML5 player(in browser, HTML5)
Click here to listen with your own player(launches your MP3 player)

PHOG 282054Z 04017KT 10SM FEW030 SCT055 32/21 A2999 RMK AO2 SLP159 T03170206 58001

PHOG Airport Info (Airnav.com)

PHOG Flight Activity (Flightaware)

Listeners: 3 out of 1326 total

HCF Approach (Maui/North): 120.200
HCF Approach (Maui/South): 119.500
Maui Clearance Delivery: 120.600
Maui Ground: 121.900
Maui Tower: 118.700

PHOG Ground (Archives)
Kahului, Hawaii, United States

Feed Status: UP
Listen in your browser - HTML5 player(in browser, HTML5)
Click here to listen with your own player(launches your MP3 player)

PHOG 282054Z 04017KT 10SM FEW030 SCT055 32/21 A2999 RMK AO2 SLP159 T03170206 58001

PHOG Airport Info (Airnav.com)

PHOG Flight Activity (Flightaware)

Listeners: 1 out of 1326 total

Maui Ground: 121.900

PHOG HCF App (N/S) (Archives)
Kahului, Hawaii, United States

Feed Status: UP
Listen in your browser - HTML5 player(in browser, HTML5)
Click here to listen with your own player(launches your MP3 player)

PHOG 282054Z 04017KT 10SM FEW030 SCT055 32/21 A2999 RMK AO2 SLP159 T03170206 58001

PHOG Airport Info (Airnav.com)

PHOG Flight Activity (Flightaware)

Listeners: 0 out of 1326 total

HCF Approach (Maui/North): 120.200
HCF Approach (Maui/South): 119.500

PHOG HCF App (North) (Archives)
Kahului, Hawaii, United States

Feed Status: UP
Listen in your browser - HTML5 player(in browser, HTML5)
Click here to listen with your own player(launches your MP3 player)

PHOG 282054Z 04017KT 10SM FEW030 SCT055 32/21 A2999 RMK AO2 SLP159 T03170206 58001

PHOG Airport Info (Airnav.com)

PHOG Flight Activity (Flightaware)

Listeners: 1 out of 1326 total

HCF Approach (Maui/North): 120.200

PHOG HCF App (South) (Archives)
Kahului, Hawaii, United States

Feed Status: UP
Listen in your browser - HTML5 player(in browser, HTML5)
Click here to listen with your own player(launches your MP3 player)

PHOG 282054Z 04017KT 10SM FEW030 SCT055 32/21 A2999 RMK AO2 SLP159 T03170206 58001

PHOG Airport Info (Airnav.com)

PHOG Flight Activity (Flightaware)

Listeners: 1 out of 1326 total

HCF Approach (Maui/South): 119.500

PHOG Tower (Archives)
Kahului, Hawaii, United States

Feed Status: UP
Listen in your browser - HTML5 player(in browser, HTML5)
Click here to listen with your own player(launches your MP3 player)

PHOG 282054Z 04017KT 10SM FEW030 SCT055 32/21 A2999 RMK AO2 SLP159 T03170206 58001

PHOG Airport Info (Airnav.com)

PHOG Flight Activity (Flightaware)

Listeners: 1 out of 1326 total

Maui Tower: 118.700

TJSJ Approach/Departure
San Juan, Puerto Rico, United States

Feed Status: DOWN
Offline since: 2020-08-31 17:53:05 UTC

TJSJ 282056Z 08013KT 10SM SCT026 BKN085 29/24 A2988 RMK AO2 SLP115 SHRA DSNT SE SW T02940244 55001 $

San Juan App/Dep (North/East): 120.900
San Juan Approach: 128.650
San Juan Approach/Departure (West/Southwest): 119.400

TJSJ Del/Gnd/Twr
San Juan, Puerto Rico, United States

Feed Status: DOWN
Offline since: 2020-08-31 17:53:05 UTC

TJSJ 282056Z 08013KT 10SM SCT026 BKN085 29/24 A2988 RMK AO2 SLP115 SHRA DSNT SE SW T02940244 55001 $

San Juan Clearance Delivery: 126.400
San Juan Ground: 121.900
San Juan Tower: 132.050